[[{"header":{"parameterUnit":"m.s-1","parameterCategory":1,"la1":30.6,"la2":28.766,"lo1":-90.7593,"lo2":-88.6598,"dy":0.0162,"dx":0.0183,"nx":116,"ny":114,"refTime":"2023-07-17T12:00:00:Z","depth":0,"parameterNumber":2,"parameterNumberName":"U-component_of_WINDS"},"data":[0.0,0.0,0.0,0.0,0.0,0.0,0.0,0.0,0.0,0.0,0.0,0.0,0.0,0.0,0.0,0.0,0.0,0.0,0.0,0.0,0.0,0.0,0.0,0.0,0.0,0.0,0.0,0.0,0.0,0.0,0.0,0.0,0.0,0.0,0.0,0.0,0.0,0.0,0.0,0.0,0.0,0.0,0.0,0.0,0.0,0.0,0.0,0.0,0.0,0.0,0.0,0.0,0.0,0.0,0.0,0.0,0.0,0.0,0.0,0.0,0.0,0.0,0.0,0.0,0.0,0.0,0.0,0.0,0.0,0.0,0.0,0.0,0.0,0.0,0.0,0.0,0.0,0.0,0.0,0.0,0.0,0.0,0.0,0.0,0.0,0.0,0.0,0.0,0.0,0.0,0.0,0.0,0.0,0.0,0.0,0.0,0.0,0.0,0.0,0.0,0.0,0.0,0.0,0.0,0.0,0.0,0.0,0.0,0.0,0.0,0.0,0.0,0.0,0.0,0.0,0.0,0.0,0.0,0.0,0.0,0.0,0.0,0.0,0.0,0.0,0.0,0.0,0.0,0.0,0.0,0.0,0.0,0.0,0.0,0.0,0.0,0.0,0.0,0.0,0.0,0.0,0.0,0.0,0.0,0.0,0.0,0.0,0.0,0.0,0.0,0.0,0.0,0.0,0.0,0.0,0.0,0.0,0.0,0.0,0.0,0.0,0.0,0.0,0.0,0.0,0.0,0.0,0.0,0.0,0.0,0.0,0.0,0.0,0.0,0.0,0.0,0.0,0.0,0.0,0.0,0.0,0.0,0.0,0.0,0.0,0.0,0.0,0.0,0.0,0.0,0.0,0.0,0.0,0.0,0.0,0.0,0.0,0.0,0.0,0.0,0.0,0.0,0.0,0.0,0.0,0.0,0.0,0.0,0.0,0.0,0.0,0.0,0.0,0.0,0.0,0.0,0.0,0.0,0.0,0.0,0.0,0.0,0.0,0.0,0.0,0.0,0.0,0.0,0.0,0.0,0.0,0.0,0.0,0.0,0.0,0.0,0.0,0.0,0.0,0.0,0.0,0.0,0.0,0.0,0.0,0.0,0.0,0.0,0.0,0.0,0.0,0.0,0.0,0.0,0.0,0.0,0.0,0.0,0.0,0.0,0.0,0.0,0.0,0.0,0.0,0.0,0.0,0.0,0.0,0.0,0.0,0.0,0.0,0.0,0.0,0.0,0.0,0.0,0.0,0.0,0.0,0.0,0.0,0.0,0.0,0.0,0.0,0.0,0.0,0.0,0.0,0.0,0.0,0.0,0.0,0.0,0.0,0.0,0.0,0.0,0.0,0.0,0.0,0.0,0.0,0.0,0.0,0.0,0.0,0.0,0.0,0.0,0.0,0.0,0.0,0.0,0.0,0.0,0.0,0.0,0.0,0.0,0.0,0.0,0.0,0.0,0.0,0.0,0.0,0.0,0.0,0.0,0.0,0.0,0.0,0.0,0.0,0.0,0.0,0.0,0.0,0.0,0.0,0.0,0.0,0.0,0.0,0.0,0.0,0.0,0.0,0.0,0.0,0.0,0.0,0.0,0.0,0.0,0.0,0.0,0.0,0.0,0.0,0.0,0.0,0.0,0.0,0.0,0.0,0.0,0.0,0.0,0.0,0.0,0.0,0.0,0.0,0.0,0.0,0.0,0.0,0.0,0.0,0.0,0.0,0.0,0.0,0.0,0.0,0.0,0.0,0.0,0.0,0.0,0.0,0.0,0.0,0.0,0.0,0.0,0.0,0.0,0.0,0.0,0.0,0.0,0.0,0.0,0.0,0.0,0.0,0.0,0.0,0.0,0.0,0.0,0.0,0.0,0.0,0.0,0.0,0.0,0.0,0.0,0.0,0.0,0.0,0.0,0.0,0.0,0.0,0.0,0.0,0.0,0.0,0.0,0.0,0.0,0.0,0.0,0.0,0.0,0.0,0.0,0.0,0.0,0.0,0.0,0.0,0.0,0.0,0.0,0.0,0.0,0.0,0.0,0.0,0.0,0.0,0.0,0.0,0.0,0.0,0.0,0.0,0.0,0.0,0.0,0.0,0.0,0.0,0.0,0.0,0.0,0.0,0.0,0.0,0.0,0.0,0.0,0.0,0.0,0.0,0.0,0.0,0.0,0.0,0.0,0.0,0.0,0.0,0.0,0.0,0.0,0.0,0.0,0.0,0.0,0.0,0.0,0.0,0.0,0.0,0.0,0.0,0.0,0.0,0.0,0.0,0.0,0.0,0.0,0.0,0.0,0.0,0.0,0.0,0.0,0.0,0.0,0.0,0.0,0.0,0.0,0.0,0.0,0.0,0.0,0.0,0.0,0.0,0.0,0.0,0.0,0.0,0.0,0.0,0.0,0.0,0.0,0.0,0.0,0.0,0.0,0.0,0.0,0.0,0.0,0.0,0.0,0.0,0.0,0.0,0.0,0.0,0.0,0.0,0.0,0.0,0.0,0.0,0.0,0.0,0.0,0.0,0.0,0.0,0.0,0.0,0.0,0.0,0.0,0.0,0.0,0.0,0.0,0.0,0.0,0.0,0.0,0.0,0.0,0.0,0.0,0.0,0.0,0.0,0.0,0.0,0.0,0.0,0.0,0.0,0.0,0.0,0.0,0.0,0.0,0.0,0.0,0.0,0.0,0.0,0.0,0.0,0.0,0.0,0.0,0.0,0.0,0.0,0.0,0.0,0.0,0.0,0.0,0.0,0.0,0.0,0.0,0.0,0.0,0.0,0.0,0.0,0.0,0.0,0.0,0.0,0.0,0.0,0.0,0.0,0.0,0.0,0.0,0.0,0.0,0.0,0.0,0.0,0.0,0.0,0.0,0.0,0.0,0.0,0.0,0.0,0.0,0.0,0.0,0.0,0.0,0.0,0.0,0.0,0.0,0.0,0.0,0.0,0.0,0.0,0.0,0.0,0.0,0.0,0.0,0.0,0.0,0.0,0.0,0.0,0.0,0.0,0.0,0.0,0.0,0.0,0.0,0.0,0.0,0.0,0.0,0.0,0.0,0.0,0.0,0.0,0.0,0.0,0.0,0.0,0.0,0.0,0.0,0.0,0.0,0.0,0.0,0.0,0.0,0.0,0.0,0.0,0.0,0.0,0.0,0.0,0.0,0.0,0.0,0.0,0.0,0.0,0.0,0.0,0.0,0.0,0.0,0.0,0.0,0.0,0.0,0.0,0.0,0.0,0.0,0.0,0.0,0.0,0.0,0.0,0.0,0.0,0.0,0.0,0.0,0.0,0.0,0.0,0.0,0.0,0.0,0.0,0.0,0.0,0.0,0.0,0.0,0.0,0.0,0.0,0.0,0.0,0.0,0.0,0.0,0.0,0.0,0.0,0.0,0.0,0.0,0.0,0.0,0.0,0.0,0.0,0.0,0.0,0.0,0.0,0.0,0.0,0.0,0.0,0.0,0.0,0.0,0.0,0.0,0.0,0.0,0.0,0.0,0.0,0.0,0.0,0.0,0.0,0.0,0.0,0.0,0.0,0.0,0.0,0.0,0.0,0.0,0.0,0.0,0.0,0.0,0.0,0.0,0.0,0.0,0.0,0.0,0.0,0.0,0.0,0.0,0.0,0.0,0.0,0.0,0.0,0.0,0.0,0.0,0.0,0.0,0.0,0.0,0.0,0.0,0.0,0.0,0.0,0.0,0.0,0.0,0.0,0.0,0.0,0.0,0.0,0.0,0.0,0.0,0.0,0.0,0.0,0.0,0.0,0.0,0.0,0.0,0.0,0.0,0.0,0.0,0.0,0.0,0.0,0.0,0.0,0.0,0.0,0.0,0.0,0.0,0.0,0.0,0.0,0.0,0.0,0.0,0.0,0.0,0.0,0.0,0.0,0.0,0.0,0.0,0.0,0.0,0.0,0.0,0.0,0.0,0.0,0.0,0.0,0.0,0.0,0.0,0.0,0.0,0.0,0.0,0.0,0.0,0.0,0.0,0.0,0.0,0.0,0.0,0.0,0.0,0.0,0.0,0.0,0.0,0.0,0.0,0.0,0.0,0.0,0.0,0.0,0.0,0.0,0.0,0.0,0.0,0.0,0.0,0.0,0.0,0.0,0.0,0.0,0.0,0.0,0.0,0.0,0.0,0.0,0.0,0.0,0.0,0.0,0.0,0.0,0.0,0.0,0.0,0.0,0.0,0.0,0.0,0.0,0.0,0.0,0.0,0.0,0.0,0.0,0.0,0.0,0.0,0.0,0.0,0.0,0.0,0.0,0.0,0.0,0.0,0.0,0.0,0.0,0.0,0.0,0.0,0.0,0.0,0.0,0.0,0.0,0.0,0.0,0.0,0.0,0.0,0.0,0.0,0.0,0.0,0.0,0.0,0.0,0.0,0.0,0.0,0.0,0.0,0.0,0.0,0.0,0.0,0.0,0.0,0.0,0.0,0.0,0.0,0.0,0.0,0.0,0.0,0.0,0.0,0.0,0.0,0.0,0.0,0.0,0.0,0.0,0.0,0.0,0.0,0.0,0.0,0.0,0.0,0.0,0.0,0.0,0.0,0.0,0.0,0.0,0.0,0.0,0.0,0.0,0.0,0.0,0.0,0.0,0.0,0.0,0.0,0.0,0.0,0.0,0.0,0.0,0.0,0.0,0.0,0.0,0.0,0.0,0.0,0.0,0.0,0.0,0.0,0.0,0.0,0.0,0.0,0.0,0.0,0.0,0.0,0.0,0.0,0.0,0.0,0.0,0.0,0.0,0.0,0.0,0.0,0.0,0.0,0.0,0.0,0.0,0.0,0.0,0.0,0.0,0.0,0.0,0.0,0.0,0.0,0.0,0.0,0.0,0.0,0.0,0.0,0.0,0.0,0.0,0.0,0.0,0.0,0.0,0.0,0.0,0.0,0.0,0.0,0.0,0.0,0.0,0.0,0.0,0.0,0.0,0.0,0.0,0.0,0.0,0.0,0.0,0.0,0.0,0.0,0.0,0.0,0.0,0.0,0.0,0.0,0.0,0.0,0.0,0.0,0.0,0.0,0.0,0.0,0.0,0.0,0.0,0.0,0.0,0.0,0.0,0.0,0.0,0.0,0.0,0.0,0.0,0.0,0.0,0.0,0.0,0.0,0.0,0.0,0.0,0.0,0.0,0.0,0.0,0.0,0.0,0.0,0.0,0.0,0.0,0.0,0.0,0.0,0.0,0.0,0.0,0.0,0.0,0.0,0.0,0.0,0.0,0.0,0.0,0.0,0.0,0.0,0.0,0.0,0.0,0.0,0.0,0.0,0.0,0.0,0.0,0.0,0.0,0.0,0.0,0.0,0.0,0.0,0.0,0.0,0.0,0.0,0.0,0.0,0.0,0.0,0.0,0.0,0.0,0.0,0.0,0.0,0.0,0.0,0.0,0.0,0.0,0.0,0.0,0.0,0.0,0.0,0.0,0.0,0.0,0.0,0.0,0.0,0.0,0.0,0.0,0.0,0.0,0.0,0.0,0.0,0.0,0.0,0.0,0.0,0.0,0.0,0.0,0.0,0.0,0.0,0.0,0.0,0.0,0.0,0.0,0.0,0.0,0.0,0.0,0.0,0.0,0.0,0.0,0.0,0.0,0.0,0.0,0.0,0.0,0.0,0.0,0.0,0.0,0.0,0.0,0.0,0.0,0.0,0.0,0.0,0.0,0.0,0.0,0.0,0.0,0.0,0.0,0.0,0.0,0.0,0.0,0.0,0.0,0.0,0.0,0.0,0.0,0.0,0.0,0.0,0.0,0.0,0.0,0.0,0.0,0.0,0.0,0.0,0.0,0.0,0.0,0.0,0.0,0.0,0.0,0.0,0.0,0.0,0.0,0.0,0.0,0.0,0.0,0.0,0.0,0.0,0.0,0.0,0.0,0.0,0.0,0.0,0.0,0.0,0.0,0.0,0.0,0.0,0.0,0.0,0.0,0.0,0.0,0.0,0.0,0.0,0.0,0.0,0.0,0.0,0.0,0.0,0.0,0.0,0.0,0.0,0.0,0.0,0.0,0.0,0.0,0.0,0.0,0.0,0.0,0.0,0.0,0.0,0.0,0.0,0.0,0.0,0.0,0.0,0.0,0.0,0.0,0.0,0.0,0.0,0.0,0.0,-4.9032,-4.7842,0.0,0.0,0.0,0.0,0.0,0.0,0.0,0.0,0.0,0.0,0.0,0.0,0.0,0.0,0.0,0.0,0.0,0.0,0.0,0.0,0.0,0.0,0.0,0.0,0.0,0.0,0.0,0.0,0.0,0.0,0.0,0.0,0.0,0.0,0.0,0.0,0.0,0.0,0.0,0.0,0.0,0.0,0.0,0.0,0.0,0.0,0.0,0.0,0.0,0.0,0.0,0.0,0.0,0.0,0.0,0.0,0.0,0.0,0.0,0.0,0.0,0.0,0.0,0.0,0.0,0.0,0.0,0.0,0.0,0.0,0.0,0.0,0.0,0.0,0.0,0.0,0.0,0.0,0.0,0.0,0.0,0.0,0.0,0.0,0.0,0.0,0.0,0.0,0.0,0.0,0.0,0.0,0.0,0.0,0.0,0.0,0.0,0.0,0.0,0.0,0.0,0.0,0.0,0.0,0.0,0.0,0.0,0.0,0.0,0.0,0.0,0.0,0.0,0.0,-5.0828,-5.0048,0.0,0.0,0.0,0.0,0.0,0.0,0.0,0.0,0.0,0.0,0.0,0.0,0.0,0.0,0.0,0.0,0.0,0.0,0.0,0.0,0.0,0.0,0.0,0.0,0.0,0.0,0.0,0.0,0.0,0.0,0.0,0.0,0.0,0.0,0.0,0.0,0.0,0.0,0.0,0.0,0.0,0.0,0.0,0.0,0.0,0.0,0.0,0.0,0.0,0.0,0.0,0.0,0.0,0.0,0.0,0.0,0.0,0.0,0.0,0.0,0.0,0.0,0.0,0.0,0.0,0.0,0.0,0.0,0.0,0.0,0.0,0.0,0.0,0.0,0.0,0.0,0.0,0.0,0.0,0.0,0.0,0.0,0.0,0.0,0.0,0.0,0.0,0.0,0.0,0.0,0.0,0.0,0.0,0.0,0.0,0.0,0.0,0.0,0.0,0.0,0.0,0.0,0.0,0.0,0.0,0.0,0.0,0.0,-5.3222,-5.3357,-5.3356,-5.3356,-5.3372,-5.3346,-5.2624,-5.2468,-5.2528,-5.036,0.0,0.0,0.0,0.0,0.0,0.0,0.0,0.0,0.0,0.0,0.0,0.0,0.0,0.0,0.0,0.0,0.0,0.0,0.0,0.0,0.0,0.0,0.0,0.0,0.0,0.0,0.0,0.0,0.0,0.0,0.0,0.0,0.0,0.0,0.0,0.0,0.0,0.0,-3.4211,-3.476,-3.4717,-3.4281,-3.5496,0.0,0.0,0.0,0.0,0.0,0.0,0.0,0.0,0.0,0.0,0.0,0.0,0.0,0.0,0.0,0.0,0.0,0.0,0.0,0.0,0.0,0.0,0.0,0.0,0.0,0.0,0.0,0.0,0.0,0.0,0.0,0.0,0.0,0.0,0.0,0.0,0.0,0.0,0.0,0.0,0.0,0.0,0.0,-4.7599,-4.8566,0.0,0.0,0.0,0.0,0.0,0.0,0.0,0.0,0.0,0.0,0.0,0.0,0.0,-5.1678,-5.121,-5.3532,-5.4387,-5.3761,-5.5285,-5.6003,-5.5992,-5.5992,-5.6023,-5.6079,-5.5962,0.0,-5.2665,-5.2333,0.0,0.0,0.0,0.0,0.0,0.0,0.0,0.0,0.0,0.0,0.0,0.0,0.0,0.0,0.0,0.0,0.0,0.0,0.0,0.0,0.0,0.0,0.0,0.0,0.0,0.0,0.0,0.0,0.0,0.0,0.0,0.0,0.0,0.0,0.0,0.0,-3.3364,-3.4693,-3.5375,-3.5306,-3.5604,-3.6222,-3.6815,-3.7039,-3.6963,-3.6715,0.0,0.0,0.0,0.0,0.0,0.0,0.0,0.0,0.0,0.0,0.0,0.0,0.0,0.0,0.0,0.0,0.0,0.0,0.0,0.0,0.0,0.0,0.0,0.0,0.0,0.0,0.0,0.0,0.0,0.0,0.0,0.0,0.0,0.0,0.0,0.0,0.0,0.0,0.0,-4.5858,-4.8198,-4.7618,-4.8063,-4.7657,0.0,0.0,0.0,0.0,0.0,0.0,0.0,0.0,0.0,-5.1786,-5.2677,-5.3239,-5.3486,-5.5104,-5.5975,-5.6103,-5.687,-5.7228,-5.7224,-5.7224,-5.7002,-5.6606,-5.6606,-5.5942,-5.481,-5.3834,-5.2761,-5.1531,0.0,0.0,0.0,0.0,-4.8133,-4.8887,0.0,0.0,0.0,0.0,0.0,0.0,0.0,0.0,0.0,0.0,0.0,0.0,0.0,0.0,0.0,-2.9954,0.0,0.0,0.0,0.0,0.0,0.0,0.0,0.0,0.0,0.0,0.0,0.0,-3.4186,-3.5163,-3.5528,-3.5277,-3.5663,-3.6604,-3.6971,-3.7,-3.6758,-3.6658,-3.5717,0.0,0.0,0.0,0.0,0.0,0.0,0.0,0.0,0.0,0.0,0.0,0.0,0.0,0.0,0.0,0.0,0.0,0.0,0.0,0.0,0.0,0.0,0.0,0.0,0.0,0.0,0.0,0.0,0.0,0.0,0.0,0.0,0.0,0.0,0.0,0.0,0.0,0.0,-4.794,-4.927,-4.7405,-4.9049,-4.901,0.0,0.0,0.0,0.0,0.0,0.0,-5.1497,-5.1575,-5.2086,-5.3233,-5.4181,-5.491,-5.5394,-5.6344,-5.7038,-5.7473,-5.7465,-5.7475,-5.746,-5.746,-5.7024,-5.6247,-5.6259,-5.6138,-5.5845,-5.4771,-5.4205,-5.3776,-5.1609,-5.0631,-5.0358,-4.9688,-4.9814,-5.0498,0.0,0.0,0.0,0.0,0.0,0.0,0.0,0.0,0.0,0.0,0.0,0.0,0.0,0.0,-2.9278,-3.071,-3.0123,-2.9377,0.0,0.0,0.0,0.0,0.0,0.0,0.0,0.0,0.0,-3.4093,-3.3572,-3.3366,-3.3475,-3.4195,-3.4287,-3.3844,-3.5068,-3.6613,-3.8236,-3.7481,-3.7319,-3.7365,0.0,0.0,0.0,0.0,0.0,0.0,0.0,0.0,0.0,0.0,0.0,0.0,0.0,0.0,0.0,0.0,0.0,0.0,0.0,0.0,0.0,0.0,0.0,0.0,0.0,0.0,0.0,0.0,0.0,0.0,0.0,0.0,0.0,0.0,0.0,0.0,0.0,0.0,0.0,-5.0929,-5.3586,0.0,0.0,0.0,0.0,-5.0705,-5.0782,-5.1583,-5.3285,-5.3362,-5.4157,-5.5869,-5.6821,-5.697,-5.625,-5.7162,-5.7286,-5.6569,-5.6566,-5.6567,-5.6575,-5.6561,-5.6091,-5.5271,-5.5331,-5.4908,-5.4186,-5.4927,-5.4752,-5.3893,-5.2936,-5.2058,-5.1312,-5.1208,-5.1197,-5.1234,0.0,0.0,0.0,0.0,0.0,0.0,0.0,0.0,0.0,0.0,0.0,0.0,0.0,-2.822,-2.9002,-2.986,-2.9176,-2.8596,-2.8352,0.0,0.0,0.0,0.0,0.0,0.0,0.0,-3.0167,-3.1123,-3.1435,-3.1718,-3.1963,-3.1795,-3.1863,-3.2065,-3.2614,-3.3758,-3.5277,-3.5899,-3.5783,-3.5103,-3.4345,-3.417,0.0,0.0,0.0,0.0,0.0,0.0,0.0,0.0,0.0,0.0,0.0,0.0,0.0,0.0,0.0,0.0,0.0,0.0,0.0,0.0,0.0,0.0,0.0,0.0,0.0,0.0,0.0,0.0,0.0,0.0,0.0,0.0,0.0,0.0,0.0,0.0,0.0,-5.115,-5.34,0.0,-5.0461,-5.0589,-5.113,-5.1699,-5.2782,-5.3904,-5.5045,-5.5103,-5.542,-5.6135,-5.6492,-5.6599,-5.6422,-5.6751,-5.678,-5.6507,-5.6508,-5.6205,-5.565,-5.5657,-5.521,-5.4431,-5.4447,-5.428,-5.4029,-5.4342,-5.4283,-5.3912,-5.3034,-5.2509,-5.2173,-5.1581,-5.1697,-5.2129,0.0,0.0,0.0,0.0,0.0,0.0,0.0,0.0,0.0,0.0,0.0,-2.5541,-2.621,-2.7176,-2.8003,-2.8498,-2.8035,-2.7385,-2.6693,0.0,0.0,0.0,0.0,0.0,0.0,-2.8233,-2.8693,-2.9057,-2.9232,-2.9513,-2.9908,-2.9518,-2.9695,-3.03,-3.0621,-3.129,-3.2283,-3.3818,-3.4473,-3.4424,-3.4308,-3.4249,-3.4124,0.0,0.0,0.0,0.0,0.0,0.0,0.0,0.0,0.0,0.0,0.0,0.0,0.0,0.0,0.0,0.0,0.0,0.0,0.0,0.0,0.0,0.0,0.0,0.0,0.0,0.0,0.0,0.0,0.0,0.0,0.0,0.0,0.0,0.0,-5.2658,-5.4372,-5.1097,-5.4101,-5.51,-5.1749,-5.2685,-5.3614,-5.3904,-5.4987,-5.576,-5.5993,-5.6012,-5.6043,-5.6139,-5.6187,-5.6257,-5.6398,-5.647,-5.6351,-5.6054,-5.6054,-5.5592,-5.4768,-5.4767,-5.4316,-5.3516,-5.3241,-5.296,-5.2683,-5.2683,-5.2507,-5.2273,-5.2585,-5.2704,-5.2583,-5.1698,-5.1525,-5.1622,0.0,0.0,0.0,0.0,0.0,0.0,0.0,0.0,0.0,0.0,-2.44,-2.4674,-2.5912,-2.596,-2.6151,-2.6735,-2.6616,-2.5649,-2.3663,-2.4186,0.0,0.0,0.0,0.0,-2.7111,-2.6466,-2.6819,-2.8262,-2.71,-2.6781,-2.727,-2.7502,-2.7876,-2.8398,-2.9092,-2.9453,-2.9672,-3.1477,-3.3611,-3.5727,-3.5065,-3.4488,-3.4144,0.0,0.0,0.0,0.0,0.0,0.0,0.0,0.0,0.0,0.0,0.0,0.0,0.0,0.0,0.0,0.0,0.0,0.0,0.0,0.0,0.0,0.0,0.0,0.0,0.0,0.0,0.0,0.0,0.0,0.0,0.0,0.0,0.0,-5.0266,-5.3124,-5.4192,-5.127,-5.6016,-5.8324,-5.5221,-5.7095,-5.8159,-5.7318,-5.726,-5.6893,-5.6051,-5.6012,-5.6012,-5.5993,-5.6139,-5.6194,-5.6181,-5.6359,-5.6015,-5.5154,-5.5154,-5.4686,-5.3814,-5.3855,-5.3366,-5.2432,-5.1699,-5.0852,-5.0067,-5.0067,-4.956,-4.9052,-5.1631,-5.2607,-5.2466,-5.1559,-5.0667,-4.9652,0.0,0.0,0.0,0.0,0.0,0.0,0.0,0.0,0.0,0.0,-2.4202,-2.4329,-2.4882,-2.4401,-2.4122,-2.4338,-2.3005,-2.2113,-2.2087,0.0,0.0,0.0,0.0,0.0,-2.3526,-2.4099,-2.4553,-2.4911,-2.5044,-2.4739,-2.4172,-2.5206,-2.5577,-2.5422,-2.6384,-2.7555,-2.8905,-3.0272,-3.1787,-3.3371,-3.4392,-3.4728,-3.4691,0.0,0.0,0.0,0.0,0.0,0.0,0.0,0.0,0.0,0.0,0.0,0.0,0.0,0.0,0.0,0.0,0.0,0.0,0.0,0.0,0.0,0.0,0.0,0.0,0.0,0.0,0.0,0.0,0.0,0.0,0.0,-4.9197,-5.1997,-5.1806,-5.4803,-5.6706,-5.5874,-5.747,-5.8301,-5.7418,-5.6955,-5.6631,-5.6371,-5.6351,-5.6255,-5.6012,-5.6012,-5.6018,-5.6064,-5.6109,-5.5896,-5.5411,-5.5463,-5.5064,-5.4258,-5.4258,-5.3463,-5.2041,-5.2664,-5.182,-4.987,-5.0287,-4.9957,-4.9153,-4.9153,-4.9029,-4.8935,-5.0282,-5.0438,-4.9831,-4.9589,-4.8899,-4.7951,0.0,0.0,0.0,0.0,0.0,0.0,0.0,0.0,0.0,0.0,-2.3715,-2.36,-2.3428,-2.2863,-2.2379,-2.2083,-2.1204,-2.0509,-2.0183,0.0,0.0,0.0,0.0,-2.2128,-2.1628,-2.2023,-2.2224,-2.2183,-2.2439,-2.244,-2.2212,-2.3485,-2.4067,-2.4045,-2.5166,-2.6461,-2.7844,-2.9452,-3.0656,-3.1632,-3.3531,-3.4467,-3.4726,-3.5075,-3.4952,-3.4685,-3.5607,-3.597,-3.6068,-3.6301,0.0,0.0,0.0,0.0,0.0,0.0,0.0,0.0,0.0,0.0,0.0,0.0,0.0,0.0,0.0,0.0,0.0,0.0,0.0,0.0,0.0,0.0,0.0,0.0,-5.0921,-5.3063,-5.3404,-5.5546,-5.7235,-5.7657,-5.7909,-5.8104,-5.828,-5.7486,-5.6849,-5.6564,-5.6545,-5.6244,-5.5528,-5.5509,-5.5515,-5.5544,-5.5583,-5.5409,-5.5028,-5.5061,-5.4495,-5.3316,-5.3334,-5.245,-5.0774,-5.1281,-5.0514,-4.8803,-4.8957,-4.8716,-4.8259,-4.8259,-4.8057,0.0,0.0,0.0,0.0,0.0,-4.6547,-4.5637,0.0,0.0,0.0,0.0,0.0,0.0,0.0,0.0,0.0,0.0,0.0,-2.2781,-2.1957,-2.1471,-2.0845,-1.9921,-2.0324,-1.9944,0.0,0.0,0.0,-1.8976,-2.0543,-2.1121,-2.0527,-2.0122,-1.9913,-1.9851,-1.9739,-2.006,-2.0804,-2.2047,-2.2885,-2.3437,-2.4637,-2.569,-2.6685,-2.8764,-2.992,-3.0488,-3.2675,-3.3837,-3.4333,-3.4841,-3.507,-3.5208,-3.6138,-3.6549,-3.6733,-3.7306,0.0,0.0,0.0,0.0,0.0,0.0,0.0,0.0,0.0,0.0,0.0,0.0,0.0,0.0,0.0,0.0,0.0,0.0,0.0,0.0,0.0,0.0,0.0,0.0,-5.2817,-5.4257,-5.5072,-5.5678,-5.6432,-5.7411,-5.7548,-5.7691,-5.8061,-5.7931,-5.76,-5.7031,-5.6894,-5.6207,-5.4735,-5.4658,0.0,0.0,0.0,-5.4699,-5.4617,-5.4717,-5.3963,-5.2358,-5.2401,-5.155,-4.9878,-4.9956,-4.9458,-4.8465,-4.7799,-4.7442,-4.7343,-4.7246,-4.6733,-4.6085,-4.6899,-4.7201,-4.6997,-4.527,-4.4109,-4.3248,0.0,0.0,0.0,0.0,0.0,0.0,0.0,0.0,0.0,-2.5267,-2.4034,-2.2713,-2.1682,-2.0645,-1.9393,-1.7758,-1.8009,-1.8088,0.0,0.0,-1.8359,-1.7611,-1.8482,-1.868,-1.8085,-1.8317,-1.8204,-1.7777,-1.8163,-1.8316,-1.824,-1.9679,-2.0727,-2.1492,-2.2584,-2.3996,-2.5696,-2.7522,-2.907,-3.0456,-3.2404,-3.3293,-3.3518,-3.4373,-3.487,-3.5219,-3.6103,-3.6905,-3.7546,-3.7506,-3.7966,-3.8404,-3.7552,0.0,0.0,0.0,0.0,0.0,0.0,0.0,0.0,0.0,0.0,0.0,0.0,0.0,0.0,0.0,0.0,0.0,0.0,0.0,0.0,-5.1931,-5.4162,-5.6,-5.6796,-5.5906,-5.5485,-5.6379,-5.6592,-5.6693,-5.6753,-5.5691,-5.5006,-5.5046,-5.4391,-5.3907,-5.3768,-5.3749,-5.3749,-5.3749,-5.3765,-5.3464,-5.2806,-5.2841,-5.2362,-5.1444,0.0,0.0,-4.904,-4.9703,-4.8794,-4.6719,-4.7265,-4.7103,-4.6401,-4.5698,-4.4901,-4.4216,-4.507,-4.5409,-4.5265,-4.416,-4.3237,-4.2494,0.0,0.0,0.0,0.0,0.0,0.0,0.0,0.0,0.0,0.0,-2.3918,-2.2645,-2.1237,-1.9992,-1.8731,-1.7407,-1.6942,0.0,0.0,-1.7633,-1.7427,-1.7204,-1.7503,-1.7387,-1.6856,-1.6669,-1.6488,-1.6208,-1.6613,-1.6844,-1.6938,-1.8237,-1.9229,-1.9965,-2.1337,-2.294,-2.4728,-2.6535,-2.8174,-2.9709,-3.1411,-3.2298,-3.2724,-3.3873,-3.4401,-3.4735,-3.6142,-3.6912,-3.7387,-3.8218,-3.872,-3.89,-3.8339,-3.8477,-3.8588,0.0,0.0,0.0,0.0,0.0,0.0,0.0,0.0,0.0,0.0,0.0,0.0,0.0,0.0,-4.7061,-4.8949,0.0,-5.2005,-5.3548,-5.5149,-5.6008,-5.5476,-5.4682,-5.4504,-5.5436,-5.4871,-5.4585,-5.5107,-5.4123,-5.3702,-5.4293,-5.3628,-5.308,-5.2777,-5.2807,-5.284,-5.284,-5.284,-5.2651,-5.2244,-5.2288,-5.1684,-5.0503,-5.0524,-4.9687,-4.8117,-4.8546,-4.7813,-4.6219,-4.6667,-4.6345,-4.5486,-4.4644,-4.4041,-4.3643,-4.3608,-4.3595,-4.3546,-4.3074,-4.2345,-4.1585,0.0,0.0,0.0,0.0,0.0,0.0,0.0,0.0,0.0,0.0,0.0,-2.2662,-2.091,-1.9521,-1.8447,0.0,0.0,0.0,0.0,-1.7166,-1.6701,-1.6978,-1.6811,-1.651,-1.6007,-1.5379,-1.5042,-1.5068,-1.528,-1.567,-1.6237,-1.7197,-1.802,-1.8756,-2.0228,-2.1814,-2.351,-2.536,-2.7004,-2.8516,-3.0109,-3.1219,-3.2041,-3.3112,-3.3708,-3.4216,-3.5913,-3.6385,-3.6516,-3.8427,-3.8917,-3.8733,-3.89,-3.9448,-3.9704,-3.797,-3.9519,0.0,0.0,0.0,0.0,0.0,0.0,0.0,0.0,-4.417,-4.5031,-4.7626,-4.7942,-4.8771,-5.2214,-5.2547,-5.3042,-5.5287,-5.5831,-5.5457,-5.4037,-5.3415,-5.3364,-5.4001,-5.3061,-5.2675,-5.3495,-5.2869,-5.2762,-5.3587,-5.3014,-5.2367,-5.178,-5.1859,-5.1926,-5.195,-5.195,-5.195,-5.195,-5.1845,-5.1125,-4.9802,-4.9673,-4.8857,-4.7401,-4.7284,-4.6757,-4.5946,-4.5767,-4.5208,-4.4365,-4.3884,-4.3491,-4.3144,-4.2555,-4.221,-4.2064,-4.2058,-4.155,-4.0907,0.0,0.0,0.0,0.0,0.0,0.0,0.0,0.0,0.0,0.0,0.0,0.0,0.0,0.0,0.0,0.0,0.0,0.0,-1.8019,-1.7366,-1.6736,-1.6255,-1.5929,-1.5484,-1.4879,-1.4675,-1.4569,-1.4573,-1.4602,-1.5066,-1.5949,-1.6208,-1.6897,-1.7944,-1.8751,-2.0036,-2.1687,-2.3404,-2.5197,-2.7009,-2.878,-3.0352,-3.1638,-3.1749,-3.2713,-3.4092,-3.485,-3.4844,-3.4804,-3.693,-3.7295,-3.7131,-3.842,-3.8814,-3.8477,-3.6787,-3.7063,-3.7664,-3.6421,-3.7363,-3.9655,-4.3669,-4.3779,-4.4216,0.0,-5.0308,-5.0707,-5.2053,-5.2789,-5.3442,-5.4221,-5.4282,-5.488,-5.6923,-5.607,-5.5192,-5.5329,-5.3464,-5.1845,-5.1243,-5.1797,-5.2281,-5.2386,-5.177,-5.1462,-5.17,-5.0973,-5.0626,-5.0837,-5.0874,-5.0917,-5.1033,-5.1053,-5.1053,-5.1053,-5.0333,-4.9933,-4.9782,-4.9026,-4.8219,-4.7363,-4.6608,-4.5815,-4.4991,-4.4228,-4.339,-4.2637,-4.3325,-4.2729,-4.1457,-4.2121,-4.1913,-4.1239,-4.1175,-4.1045,-4.0907,0.0,0.0,0.0,0.0,0.0,0.0,0.0,0.0,0.0,0.0,0.0,0.0,0.0,0.0,0.0,0.0,0.0,0.0,-1.8357,-1.7147,-1.6256,-1.5983,-1.5509,-1.4938,-1.4255,-1.4212,-1.4181,-1.4091,-1.3902,-1.4087,-1.4675,-1.4626,-1.5127,-1.6148,-1.6814,-1.804,-1.9728,-2.1235,-2.3014,-2.498,-2.7065,-2.8581,-2.9706,-3.0533,-3.1041,-3.1516,-3.3078,-3.3436,0.0,0.0,-3.5242,-3.5129,-3.6105,-3.6501,-3.6494,-3.573,-3.691,-3.849,-3.855,-3.8715,-3.9584,-4.2503,-4.3827,-4.533,-4.8952,-4.978,-5.0294,-5.2109,-5.2725,-5.3111,-5.3731,-5.4377,-5.5086,-5.5801,-5.5838,-5.5434,-5.4503,-5.2857,-5.1611,-5.1258,-5.1586,-5.1893,-5.2008,-5.1424,-5.1447,-5.2494,-5.1998,-5.173,-5.1863,-5.1576,-5.1413,-5.1487,-5.1109,-5.0685,-5.021,-4.9881,-4.9199,-4.821,-4.7385,-4.6575,-4.5792,-4.4973,-4.4411,-4.4043,-4.3205,-4.2646,-4.2296,-4.2198,-4.1722,-4.1135,-4.1496,-4.1406,-4.1042,-4.1059,-4.1022,-4.0967,0.0,0.0,0.0,0.0,0.0,0.0,0.0,0.0,0.0,0.0,0.0,0.0,0.0,0.0,0.0,0.0,0.0,0.0,0.0,-1.6898,-1.5978,-1.5892,-1.5168,-1.4497,-1.3941,-1.38,-1.3679,-1.3588,-1.3347,-1.3364,-1.3654,-1.3623,-1.3999,-1.4807,-1.5317,-1.656,-1.8351,-1.9515,-2.1161,-2.3135,-2.5131,-2.6728,-2.7998,-2.9036,-2.948,-2.9767,-3.1301,-3.158,0.0,0.0,-3.2931,-3.2818,-3.3618,-3.411,-3.437,-3.4129,-3.5811,-3.8061,-3.9535,-3.9554,-3.9734,-4.2027,-4.4088,-4.6145,-4.8442,-4.9303,-5.0163,-5.2036,-5.2401,-5.261,-5.3419,-5.4074,-5.4538,-5.4713,-5.5053,-5.4859,-5.3613,-5.2364,-5.1537,-5.1539,-5.1539,-5.1684,-5.2064,-5.1735,-5.1917,-5.2897,-5.2703,-5.2555,-5.2621,-5.2074,-5.1807,-5.1896,-5.1215,-5.048,-4.9707,-4.9455,-4.8585,-4.7096,-4.6048,-4.5259,-4.4674,-4.3642,-4.3046,-4.2805,-4.2227,-4.1965,-4.1926,-4.1341,-4.1089,-4.11,-4.1109,-4.1069,-4.1038,-4.1078,-4.1045,-4.0975,0.0,0.0,0.0,0.0,0.0,0.0,0.0,0.0,0.0,0.0,0.0,0.0,0.0,0.0,0.0,0.0,0.0,0.0,0.0,-1.6747,-1.6152,-1.5811,-1.4798,-1.4151,-1.3992,-1.3368,-1.3019,-1.3019,-1.3019,-1.3097,-1.3328,-1.3629,-1.4044,-1.4529,-1.4604,-1.5872,-1.7954,-1.8537,-1.9876,-2.1761,-2.3001,-2.4912,-2.704,-2.7016,-2.8232,-2.9947,-2.9744,0.0,0.0,0.0,-3.0316,-3.005,-3.1376,-3.2074,-3.2266,-3.1665,-3.2579,-3.45,-3.7843,-3.8922,-4.0038,-4.3922,-4.5543,-4.6802,-4.9135,-5.0879,-5.2228,-5.3073,-5.316,-5.3311,-5.411,-5.355,-5.3314,-5.4427,-5.3593,-5.2934,-5.3258,-5.2212,-5.1416,-5.1416,-5.1416,-5.1713,-5.2512,-5.2837,-5.2723,-5.2008,-5.2052,-5.2193,-5.2408,-5.177,-5.1568,-5.1886,-5.1125,-5.0387,-4.9707,-4.8856,-4.7985,-4.7076,-4.5432,-4.4653,-4.4656,-4.3055,-4.1903,-4.1166,-4.1146,-4.1146,-4.1127,-4.1107,-4.111,-4.1097,-4.11,-4.1093,-4.1091,-4.1107,-4.102,-4.0907,0.0,0.0,0.0,0.0,0.0,0.0,0.0,0.0,0.0,0.0,0.0,0.0,0.0,0.0,0.0,0.0,0.0,0.0,0.0,-1.6841,-1.5979,-1.588,-1.5027,-1.4144,-1.3307,-1.3082,-1.2925,-1.2798,-1.25,-1.2572,-1.3041,-1.297,-1.3052,-1.3303,-1.366,-1.4256,-1.5011,-1.5835,-1.7249,-1.9069,-2.0555,-2.2241,-2.3979,-2.4741,-2.5735,-2.6651,0.0,0.0,0.0,-2.7656,-2.7604,-2.759,-2.8392,-2.8926,-2.9559,-3.1139,-3.2615,-3.427,-3.6669,-3.8275,-3.9939,-4.2648,-4.4654,-4.6418,-4.8174,-4.9769,-5.0858,-5.0688,-4.9937,-4.9313,-4.9255,-4.9824,-5.0385,-5.0584,-5.2312,-5.3538,-5.3344,-5.3131,-5.2939,-5.2801,-5.3747,-5.41,-5.34,-5.3105,-5.3076,-5.3338,-5.3528,-5.3661,-5.3723,-5.2665,-5.2158,-5.2349,-5.1278,-5.0081,-4.8779,-4.8512,-4.7676,-4.6232,-4.4543,-4.3176,-4.21,-4.1606,-4.1241,-4.1034,-4.1078,-4.1107,-4.1107,-4.1107,-4.1107,-4.1091,-4.1106,-4.107,-4.1026,-4.1035,-4.1013,-4.0961,0.0,0.0,0.0,0.0,0.0,0.0,0.0,0.0,0.0,0.0,0.0,0.0,0.0,0.0,0.0,0.0,0.0,0.0,0.0,0.0,-1.6149,-1.6216,-1.5225,-1.4281,-1.3482,-1.3224,-1.2948,-1.2624,-1.2203,-1.2133,-1.2444,-1.2285,-1.2324,-1.2518,-1.266,-1.3114,-1.3802,-1.4268,-1.5756,-1.795,-1.9326,-2.0987,-2.276,-2.3947,-2.4728,0.0,0.0,0.0,0.0,-2.5906,-2.5731,-2.5778,-2.6235,-2.7056,-2.8281,-3.0598,-3.2225,-3.38,-3.6028,-3.7746,-3.9432,-4.1661,-4.3477,-4.5129,-4.6631,-4.7924,-4.8792,-4.8635,-4.7759,-4.69,-4.6618,-4.7579,-4.8201,-4.748,-5.0363,-5.2677,-5.2546,-5.3053,-5.3672,-5.4269,-5.5531,-5.5847,-5.4615,-5.4164,-5.3982,-5.3981,-5.4443,-5.4587,-5.4306,-5.2985,-5.2276,-5.2425,-5.0799,-4.9354,-4.8174,-4.7899,-4.6816,-4.4891,-4.3828,-4.2452,-4.0793,-4.0883,-4.0967,-4.0996,-4.1075,-4.1107,-4.1107,-4.1107,-4.1107,-4.1107,-4.1107,-4.1069,-4.0996,-4.0659,-4.0544,-4.0569,0.0,0.0,0.0,0.0,0.0,0.0,0.0,0.0,0.0,0.0,0.0,0.0,0.0,0.0,0.0,0.0,0.0,0.0,0.0,0.0,0.0,-1.689,-1.5515,-1.4649,-1.4519,-1.3713,-1.3064,-1.2537,-1.2202,-1.19,-1.1635,-1.1716,-1.1898,-1.2217,-1.1786,-1.2613,-1.4276,-1.3865,-1.5514,-1.8419,-1.9294,-2.1072,-2.3327,-2.4503,0.0,0.0,0.0,0.0,0.0,-2.5025,-2.4826,-2.4787,-2.512,-2.6534,-2.8415,-3.0038,-3.1454,-3.3056,-3.5887,-3.7289,-3.8579,-4.0923,-4.2079,-4.3061,-4.4544,-4.5505,-4.6284,-4.7001,-4.6544,-4.6,-4.5965,-4.6632,-4.6755,-4.5403,-4.8081,-5.0524,-5.1092,-5.2277,-5.3745,-5.5628,-5.6614,-5.6802,-5.5916,-5.5879,-5.5297,-5.3886,-5.4671,-5.4894,-5.4128,-5.2677,-5.1933,-5.2016,-4.9717,-4.8289,-4.7827,-4.706,-4.5522,-4.3305,-4.3362,-4.2488,-4.0793,-4.093,-4.0992,-4.0996,-4.1071,-4.1107,-4.1107,-4.1107,-4.1107,-4.1107,-4.1107,-4.1098,-4.0996,-4.0059,-3.9745,-3.979,0.0,0.0,0.0,0.0,0.0,0.0,0.0,0.0,0.0,0.0,0.0,0.0,0.0,0.0,0.0,0.0,0.0,0.0,0.0,0.0,0.0,0.0,0.0,0.0,0.0,0.0,0.0,0.0,0.0,-1.2419,-1.2207,-1.2248,-1.2398,-1.2592,-1.2813,-1.3436,-1.4326,-1.4964,-1.6661,-1.9022,0.0,-2.1207,-2.3276,0.0,0.0,0.0,0.0,0.0,-2.7079,-2.6331,-2.6177,-2.6406,-2.6941,-2.7461,-2.8302,-3.04,-3.2093,-3.3635,-3.5172,-3.6841,-3.822,-3.8572,-3.9688,-4.0929,-4.1776,-4.3151,-4.4139,-4.3753,-4.2843,-4.1974,-4.1545,-4.3082,-4.4563,-4.5001,-4.9003,-5.2141,-5.2347,-5.4652,-5.598,-5.5122,-5.6649,-5.6989,-5.5054,-5.5441,-5.5191,-5.369,-5.3901,-5.4054,-5.3888,-5.2487,-5.1459,-5.0999,-4.9367,-4.7966,-4.6875,-4.6313,-4.5101,-4.3305,-4.3318,-4.2446,-4.0807,-4.0839,-4.0912,-4.0996,-4.1027,-4.1045,-4.1107,-4.1107,-4.1107,-4.1107,-4.1107,-4.1097,-4.0995,-4.0096,-3.9783,-3.9602,0.0,0.0,0.0,0.0,0.0,0.0,0.0,0.0,0.0,0.0,0.0,0.0,0.0,0.0,0.0,0.0,0.0,0.0,0.0,0.0,0.0,0.0,0.0,0.0,0.0,0.0,0.0,0.0,0.0,0.0,0.0,-1.3449,-1.3506,-1.3757,-1.4128,-1.4486,-1.4913,0.0,0.0,0.0,0.0,0.0,0.0,0.0,0.0,0.0,0.0,0.0,-2.8895,-2.882,-2.8272,-2.775,-2.8333,-2.8927,-2.9668,-3.0969,-3.2497,-3.3939,-3.4682,-3.5937,-3.7068,-3.7338,-3.7835,-3.8448,-3.9096,-4.0044,-4.0866,-4.1037,-4.0311,-3.974,-4.0057,-4.2022,-4.3718,-4.3936,-4.8139,-5.1737,-5.2677,-5.4644,-5.5907,-5.5779,-5.7072,-5.7071,-5.4684,-5.5224,-5.5064,-5.3529,-5.3911,-5.3918,-5.3235,-5.2121,-5.0998,-4.9886,-4.8399,-4.7022,-4.5805,-4.5794,-4.4945,-4.3258,-4.3298,-4.2415,-4.0812,-4.0796,-4.0844,-4.0917,-4.098,-4.1027,-4.1068,-4.1085,-4.0874,-4.0565,-4.0951,-4.0874,-4.0412,-3.9541,-3.9228,-3.8936,0.0,0.0,0.0,0.0,0.0,0.0,0.0,0.0,0.0,0.0,0.0,0.0,0.0,0.0,0.0,0.0,0.0,0.0,0.0,0.0,0.0,0.0,0.0,0.0,0.0,0.0,0.0,0.0,0.0,0.0,0.0,0.0,0.0,0.0,0.0,0.0,0.0,0.0,0.0,0.0,0.0,0.0,0.0,0.0,0.0,0.0,0.0,0.0,-3.0492,-3.1557,-3.0673,-2.9218,-2.9721,-3.0733,-3.171,-3.1741,-3.2794,-3.4056,-3.4496,-3.4981,-3.5612,-3.6722,-3.6415,-3.6008,-3.684,-3.7078,-3.7485,-3.8782,-3.8634,-3.8685,-4.0051,-4.21,-4.3482,-4.3148,-4.6794,-5.0423,-5.2596,-5.3783,-5.5025,-5.6624,-5.7385,-5.6884,-5.4458,-5.4847,-5.466,-5.3201,-5.3998,-5.3915,-5.249,-5.1547,-5.0247,-4.8481,-4.6989,-4.5787,-4.4856,-4.5294,-4.4716,-4.3156,-4.3095,-4.2279,-4.0797,-4.0792,-4.0801,-4.0812,-4.0926,-4.0984,-4.0996,-4.1052,-4.0656,-4.0039,-4.0679,-4.0467,-3.9688,-3.8694,-3.8329,-3.7989,0.0,0.0,0.0,0.0,0.0,0.0,0.0,0.0,0.0,0.0,0.0,0.0,0.0,0.0,0.0,0.0,0.0,0.0,0.0,0.0,0.0,0.0,0.0,0.0,0.0,0.0,0.0,0.0,0.0,0.0,0.0,0.0,0.0,0.0,0.0,0.0,0.0,0.0,0.0,0.0,0.0,0.0,0.0,0.0,0.0,0.0,0.0,-2.9933,-3.0707,0.0,-3.2451,-3.1898,-3.2263,-3.2542,-3.278,-3.3057,-3.3445,-3.395,-3.4836,-3.4884,-3.4961,-3.6214,-3.5355,-3.4611,-3.6253,-3.6466,-3.65,-3.7111,-3.7715,-3.8374,-3.912,-4.0705,-4.2643,-4.4823,-4.7617,-5.0458,-5.316,-5.5312,-5.6295,-5.5371,-5.6209,-5.5947,-5.3634,-5.3431,-5.306,-5.2126,-5.2392,-5.2538,-5.2416,-5.0398,-4.8227,-4.5992,-4.5159,-4.4697,-4.4572,-4.4235,-4.3665,-4.287,-4.2203,-4.1516,-4.0797,-4.0809,-4.08,-4.0807,-4.0828,0.0,-4.0996,-4.1003,-4.0967,-4.0815,-4.0253,-3.9922,-3.961,-3.8013,-3.7434,-3.7249,0.0,0.0,0.0,0.0,0.0,0.0,0.0,0.0,0.0,0.0,-2.9222,0.0,0.0,0.0,0.0,0.0,0.0,0.0,0.0,0.0,0.0,0.0,0.0,0.0,0.0,-2.2342,-2.164,-2.052,0.0,-2.0257,-1.9421,-1.9357,-1.9611,-2.0145,-2.0109,0.0,0.0,0.0,0.0,0.0,0.0,0.0,0.0,0.0,0.0,0.0,0.0,-2.9991,-3.0443,-3.2511,-3.283,-3.2447,-3.3024,-3.3177,-3.3159,-3.3291,-3.3688,-3.4201,-3.4831,-3.5095,-3.5241,-3.5293,-3.4666,-3.4106,-3.4292,-3.4774,-3.5407,-3.603,-3.714,-3.8316,-3.9385,-4.0858,-4.2468,-4.4215,-4.6922,-4.9845,-5.273,-5.4761,-5.5837,-5.5459,-5.5754,-5.5071,-5.2747,-5.2808,-5.2486,-5.1279,-5.1334,-5.1293,-5.1044,-4.886,-4.6906,-4.5342,-4.4302,-4.3791,-4.3813,-4.3298,-4.2658,-4.1963,-4.1719,-4.125,-4.0598,-4.0733,-4.079,-4.08,-4.0796,-4.0839,-4.0907,-4.0975,-4.0482,-3.9701,-3.9776,-3.926,-3.8344,-3.7506,-3.7194,-3.7022,0.0,0.0,0.0,0.0,0.0,0.0,0.0,-2.9607,-2.9472,-2.9426,-3.0004,-3.0072,-2.9148,-3.0075,0.0,0.0,0.0,0.0,0.0,0.0,0.0,0.0,0.0,0.0,0.0,0.0,0.0,-2.3024,-2.3309,0.0,0.0,0.0,0.0,0.0,-2.2686,-2.2944,-2.3351,0.0,0.0,0.0,0.0,-2.6535,0.0,0.0,0.0,0.0,0.0,-2.9955,-3.0172,-3.2213,-3.2407,-3.1886,-3.2533,-3.3111,-3.3506,-3.3216,-3.3824,-3.4602,-3.479,-3.5187,-3.5385,-3.4788,-3.4353,-3.3811,-3.2892,-3.3551,-3.4601,-3.5424,-3.6793,-3.8321,-3.9825,-4.106,-4.2117,-4.2976,-4.5399,-4.8265,-5.1359,-5.3073,-5.4291,-5.5029,-5.5022,-5.413,-5.2093,-5.2266,-5.1949,-5.0652,-5.0228,-4.9744,-4.903,-4.7064,-4.557,-4.4769,-4.3519,-4.287,-4.287,-4.2271,-4.1688,-4.1119,-4.1208,-4.0942,-4.0414,-4.0666,-4.079,-4.0797,-4.0806,-4.0796,-4.0818,-4.0917,-4.0061,-3.8739,-3.9276,-3.8552,-3.7175,-3.6999,-3.6921,-3.671,0.0,0.0,0.0,0.0,0.0,0.0,0.0,0.0,-2.9494,-2.9492,-2.9502,-2.9778,-3.0428,-3.0995,0.0,0.0,0.0,0.0,0.0,0.0,0.0,0.0,0.0,0.0,0.0,0.0,0.0,-2.5032,-2.4958,0.0,0.0,0.0,0.0,0.0,0.0,-2.3909,-2.4712,-2.4851,0.0,0.0,0.0,0.0,0.0,0.0,0.0,0.0,0.0,-3.0099,-3.0182,-3.1483,-3.1285,-3.0477,-3.0567,-3.2489,-3.4478,-3.3291,-3.391,-3.5049,-3.4983,-3.4692,-3.4585,-3.5532,-3.4509,-3.3411,-3.3846,-3.4067,-3.448,-3.5402,-3.6747,-3.8224,-3.9817,-4.0214,-4.0721,-4.2025,-4.3135,-4.5083,-4.8658,-5.0511,-5.1791,-5.255,-5.3095,-5.3003,-5.2007,-5.1251,-5.0713,-5.0429,-4.8671,-4.7279,-4.6487,-4.4981,-4.3783,-4.2952,-4.2166,-4.1746,-4.1746,-4.097,-4.0665,-4.0828,-4.032,-4.0168,-4.0406,-4.0612,-4.0739,-4.0797,-4.0803,-4.08,0.0,-4.0818,-4.0335,-3.9513,-3.8797,-3.7985,-3.7097,-3.6317,-3.6025,-3.5869,0.0,0.0,0.0,0.0,0.0,0.0,0.0,-3.0405,-3.0236,-3.0283,-3.0254,-3.0551,-3.1383,-3.2074,0.0,0.0,0.0,0.0,0.0,0.0,0.0,0.0,0.0,0.0,0.0,0.0,-2.7401,-2.6927,-2.7237,0.0,0.0,0.0,0.0,0.0,0.0,-2.6241,-2.6179,-2.6179,0.0,0.0,0.0,0.0,0.0,0.0,0.0,0.0,0.0,0.0,-2.9265,-3.0342,-3.0126,-2.9382,-2.9316,-3.0876,-3.2687,-3.2379,-3.3228,-3.4444,-3.5308,-3.6035,-3.6462,-3.6169,-3.516,-3.4156,-3.3612,-3.4556,-3.5523,-3.5525,-3.7462,-3.9344,-3.9969,-4.0096,-4.0248,-4.0701,-4.1885,-4.3517,-4.577,-4.7507,-4.9154,-5.0777,-5.1134,-5.1182,-5.1185,-5.0822,-5.0181,-4.9145,-4.7461,-4.6121,-4.5295,-4.4361,-4.3479,-4.273,-4.1445,-4.0803,-4.0866,-4.003,-3.9672,-3.9784,-3.9693,-3.9742,-3.9863,-4.0192,-4.0427,-4.0549,-4.06,-4.0694,0.0,-4.0272,-3.9597,-3.8762,-3.7942,-3.7134,-3.6372,-3.6039,-3.5908,-3.5772,0.0,0.0,0.0,0.0,0.0,0.0,-3.0563,-3.0447,-3.042,-3.0723,-3.0793,-3.1112,-3.1931,-3.3,-3.3563,-3.3368,0.0,0.0,0.0,0.0,0.0,0.0,0.0,0.0,0.0,0.0,-2.9287,-2.9006,-2.94,-2.9534,0.0,0.0,-2.9057,-2.8624,0.0,0.0,0.0,0.0,0.0,0.0,0.0,0.0,0.0,0.0,0.0,0.0,0.0,0.0,0.0,0.0,0.0,-2.8989,-2.9063,-2.9807,0.0,-3.1436,-3.2792,-3.4347,-3.5535,-3.6653,-3.7319,-3.6596,-3.5522,-3.4439,-3.358,-3.4741,-3.5917,-3.5605,-3.7749,-3.9792,-4.0062,-4.0096,-4.0062,-3.9926,-4.0889,-4.2115,-4.3463,-4.5093,-4.687,-4.8883,-4.924,-4.9574,-5.0282,-5.0022,-4.9256,-4.7889,-4.6396,-4.5168,-4.4397,-4.3505,-4.2756,-4.2263,-4.0892,-4.0118,-4.0001,-3.9389,-3.9073,-3.9101,-3.9358,-3.95,-3.9505,-3.9884,-4.0004,-3.9972,-4.0319,-4.0289,0.0,-3.9671,-3.8916,-3.7865,-3.7299,-3.658,-3.5866,-3.5615,-3.5688,-3.5694,0.0,0.0,0.0,0.0,0.0,0.0,0.0,-2.9924,-2.9722,-3.0597,-3.0756,-3.113,-3.1991,-3.364,-3.4676,-3.4681,0.0,0.0,0.0,0.0,0.0,0.0,0.0,0.0,0.0,0.0,-3.1505,-3.1372,-3.1248,-3.0965,-3.0571,-3.0373,-3.0145,-2.9828,0.0,0.0,0.0,0.0,0.0,0.0,0.0,0.0,0.0,0.0,0.0,0.0,0.0,0.0,0.0,0.0,0.0,0.0,0.0,0.0,0.0,0.0,-3.2905,-3.5104,-3.5653,-3.5927,-3.6158,-3.6743,-3.5349,-3.3852,-3.404,-3.4624,-3.5222,-3.5532,-3.732,-3.9084,-3.9935,-4.0096,-4.0062,-3.9926,-4.0028,-4.0603,-4.193,-4.3557,-4.5173,-4.665,-4.7479,-4.8343,-4.9415,-4.8545,-4.7613,-4.6878,-4.546,-4.429,-4.3552,-4.1992,-4.1144,-4.1222,-4.0489,-3.9753,-3.9011,-3.9011,-3.9036,-3.9101,-3.9376,-3.9501,-3.9505,-3.9775,-3.9537,-3.8981,-3.9972,-3.9492,0.0,-3.9097,-3.8523,-3.7002,-3.7002,-3.6544,-3.5804,-3.4928,-3.5165,-3.5538,0.0,0.0,0.0,0.0,0.0,0.0,0.0,0.0,-3.1005,-3.0733,-3.1769,-3.2408,-3.2128,-3.3655,-3.4704,-3.4701,0.0,0.0,0.0,0.0,0.0,0.0,0.0,0.0,0.0,0.0,0.0,-3.2502,-3.2859,-3.2978,-3.2855,-3.2689,-3.2606,-3.2514,-3.1556,-3.1181,0.0,0.0,0.0,0.0,0.0,0.0,-3.2824,0.0,0.0,0.0,0.0,0.0,0.0,0.0,0.0,0.0,0.0,0.0,0.0,0.0,-3.2288,-3.3802,-3.4905,-3.5968,-3.6795,-3.7002,-3.547,-3.4093,-3.4645,-3.5107,-3.5564,-3.6161,-3.8104,-3.9775,-4.0062,-4.0096,-4.0062,-3.9926,-4.0011,-4.0231,-4.0549,-4.2004,-4.3599,-4.5139,-4.6738,-4.7965,-4.8689,-4.7404,-4.6398,-4.6001,-4.5113,-4.4034,-4.2745,-4.2194,-4.1456,-4.0415,-3.9614,-3.9106,-3.8921,-3.8983,-3.9007,-3.9036,-3.917,-3.9232,-3.924,-3.9402,-3.9126,-3.8523,-3.9118,-3.8835,-3.7918,-3.7777,-3.7088,-3.6104,-3.612,-3.5262,-3.4101,-3.4464,-3.4409,-3.3935,0.0,0.0,0.0,0.0,0.0,0.0,0.0,0.0,-3.163,-3.0817,-3.25,-3.3356,-3.2226,-3.4214,-3.5506,-3.5182,0.0,0.0,0.0,0.0,0.0,0.0,0.0,0.0,0.0,0.0,-3.3923,-3.3785,-3.4178,-3.4345,-3.4308,-3.4188,-3.4259,-3.4519,-3.3484,-3.3057,0.0,0.0,0.0,0.0,0.0,0.0,-3.4364,0.0,0.0,0.0,0.0,0.0,0.0,0.0,0.0,0.0,0.0,0.0,0.0,0.0,-3.2609,-3.3618,-3.4714,-3.5858,-3.6846,-3.7178,-3.5607,-3.4295,-3.5389,-3.5786,-3.6144,-3.6926,-3.871,-4.0096,-4.0096,-4.0062,-4.0011,-3.9986,-4.0011,-4.0214,-4.0745,-4.1912,-4.3386,-4.5196,-4.648,-4.7286,-4.7481,-4.6205,-4.5324,-4.5144,-4.42,-4.3101,-4.1902,-4.1552,-4.0832,-3.954,-3.9317,-3.9105,-3.8866,-3.8892,-3.8935,-3.8993,-3.905,-3.9073,-3.9082,-3.8862,-3.8408,-3.7786,-3.815,-3.7734,0.0,-3.6492,-3.5908,-3.5187,-3.485,-3.4105,-3.3225,-3.3487,-3.3458,-3.3106,0.0,0.0,0.0,0.0,0.0,0.0,0.0,0.0,0.0,0.0,0.0,-3.4075,-3.2467,-3.5234,0.0,0.0,0.0,0.0,0.0,0.0,0.0,0.0,0.0,0.0,0.0,-3.492,-3.5239,-3.5114,-3.5114,-3.5073,-3.5025,-3.4889,-3.5217,-3.5883,-3.4743,-3.4302,0.0,0.0,0.0,0.0,0.0,0.0,0.0,0.0,0.0,0.0,0.0,0.0,0.0,0.0,0.0,0.0,0.0,0.0,0.0,0.0,0.0,0.0,0.0,-3.5632,-3.6328,-3.7218,-3.5733,-3.453,-3.6212,-3.6636,0.0,-3.7797,-3.9106,-4.0096,-4.0096,-3.9986,-3.9977,-4.0087,-3.9986,-4.0441,-4.2016,-4.3014,-4.4367,-4.6464,-4.6595,-4.6323,-4.583,-4.4968,-4.4387,-4.4269,-4.2868,-4.1698,-4.1058,-4.0304,-3.9533,-3.8726,-3.9423,-3.9488,-3.8792,-3.8807,-3.8848,-3.8979,-3.8937,-3.8943,-3.899,-3.8172,-3.7439,-3.6814,-3.7084,-3.634,-3.5002,-3.528,-3.4916,-3.4132,-3.3314,-3.2963,-3.2824,-3.201,-3.2194,-3.2605,0.0,0.0,0.0,0.0,0.0,0.0,0.0,0.0,0.0,0.0,0.0,-3.5203,-3.4206,-3.5993,0.0,0.0,0.0,0.0,0.0,0.0,0.0,0.0,0.0,0.0,0.0,-3.5354,-3.5395,-3.5239,-3.5239,-3.5232,-3.5227,-3.5092,-3.5803,-3.7128,-3.614,0.0,0.0,0.0,0.0,0.0,0.0,0.0,0.0,0.0,0.0,0.0,-3.5844,-3.5031,0.0,0.0,0.0,0.0,0.0,0.0,0.0,0.0,-3.3994,-3.4583,-3.4665,0.0,-3.5703,-3.6463,-3.5914,-3.5541,0.0,-3.7516,-3.7814,-3.8582,-3.9486,-4.0096,-4.0096,-4.007,-4.0045,-4.0096,-4.007,-4.0383,-4.1339,-4.3589,-4.5365,-4.5889,-4.6411,-4.5941,-4.3971,-4.3868,-4.3625,-4.2994,-4.2359,-4.1461,-4.0249,-3.9992,-3.9533,-3.8726,-3.8891,-3.8906,-3.8738,-3.8777,-3.8851,-3.8921,-3.8354,-3.8109,-3.8154,-3.7336,-3.6563,-3.5851,-3.6066,-3.5291,-3.3893,-3.417,-3.3511,-3.2301,-3.2108,-3.1288,-3.0199,-2.9997,-2.9652,-2.9241,0.0,0.0,0.0,0.0,0.0,0.0,0.0,0.0,0.0,0.0,0.0,0.0,0.0,0.0,0.0,0.0,0.0,0.0,0.0,0.0,0.0,0.0,0.0,0.0,0.0,-3.5789,-3.574,-3.6028,-3.5663,-3.5489,-3.5483,-3.5765,-3.6543,-3.7693,-3.7318,0.0,0.0,0.0,0.0,0.0,-3.7572,0.0,0.0,0.0,0.0,0.0,-3.5975,-3.5422,0.0,-3.4339,-3.394,-3.3842,0.0,0.0,0.0,0.0,-3.5137,-3.5693,-3.5582,-3.5706,-3.6011,-3.6468,-3.6535,-3.6828,-3.8005,-3.8348,-3.8616,-3.9368,-3.9825,-4.0096,-4.0096,-4.0333,-4.0425,-4.0163,-4.0637,-4.1295,-4.2091,-4.3639,-4.479,-4.5145,-4.4908,-4.4283,-4.3166,-4.2799,-4.2436,-4.1932,-4.127,-4.0585,-3.9891,-3.9536,-3.9148,-3.8707,-3.834,-3.8322,-3.8707,-3.8367,-3.8239,-3.828,-3.7558,-3.7234,-3.7259,-3.6079,-3.5324,-3.4872,-3.4293,-3.3621,-3.2893,-3.2695,-3.2195,-3.1488,-3.0744,-2.996,-2.9163,-2.8836,-2.8435,-2.8055,0.0,0.0,0.0,0.0,0.0,0.0,0.0,0.0,0.0,0.0,0.0,0.0,0.0,0.0,0.0,0.0,0.0,0.0,0.0,0.0,0.0,0.0,0.0,0.0,-3.6903,-3.6226,-3.6226,-3.6903,-3.6226,-3.5955,-3.6091,-3.6729,-3.7376,-3.8063,-3.8296,0.0,0.0,0.0,-3.7527,-3.8146,-3.8106,0.0,0.0,0.0,0.0,0.0,0.0,0.0,0.0,-3.366,-3.3406,-3.4005,-3.4187,0.0,0.0,0.0,0.0,0.0,-3.6632,-3.6702,-3.6841,-3.7094,-3.753,-3.8123,-3.8963,-3.9157,-3.9368,-3.9977,-4.0096,-4.0096,-4.0096,-4.0518,-4.0712,-4.0172,-4.1336,-4.2692,-4.3764,-4.3815,-4.3927,-4.435,-4.3149,-4.2285,-4.2224,-4.1568,-4.1041,-4.0755,-3.9968,-3.9516,-3.9591,-3.8996,-3.8603,-3.8524,-3.7845,-3.7753,-3.834,-3.7658,-3.7338,-3.7411,-3.6639,-3.626,-3.6168,-3.468,-3.3944,-3.3763,0.0,0.0,-3.192,-3.1166,-3.0905,-3.0835,-2.9225,-2.8637,-2.8631,-2.7883,-2.7623,-2.7608,0.0,0.0,0.0,0.0,0.0,0.0,0.0,0.0,0.0,0.0,0.0,0.0,0.0,0.0,0.0,0.0,0.0,0.0,0.0,0.0,0.0,0.0,0.0,0.0,-3.6922,-3.6787,-3.6787,-3.6903,-3.6787,-3.7096,-3.7825,-3.793,-3.8408,-3.9157,-3.8974,-3.9271,-3.9871,-3.93,-3.9152,-3.9221,-3.9024,0.0,0.0,0.0,0.0,0.0,0.0,0.0,0.0,-3.595,-3.5597,-3.5588,-3.5841,0.0,0.0,0.0,0.0,0.0,-3.5836,-3.6715,-3.7865,-3.8497,-3.8734,-3.8997,-3.9774,-3.9943,-3.996,-4.0079,-4.0096,-4.0096,-4.0096,-4.0172,-4.0206,-4.013,-4.1837,-4.3933,-4.5991,-4.5737,-4.4925,-4.3724,-4.2811,-4.1348,-3.8916,-3.9461,-3.9586,-3.8644,-3.8844,-3.8921,-3.8697,-3.8535,-3.8201,-3.7698,-3.7439,-3.7128,-3.667,-3.6541,-3.653,-3.6564,-3.5717,-3.5011,-3.4451,-3.3518,-3.2757,-3.2165,0.0,-3.1502,-3.0859,-3.0075,-2.9509,-2.8943,-2.7338,-2.682,-2.6887,-2.6163,-2.5878,-2.5782,0.0,0.0,0.0,0.0,0.0,0.0,0.0,0.0,0.0,0.0,0.0,0.0,0.0,0.0,0.0,0.0,0.0,0.0,0.0,0.0,0.0,0.0,0.0,0.0,0.0,-3.7429,-3.6948,-3.6903,-3.6458,-3.6458,-3.6864,-3.7775,-3.8891,-4.01,-4.0285,-4.0566,-4.0864,-4.0393,-4.0184,-4.0134,0.0,0.0,0.0,0.0,0.0,0.0,0.0,0.0,0.0,0.0,-3.594,-3.5723,-3.6003,0.0,0.0,0.0,0.0,0.0,-3.6316,-3.706,-3.8091,-3.8819,-3.9317,-3.969,-4.0028,-4.0096,-4.0096,-4.0096,-4.0096,-4.0096,-4.0096,-4.0756,-4.1677,-4.2929,-4.3639,-4.4401,-4.5449,-4.4265,-4.3014,-4.232,-4.0865,-3.9546,-3.8582,-3.8471,-3.8256,-3.7763,-3.7813,-3.7934,-3.8052,-3.7652,-3.7402,-3.7342,-3.6479,-3.5652,-3.4907,-3.4509,-3.4536,-3.5,-3.4181,-3.3405,-3.2681,-3.1945,-3.1417,-3.1051,0.0,-2.9613,-2.9226,-2.8425,-2.7979,-2.7727,-2.6544,-2.6199,-2.6309,-2.564,-2.538,-2.535,0.0,0.0,0.0,0.0,0.0,0.0,0.0,0.0,0.0,0.0,0.0,0.0,0.0,0.0,0.0,0.0,0.0,0.0,0.0,0.0,0.0,0.0,0.0,0.0,0.0,-3.8113,-3.7305,-3.7237,-3.6405,-3.6098,-3.6303,-3.7577,-3.9065,-4.0693,-4.1094,-4.149,-4.1856,-4.1415,-4.1227,-4.1147,0.0,0.0,0.0,0.0,0.0,0.0,0.0,0.0,0.0,0.0,0.0,0.0,0.0,0.0,0.0,-3.5227,-3.5993,-3.6546,-3.6316,-3.6924,-3.7821,-3.8565,-3.9317,-3.9994,-4.0502,-4.062,-4.0671,-4.0832,-4.0865,-4.0764,-4.0434,-4.1271,-4.2726,-4.4823,-4.4688,-4.4462,-4.479,-4.2895,-4.139,-4.1221,-3.9259,-3.8058,-3.8447,-3.7576,-3.7016,-3.7124,-3.6951,-3.7094,-3.7667,-3.6968,-3.6651,-3.6908,-3.5382,-3.4201,-3.3442,-3.2672,-3.2606,-3.322,-3.2665,-3.1986,-3.1212,-3.0482,-3.0076,-2.9839,-2.8408,-2.7797,-2.7761,-2.6944,-2.6693,-2.6717,-2.5928,-2.5751,-2.5888,-2.5419,-2.5154,-2.4994,0.0,0.0,0.0,0.0,0.0,0.0,0.0,0.0,0.0,0.0,0.0,0.0,0.0,0.0,0.0,0.0,0.0,0.0,0.0,0.0,0.0,0.0,0.0,0.0,0.0,-3.8786,-3.8266,-3.8207,-3.7329,-3.7293,-3.8019,-3.808,-3.9013,-4.0619,-4.0577,-4.1462,-4.2964,-4.269,-4.2554,-4.2513,-4.2064,0.0,0.0,0.0,0.0,0.0,0.0,0.0,0.0,0.0,0.0,0.0,0.0,0.0,-3.4484,-3.4003,-3.4421,-3.4994,-3.4745,-3.5763,-3.7066,-3.7787,-3.8531,-3.9614,-4.166,-4.2134,-4.2337,-4.3003,-4.3156,-4.2733,-4.1373,-4.1221,-4.1796,-4.3308,-4.3511,-4.3984,-4.5432,-4.3656,-4.1965,-4.1288,-3.9259,-3.7652,-3.7032,-3.6203,-3.5912,-3.6366,-3.636,-3.6756,-3.7649,-3.6827,-3.6246,-3.6088,-3.4477,-3.3271,-3.2587,-3.1796,-3.145,-3.158,-3.1525,-3.1103,-3.0353,-2.9561,-2.8824,-2.8124,-2.7283,-2.6923,-2.6925,-2.6117,-2.5827,-2.5821,-2.5083,-2.4945,-2.518,-2.514,-2.4724,-2.407,0.0,0.0,0.0,0.0,0.0,0.0,0.0,0.0,0.0,0.0,0.0,0.0,0.0,0.0,0.0,0.0,0.0,0.0,0.0,0.0,0.0,0.0,0.0,-4.3182,-4.1414,-3.9462,-3.7903,-3.6752,-3.6374,-3.6866,-3.8157,-3.8613,-4.0024,-4.2175,-4.2648,-4.322,-4.3827,-4.3609,-4.3473,-4.3403,-4.2938,-4.3058,0.0,0.0,0.0,0.0,0.0,0.0,0.0,0.0,-3.779,-3.659,0.0,-3.5793,-3.4019,-3.4656,-3.4854,-3.4823,-3.4554,-3.596,-3.755,-3.7838,-3.8728,-3.9919,-4.1296,-4.1627,-4.1694,-4.1982,-4.2405,-4.254,-4.1982,-4.2269,-4.2733,-4.3308,-4.3826,-4.4012,-4.3639,-4.2439,-4.117,-3.9969,-3.8278,-3.7117,-3.6829,-3.5656,-3.4977,-3.5172,-3.5194,-3.5559,-3.6481,-3.5666,-3.5384,-3.5846,-3.384,-3.2392,-3.1651,-3.0865,-2.999,-2.904,-2.9623,-2.9505,-2.8713,-2.7955,-2.7464,-2.7155,-2.6373,-2.606,-2.6033,-2.5262,-2.4963,-2.4969,-2.4725,-2.4704,-2.4804,-2.498,-2.4564,-2.3873,0.0,0.0,0.0,0.0,0.0,0.0,0.0,0.0,0.0,0.0,0.0,0.0,0.0,0.0,0.0,0.0,0.0,0.0,0.0,0.0,0.0,0.0,0.0,-4.4023,-4.2832,-3.9996,-3.7908,-3.6657,-3.6005,-3.6381,-3.7732,-3.8805,-4.0388,-4.2364,-4.3448,-4.3912,-4.3923,-4.4057,-4.4068,-4.4,-4.3881,-4.4102,0.0,0.0,0.0,0.0,0.0,0.0,0.0,0.0,-3.8007,0.0,0.0,0.0,0.0,0.0,-3.475,-3.4706,-3.4529,-3.5831,-3.7337,-3.7787,-3.8762,-3.9902,-4.0958,-4.1533,-4.1912,-4.2219,-4.226,-4.2165,-4.1999,-4.2158,-4.2233,-4.2023,-4.2472,-4.2465,-4.139,-4.0612,-3.9698,-3.8447,-3.7155,-3.6309,-3.6101,-3.489,-3.4124,-3.415,-3.415,-3.4455,-3.518,-3.4447,-3.427,-3.4817,-3.282,-3.1405,-3.0734,-2.9726,-2.867,-2.7606,-2.7741,-2.7669,-2.7361,-2.6618,-2.6309,-2.6274,-2.5493,-2.519,-2.5181,-2.4661,-2.4308,-2.4084,-2.4141,-2.4022,-2.3827,-2.4028,-2.3607,-2.2974,0.0,0.0,0.0,0.0,0.0,0.0,0.0,0.0,0.0,0.0,0.0,0.0,0.0,0.0,0.0,0.0,0.0,0.0,0.0,0.0,0.0,0.0,0.0,-4.3691,-4.3711,-4.0371,-3.8572,-3.8494,-3.6621,-3.6139,-3.6972,-3.8581,-3.9779,-4.0703,-4.2351,-4.3104,-4.3143,-4.3951,-4.4297,-4.4357,-4.4949,-4.5022,-4.4605,0.0,0.0,0.0,0.0,0.0,0.0,0.0,-3.8521,-3.7595,0.0,0.0,0.0,0.0,-3.3727,-3.4434,-3.4483,-3.5135,-3.6163,-3.754,-3.8447,-3.9394,-4.0849,-4.2213,-4.344,-4.4384,-4.3242,-4.188,-4.1313,-4.0466,-3.9699,-3.9082,-3.8988,-3.8971,-3.8971,-3.8345,-3.7618,-3.688,-3.6027,-3.5228,-3.4556,-3.3756,-3.3313,-3.3368,-3.3389,-3.3564,-3.3955,-3.3285,-3.2841,-3.2797,-3.1301,-3.0299,-2.988,-2.8294,-2.7512,-2.757,-2.5954,-2.564,-2.6454,-2.5711,-2.5423,-2.5435,-2.4569,-2.4275,-2.4394,-2.4312,-2.3859,-2.3199,-2.3186,-2.2747,-2.2092,-2.2092,-2.1673,-2.1114,0.0,0.0,0.0,0.0,0.0,0.0,0.0,0.0,0.0,0.0,0.0,0.0,0.0,0.0,0.0,0.0,0.0,0.0,0.0,0.0,0.0,0.0,0.0,0.0,0.0,0.0,-3.949,-3.7594,-3.6974,-3.7692,0.0,-4.0043,-4.1017,-4.2456,-4.2899,-4.3096,-4.3115,-4.3352,-4.3778,-4.4299,-4.4288,-4.4605,-4.4862,0.0,0.0,0.0,0.0,0.0,0.0,0.0,0.0,0.0,0.0,0.0,0.0,-3.449,-3.4924,-3.5692,-3.4539,-3.5705,-3.7259,-3.7151,-3.8325,-3.9496,-3.9505,-4.1021,-4.2492,-4.2656,-4.1879,-4.0963,-4.0277,-3.9932,-3.9353,-3.8144,-3.7926,-3.7765,-3.7244,-3.6975,-3.6572,-3.5826,-3.5048,-3.451,-3.4298,-3.3182,-3.2466,-3.247,-3.2097,-3.2253,-3.3181,-3.1991,-3.176,-3.2779,-3.0761,-2.9438,-2.8987,-2.7949,-2.6873,-2.5753,-2.4761,-2.4762,-2.5623,-2.4837,-2.4519,-2.4567,-2.432,-2.422,-2.4229,-2.3693,-2.3323,-2.3081,-2.2549,-2.2219,-2.2035,-2.2081,-2.1657,-2.1061,0.0,0.0,0.0,0.0,0.0,0.0,0.0,0.0,0.0,0.0,0.0,0.0,0.0,0.0,0.0,0.0,0.0,0.0,0.0,0.0,0.0,0.0,0.0,0.0,0.0,-4.2637,-4.1229,0.0,0.0,0.0,0.0,-4.0692,-4.1196,-4.2179,-4.2117,-4.2083,-4.2067,-4.2063,-4.2739,-4.3846,-4.3991,-4.4527,-4.5038,0.0,0.0,0.0,0.0,0.0,0.0,0.0,0.0,0.0,0.0,0.0,0.0,-3.5729,-3.5754,-3.607,-3.5233,-3.6161,-3.7263,-3.6898,-3.8301,-3.9655,-3.921,-4.0141,-4.1107,-4.1054,-4.0404,-3.9642,-3.8941,-3.8547,-3.7937,-3.6815,-3.6638,-3.6487,-3.6035,-3.5968,-3.57,-3.4962,-3.4164,-3.3595,-3.3354,-3.1985,-3.1133,-3.119,-3.0597,-3.0516,-3.1191,-3.0391,-3.0283,-3.1138,-2.9821,-2.8794,-2.8129,-2.7333,-2.6276,-2.499,-2.4236,-2.399,-2.4255,-2.3809,-2.3647,-2.3694,-2.4044,-2.4026,-2.3686,-2.3269,-2.2715,-2.2078,-2.1647,-2.1282,-2.1008,-2.1046,-2.0793,-2.0469,0.0,0.0,0.0,0.0,0.0,0.0,0.0,0.0,0.0,0.0,0.0,0.0,0.0,0.0,0.0,0.0,0.0,0.0,0.0,0.0,0.0,0.0,0.0,0.0,0.0,0.0,0.0,0.0,0.0,0.0,0.0,-4.0703,-4.0602,-4.0617,-4.0441,-4.0419,-4.0496,-4.0419,-4.1393,-4.3047,-4.3778,-4.444,-4.4926,-4.4105,0.0,0.0,0.0,0.0,0.0,0.0,0.0,0.0,-3.8334,-3.7989,-3.7786,-3.6914,-3.6317,-3.5974,-3.6311,-3.6394,-3.644,-3.6695,-3.8171,-3.9496,-3.9237,-3.9289,-3.9393,-3.9434,-3.8813,-3.8078,-3.7468,-3.6727,-3.5995,-3.5362,-3.5268,-3.5251,-3.5184,-3.5168,-3.49,-3.4147,-3.3289,-3.2567,-3.2022,-3.0519,-2.9652,-2.9764,-2.9066,-2.863,-2.8697,-2.8637,-2.8592,-2.8643,-2.8578,-2.8113,-2.7248,-2.6447,-2.5663,-2.4882,-2.4013,-2.3246,-2.2598,-2.2867,-2.2969,-2.2941,-2.3667,-2.3566,-2.2887,-2.2865,-2.1969,-2.0602,-2.0575,-2.0133,-1.9478,-1.9504,-1.9536,-1.9604,0.0,0.0,0.0,0.0,0.0,0.0,0.0,0.0,0.0,0.0,0.0,0.0,0.0,0.0,0.0,0.0,0.0,0.0,0.0,0.0,0.0,0.0,0.0,0.0,0.0,0.0,0.0,0.0,0.0,0.0,0.0,-4.045,-4.013,-4.0688,-3.9264,-3.9355,-4.0534,-3.985,-4.0527,-4.2077,-4.2277,-4.2829,-4.3468,-4.2603,-4.2162,0.0,0.0,0.0,0.0,0.0,0.0,0.0,-3.8476,-3.8956,-3.9454,-3.7143,-3.6934,-3.7283,-3.672,-3.6026,-3.5624,-3.6247,-3.6786,-3.7092,-3.6804,-3.6779,-3.697,-3.7552,-3.7526,-3.7169,-3.6447,-3.6182,-3.5809,-3.5086,-3.4994,-3.4795,-3.4197,-3.413,-3.3848,-3.3101,-3.2365,-3.1845,-3.1701,-3.0418,-2.9612,-2.9632,-2.8526,-2.8095,-2.8663,-2.7626,-2.7367,-2.8133,-2.7031,-2.6292,-2.5994,-2.5242,-2.4585,-2.4031,-2.2654,-2.1912,-2.1804,-2.3107,-2.3394,-2.2886,-2.2492,-2.2225,-2.2014,-2.1343,-2.0848,-2.0472,-1.9895,-1.9567,-1.9427,-1.9483,-1.9505,-1.9541,0.0,0.0,0.0,0.0,0.0,0.0,0.0,0.0,0.0,0.0,0.0,0.0,0.0,0.0,0.0,0.0,0.0,0.0,0.0,0.0,0.0,0.0,0.0,0.0,0.0,0.0,0.0,0.0,0.0,-4.2137,-4.2905,-4.1896,-4.1189,-4.0682,-3.9297,-3.9155,-3.9923,-3.9061,-3.9642,-4.12,-4.1643,-4.2316,-4.3047,-4.2604,-4.2189,-4.1774,-4.1187,0.0,0.0,0.0,0.0,0.0,0.0,0.0,-3.9557,-3.7668,-3.7074,-3.6973,-3.6673,-3.6203,-3.5996,-3.693,-3.6622,-3.6091,-3.6024,-3.5727,-3.5479,-3.5512,-3.5794,-3.5926,-3.5545,-3.5181,-3.4816,-3.4435,-3.4071,-3.3707,-3.3348,-3.3282,-3.2994,-3.2266,-3.1515,-3.1068,-3.1068,-2.951,-2.8636,-2.9001,-2.7727,-2.7096,-2.7479,-2.6798,-2.6723,-2.7402,-2.6375,-2.5715,-2.5543,-2.4852,-2.4253,-2.3782,-2.2988,-2.2419,-2.2083,-2.2541,-2.26,-2.2337,-2.2328,-2.1888,-2.1143,-2.0694,-2.0272,-1.9895,-1.9496,-1.9364,-1.9398,-1.9446,-1.9468,-1.9505,0.0,0.0,0.0,0.0,0.0,0.0,0.0,0.0,0.0,0.0,0.0,0.0,0.0,0.0,0.0,0.0,0.0,0.0,0.0,0.0,0.0,0.0,0.0,0.0,0.0,0.0,0.0,0.0,0.0,-4.2889,-4.3382,-4.3011,-4.2081,-4.0673,0.0,-3.9259,-3.9457,-3.8584,-3.9104,-4.0554,-4.1296,-4.2008,-4.2643,-4.2643,-4.22,-4.1593,-4.1585,-4.1131,-4.0523,-4.0496,0.0,0.0,0.0,0.0,-3.9208,-3.8208,-3.7091,-3.6223,-3.6443,-3.643,-3.6591,-3.7594,-3.6807,-3.5825,-3.5909,-3.5302,-3.4535,-3.3899,-3.427,-3.4667,-3.4511,-3.3981,-3.3568,-3.3561,-3.3048,-3.2602,-3.2486,-3.2453,-3.2155,-3.1274,-3.0646,-3.0265,-3.0286,-2.8453,-2.7578,-2.8343,-2.7031,-2.6202,-2.6202,-2.6241,-2.6351,-2.6505,-2.584,-2.5392,-2.5218,-2.4527,-2.4058,-2.3804,-2.3521,-2.2944,-2.2065,-2.1533,-2.1352,-2.1497,-2.2036,-2.1523,-2.0301,-2.0283,-1.9895,-1.9297,-1.9297,-1.9331,-1.939,-1.939,-1.9413,-1.9468,0.0,0.0,0.0,0.0,0.0,0.0,0.0,0.0,0.0,0.0,0.0,0.0,0.0,0.0,0.0,0.0,0.0,0.0,-4.1152,0.0,0.0,-4.3496,-4.4473,0.0,0.0,0.0,0.0,0.0,-4.3633,-4.3183,-4.2538,-4.0948,-4.0418,-4.0719,-3.9021,-3.9026,-4.0285,-3.9477,-3.9669,-4.0516,-4.0631,-4.0746,-4.0843,-4.0843,-4.08,-4.0746,-4.0696,-4.0646,-4.0573,-4.0523,-4.0481,0.0,0.0,0.0,-3.9656,-3.8352,-3.7246,-3.6399,-3.6148,-3.6152,-3.6305,-3.6693,-3.6315,-3.5778,-3.5661,-3.476,-3.3899,-3.3667,-3.3803,-3.3717,-3.2958,-3.2737,-3.2648,-3.2607,-3.2502,-3.2223,-3.1582,-3.15,-3.0991,-2.9592,-2.9346,-2.9321,-2.9461,-2.8039,-2.7484,-2.8343,-2.7031,-2.6202,-2.6202,-2.6203,-2.594,-2.5345,-2.4614,-2.4177,-2.4039,-2.3311,-2.3229,-2.3786,-2.2453,-2.1025,-1.9594,-2.02,-2.0463,-2.047,-1.9981,-1.9656,-1.9463,-1.9465,-1.9407,-1.9297,-1.9297,-1.9315,-1.9305,-1.9305,-1.9323,-1.9338,0.0,0.0,0.0,0.0,0.0,0.0,0.0,0.0,0.0,0.0,0.0,0.0,0.0,0.0,0.0,-4.0488,-4.0566,-4.0781,-4.1172,-4.1953,-4.2578,-4.2949,-4.4277,-4.4766,-4.4277,0.0,0.0,0.0,-4.2031,-4.1621,-4.1699,-4.0401,-4.0162,-4.0774,-4.0394,-4.0082,-3.9823,-3.9938,-3.9919,-3.9881,-4.0323,-4.0496,-4.0496,-4.0496,-4.0523,-4.0539,-4.0504,-4.0523,-4.0539,-4.0504,-4.0496,-4.0481,-4.0408,0.0,0.0,0.0,-3.7183,-3.6364,-3.5502,-3.5887,-3.6488,-3.6296,-3.6387,-3.6433,-3.6037,-3.5111,-3.4179,-3.3523,-3.3006,-3.2636,-3.2471,-3.2114,-3.1812,-3.1784,-3.1456,-3.1063,-3.0729,-3.068,-3.0287,-2.9222,-2.8747,-2.8522,-2.8619,-2.7284,-2.678,-2.7599,-2.6691,-2.6115,-2.6202,-2.5805,-2.5441,-2.511,-2.3984,-2.3423,-2.3525,-2.2826,-2.2588,-2.2822,-2.1442,-2.0418,-1.9775,-1.9666,-1.962,-1.9634,-1.9795,-1.9644,-1.9308,-1.9306,-1.9292,-1.9297,-1.9297,-1.9297,-1.9297,-1.9297,-1.9297,-1.9297,0.0,0.0,0.0,0.0,0.0,0.0,0.0,0.0,0.0,0.0,0.0,0.0,0.0,0.0,0.0,0.0,-4.043,-4.0625,-4.0859,-4.1836,-4.2402,-4.2402,-4.3867,-4.4258,-4.3398,0.0,0.0,-4.209,-4.084,-4.0449,-4.0859,-4.0193,-4.0008,-4.0236,-4.1183,-4.0765,-3.9386,-4.0165,-4.0285,-3.9969,-4.0342,-4.0631,-4.0804,-4.0573,-4.0496,-4.0496,-4.0496,-4.0496,-4.0496,-4.0496,-4.0496,-4.0496,-4.0496,-4.0356,0.0,0.0,0.0,-3.6122,-3.5066,-3.5514,-3.6255,-3.6185,-3.6463,-3.6652,-3.6364,-3.5383,-3.4269,-3.3381,-3.2341,-3.167,-3.1929,-3.1429,-3.0942,-3.0853,-3.0441,-3.0098,-3.0038,-3.0081,-2.9776,-2.8845,-2.8421,-2.8098,-2.7794,-2.676,-2.6389,-2.7024,-2.6383,-2.6026,-2.615,-2.5439,-2.4977,-2.4829,-2.357,-2.2945,-2.3023,-2.2484,-2.2062,-2.1755,-2.0707,-2.0111,-1.9957,-1.9377,-1.9094,-1.9127,-1.9735,-1.9704,-1.9259,-1.9266,-1.9272,-1.9259,-1.9259,-1.9259,-1.9285,-1.9292,-1.93,-1.93,0.0,0.0,0.0,0.0,0.0,0.0,0.0,0.0,0.0,0.0,0.0,0.0,-4.1035,-4.0449,-4.0273,-4.1055,-3.9668,-3.9082,-3.9902,-4.1484,-4.2402,-4.2402,-4.3281,0.0,-4.248,-4.2461,-4.207,-4.1269,-4.1172,-4.0723,-3.9961,-3.9921,-3.942,-3.8588,-4.0159,-4.0308,-3.9438,-4.0183,-4.095,-4.1604,-4.0823,-4.0989,-4.1643,-4.0816,-4.0496,-4.0496,-4.0496,-4.0496,-4.0496,-4.0496,-4.0496,-4.0496,-4.0496,-4.0495,-4.0241,0.0,0.0,0.0,-3.5108,-3.4902,-3.5109,-3.6349,-3.6202,-3.591,-3.6461,-3.5128,-3.3659,-3.3292,-3.2059,-3.0982,-3.0829,-3.0399,-2.9956,-2.9647,-2.9764,-2.9836,-2.956,-2.977,-2.9383,-2.7952,-2.8357,-2.8253,-2.699,-2.6808,-2.683,-2.6997,-2.6325,-2.5936,-2.6008,-2.5318,-2.4644,-2.4083,-2.3305,-2.2695,-2.226,-2.2099,-2.1632,-2.085,-2.0399,-1.9804,-1.9073,-1.9088,-1.9095,-1.9095,-1.9145,-1.9144,-1.9115,-1.9184,-1.9219,-1.9219,-1.9219,-1.9219,-1.92,-1.9274,-1.9308,-1.9298,0.0,0.0,0.0,0.0,0.0,0.0,0.0,0.0,0.0,0.0,0.0,0.0,0.0,-4.0918,-4.0859,-4.1172,-4.0625,-4.0391,-4.0703,-4.1308,-4.1621,-4.1621,-4.2422,-4.248,-4.1641,-4.2148,-4.1738,0.0,-4.0371,-3.9922,-3.9062,-3.9062,-3.8568,-3.7773,-3.9863,-4.0285,-3.9483,-4.0781,-4.1508,-4.1712,-4.0854,-4.1027,-4.1692,-4.0835,-4.0496,-4.0496,-4.0496,-4.0854,-4.1335,-4.1335,-4.1351,-4.1393,-4.1343,-4.0593,-3.9496,-3.8307,-3.6984,-3.5838,-3.5484,-3.5273,-3.5178,-3.5357,-3.5618,-3.5769,-3.5612,-3.4541,-3.3455,-3.3029,-3.1967,-3.1052,-3.0753,-3.0321,-2.9919,-2.9722,-2.9515,-2.935,-2.9259,-2.9464,-2.9273,-2.8265,-2.8527,-2.826,-2.6873,-2.6743,-2.6587,-2.6197,-2.5919,-2.5613,-2.5245,-2.454,-2.3852,-2.3241,-2.2499,-2.1845,-2.1253,-2.0556,-2.0077,-1.9839,-1.9524,-1.9246,-1.8992,-1.9027,-1.9036,-1.9045,-1.9077,-1.9101,-1.9107,-1.9142,-1.915,-1.9211,-1.9211,-1.9211,-1.9192,-1.9227,-1.9235,-1.9243,0.0,0.0,0.0,0.0,0.0,0.0,0.0,0.0,0.0,0.0,0.0,0.0,0.0,0.0,-4.1387,-4.0801,-4.1289,-4.1367,-4.0801,-4.1035,-4.1191,-4.1191,-4.1973,-4.2012,-4.1211,-4.1992,-4.1719,0.0,0.0,0.0,0.0,-3.83,-3.7693,-3.6947,-3.8759,-3.9353,-3.9137,-4.0756,-4.1574,-4.1712,-4.0854,-4.12,-4.2143,-4.1277,-4.1123,-4.1343,-4.1027,-4.1316,-4.1758,-4.1485,-4.1432,-4.1447,-4.1397,-4.0427,-3.8985,-3.7604,-3.6747,-3.6093,-3.5504,-3.5221,-3.5045,-3.4811,-3.5122,-3.5382,-3.51,-3.4253,-3.3387,-3.3017,-3.1922,-3.0953,-3.0684,-2.9995,-2.9524,-2.9647,-2.9357,-2.9075,-2.8982,-2.9213,-2.9102,-2.8347,-2.8644,-2.8362,-2.6948,-2.6881,-2.6654,-2.5953,-2.5753,-2.5407,-2.4814,-2.4078,-2.3293,-2.2468,-2.1726,-2.1129,-2.0702,-1.9638,-1.9116,-1.915,-1.8896,-1.878,-1.8843,-1.894,-1.8975,-1.8975,-1.9009,-1.9052,-1.9076,-1.9092,-1.9135,-1.917,-1.917,-1.917,-1.917,-1.9168,-1.9176,-1.9184,0.0,0.0,0.0,0.0,0.0,0.0,0.0,0.0,0.0,-3.8799,0.0,0.0,0.0,0.0,0.0,-4.0156,-4.1504,-4.1738,-4.0078,-4.0781,-4.125,-4.1191,-4.1992,-4.2051,-4.125,-4.1992,-4.2012,0.0,0.0,0.0,0.0,0.0,-3.6874,-3.6069,-3.6781,-3.7546,-3.8379,-3.9987,-4.111,-4.175,-4.0854,-4.1535,-4.3008,-4.2104,-4.2297,-4.2912,-4.2066,-4.1769,-4.1681,-4.09,-4.0665,-4.0665,-4.0588,-3.9958,-3.89,-3.7114,-3.6575,-3.6285,0.0,0.0,0.0,-3.4823,-3.4743,-3.4682,-3.4989,-3.4235,-3.3423,-3.3207,-3.186,-3.0696,-3.0571,-2.9448,-2.8748,-2.9359,-2.9257,-2.8997,-2.8756,-2.8943,-2.8869,-2.8119,-2.8695,-2.8584,-2.7188,-2.7259,-2.7098,-2.6378,-2.587,-2.5329,-2.4741,-2.3975,-2.2998,-2.1727,-2.0953,-2.06,-2.0669,-1.9475,-1.8875,-1.8858,-1.861,-1.8502,-1.8502,-1.8771,-1.8895,-1.8895,-1.8904,-1.894,-1.8992,-1.907,-1.9095,-1.9095,-1.9095,-1.9095,-1.9095,-1.9109,-1.9107,-1.9107,0.0,0.0,0.0,0.0,0.0,0.0,0.0,0.0,-4.212,0.0,0.0,0.0,-4.2441,-4.2402,-4.2461,-4.2637,-4.3066,-4.2871,-4.1777,-4.2519,-4.2461,-4.125,-4.2578,-4.2949,-4.209,-4.2285,-4.2012,0.0,0.0,0.0,0.0,0.0,0.0,0.0,-3.7156,-3.7298,-3.7467,-3.9085,-4.0903,-4.2604,-4.1112,-4.1535,-4.2931,-4.1431,-4.1016,-4.1189,-4.0958,-4.1258,-4.1777,-4.1594,-4.1959,-4.2155,-4.0304,-3.9926,-3.9677,-3.7352,-3.7068,-3.7291,-3.6296,0.0,0.0,0.0,0.0,0.0,-3.3854,-3.3246,-3.2789,-3.2582,-3.2038,-3.1564,-3.1528,-3.0766,-3.0219,-3.0377,-2.9512,-2.8972,-2.9441,-2.9738,-2.9679,-2.9083,-2.9355,-2.9191,-2.812,-2.7636,-2.718,0.0,-2.5982,-2.5292,-2.4601,-2.3435,-2.2394,-2.1511,-2.0344,-1.9761,-1.983,-1.8626,-1.807,-1.8104,-1.8364,-1.841,-1.831,-1.8706,-1.8798,-1.8616,-1.8816,-1.8905,-1.8923,-1.9002,-1.9053,-1.9095,-1.9095,-1.9095,-1.9095,-1.9104,-1.9094,-1.9102,0.0,0.0,0.0,0.0,0.0,0.0,0.0,0.0,-4.2883,0.0,0.0,0.0,-4.3535,-4.3808,-4.3945,-4.3711,-4.4023,-4.3867,-4.3008,-4.3418,-4.3105,-4.1758,-4.2988,-4.3281,-4.2422,-4.2402,0.0,0.0,0.0,0.0,0.0,0.0,0.0,0.0,0.0,-3.718,-3.7096,-3.8384,-3.9934,-4.145,-4.0766,-4.1335,-4.245,-4.1431,-4.1258,-4.1535,-4.1162,-4.1604,-4.2239,-4.1574,-4.1697,-4.1733,-3.9553,-3.9145,-3.9068,-3.681,-3.6492,-3.6723,-3.6157,-3.5921,-3.5635,-3.4797,0.0,0.0,-3.3273,-3.3009,-3.2857,-3.2273,-3.1957,-3.1757,-3.162,-3.0916,-3.0444,-3.0749,-3.0023,-2.953,-2.988,-2.9793,-2.9706,-2.9691,-2.9607,-2.9217,-2.8397,-2.7662,-2.6998,-2.6455,-2.5905,-2.5163,-2.4144,-2.3043,-2.2118,-2.1418,-2.037,-1.9694,-1.9452,-1.8481,-1.7871,-1.7634,-1.8014,-1.8142,-1.8057,-1.84,-1.8537,-1.8518,-1.866,-1.8797,-1.8905,-1.8941,-1.9002,-1.9062,-1.9062,-1.907,-1.9095,-1.9095,-1.9095,-1.9095,0.0,0.0,0.0,0.0,0.0,0.0,0.0,0.0,0.0,0.0,-4.451,-4.5078,-4.5273,-4.5801,-4.5566,-4.4121,-4.4707,-4.4766,-4.3906,-4.3926,-4.3555,-4.2598,-4.3476,-4.3574,-4.2715,-4.2695,0.0,0.0,0.0,0.0,0.0,0.0,0.0,0.0,0.0,0.0,-3.6938,-3.7892,-3.864,-3.9242,-4.0138,-4.1027,-4.1788,-4.1692,-4.2143,-4.2701,-4.1931,-4.2143,-4.2593,-4.1216,-4.0675,-4.0344,-3.8858,-3.8311,-3.7903,-3.619,-3.5624,-3.5525,-3.5477,-3.5403,-3.5247,-3.4851,-3.4689,0.0,-3.325,-3.3227,-3.3172,-3.2141,-3.1721,-3.1492,-3.1274,-3.0485,-3.0108,-3.0855,-3.0678,-3.0408,-3.0265,-2.9696,-2.9457,-2.9978,-2.9588,-2.8978,-2.8275,-2.7455,-2.672,-2.6122,-2.5757,-2.4948,-2.3526,-2.2863,-2.2167,-2.1419,-2.0751,-2.0078,-1.9397,-1.8716,-1.8049,-1.7395,-1.7669,-1.7789,-1.7777,-1.8001,-1.8222,-1.8465,-1.8485,-1.8657,-1.8896,-1.8896,-1.8932,-1.901,-1.901,-1.9045,-1.9095,-1.9095,-1.9095,-1.9095,-4.2183,0.0,0.0,0.0,0.0,0.0,0.0,0.0,-4.5021,-4.4631,-4.4835,-4.5527,-4.6933,-4.5996,-4.5391,-4.5762,-4.5957,-4.5683,-4.4805,-4.5391,-4.5098,-4.3516,-4.4941,-4.5371,-4.4512,-4.4492,-4.4141,0.0,0.0,0.0,0.0,0.0,0.0,0.0,0.0,0.0,-3.6217,-3.7689,-3.8315,-3.8466,-3.9926,-4.1027,-4.1712,-4.1027,-4.0862,-4.0997,-4.0804,-4.0862,-4.1062,-4.1504,-4.1186,-4.0537,-4.0228,-3.9641,-3.8866,-3.7796,-3.699,-3.6442,-3.6427,-3.6342,-3.6071,-3.5295,-3.5295,0.0,-3.4375,-3.334,-3.2488,-3.2201,-3.1358,-3.08,-3.1282,-3.1105,-3.1147,-3.1899,-3.1324,-3.0904,-3.1191,-3.1097,-3.0709,-2.9885,-2.9679,-2.9241,-2.8299,-2.7319,-2.6726,-2.6656,-2.5854,-2.4708,-2.3264,-2.3247,-2.2686,-2.1373,-2.0676,-2.0007,-1.933,-1.8597,-1.796,-1.7395,-1.7617,-1.7647,-1.7569,-1.7926,-1.8121,-1.8191,-1.8408,-1.8629,-1.8815,-1.8815,-1.8887,-1.901,-1.901,-1.9045,-1.9095,-1.9095,-1.9095,-1.9095,-4.222,0.0,0.0,0.0,0.0,0.0,0.0,0.0,-4.4816,-4.5359,-4.5947,-4.6465,-4.6894,-4.6172,-4.582,-4.6269,-4.6308,-4.6113,-4.5683,-4.6055,-4.5723,-4.4414,-4.4765,-4.4804,-4.4355,-4.3925,-4.3496,0.0,0.0,0.0,0.0,0.0,0.0,0.0,0.0,-3.678,-3.6009,-3.7623,-3.8228,-3.8246,-3.9856,-4.0766,-4.1104,-4.0669,-4.0496,-4.0496,-4.0496,-4.0496,-4.0639,-4.1581,-4.1321,-4.046,-3.9669,-3.909,-3.8528,-3.7658,-3.7065,-3.6702,-3.6707,-3.6654,-3.638,-3.5436,-3.5331,0.0,0.0,-3.388,-3.3343,-3.2316,-3.186,-3.1678,-3.1778,-3.1582,-3.1623,-3.2348,-3.1967,-3.1673,-3.186,-3.1436,-3.1011,-3.077,-3.0487,-2.9973,-2.9123,-2.7869,-2.6771,-2.5956,-2.5447,-2.4662,-2.356,-2.3376,-2.2807,-2.173,-2.1101,-2.0304,-1.926,-1.8914,-1.8254,-1.7302,-1.7474,-1.7522,-1.7455,-1.7698,-1.7904,-1.8111,-1.8232,-1.8487,-1.8797,-1.8797,-1.8852,-1.8949,-1.8958,-1.8992,-1.9053,-1.9078,-1.9095,-1.9095,-4.2018,0.0,0.0,0.0,0.0,0.0,0.0,0.0,-4.4394,-4.6128,-4.7081,-4.7402,-4.6855,-4.6641,-4.6621,-4.6797,-4.6484,-4.6367,-4.6543,-4.6387,-4.5996,-4.5273,-4.4589,-4.412,-4.3945,-4.3261,-4.2733,0.0,0.0,0.0,0.0,0.0,0.0,0.0,0.0,-3.7625,-3.6499,-3.7774,-3.8321,-3.8495,-3.9928,-4.0496,-4.0496,-4.0496,-4.0496,-4.0496,-4.0496,-4.0496,-4.062,-4.1388,-4.1186,-4.0351,-3.8891,-3.8286,-3.799,-3.7243,-3.6766,-3.6507,-3.6664,-3.6591,-3.6254,-3.5438,-3.5234,-3.5029,0.0,0.0,0.0,-3.2399,-3.2329,-3.2435,-3.1874,-3.1717,-3.1789,-3.2174,-3.231,-3.2317,-3.2141,-3.1481,-3.1114,-3.1389,-3.1107,-3.0571,-2.969,-2.8372,-2.6929,-2.5393,-2.5191,-2.4768,-2.3894,-2.3515,-2.2939,-2.2126,-2.173,-2.0839,-1.9429,-1.9309,-1.8638,-1.7382,-1.7375,-1.7399,-1.7399,-1.7467,-1.7698,-1.8037,-1.808,-1.8333,-1.8742,-1.8779,-1.8824,-1.887,-1.8887,-1.8931,-1.8984,-1.9035,-1.907,-1.9097,-4.2774,-4.3583,0.0,0.0,0.0,0.0,0.0,0.0,-4.5922,-4.7108,-4.7454,-4.7851,-4.8535,-4.793,-4.7754,-4.8535,-4.7187,-4.6621,-4.7402,-4.6738,-4.6269,-4.6152,-4.6054,-4.5643,-4.4862,-4.4764,-4.3944,-4.2401,0.0,0.0,0.0,0.0,0.0,0.0,-3.8144,-3.775,-3.8289,-3.8296,-3.8689,-3.9413,-4.0183,-4.0496,-4.0496,-4.0496,-4.0496,-4.0496,-4.0496,-4.0496,-4.0531,-4.0682,-4.0691,-4.044,-3.9548,-3.8769,-3.8151,-3.7924,-3.6806,-3.5778,-3.6507,-3.6145,-3.552,-3.541,-3.5331,-3.525,-3.5087,0.0,-3.3431,-3.2317,0.0,-3.1299,-3.0417,0.0,0.0,-3.1032,-3.1878,-3.2372,-3.1618,-3.1859,-3.1602,-3.0193,-3.0525,-3.03,-2.8732,-2.8135,-2.743,-2.6409,-2.5903,-2.5025,-2.3698,-2.3919,-2.3469,-2.2142,-2.2214,-2.16,-2.0192,-1.9526,-1.8824,-1.8068,-1.7567,-1.7346,-1.7399,-1.7467,-1.7622,-1.7839,-1.8023,-1.828,-1.8561,-1.8732,-1.8797,-1.8815,-1.8887,-1.8905,-1.8913,-1.8913,-1.8957,-1.9109,-4.2257,-4.3333,-4.4143,0.0,0.0,0.0,0.0,0.0,0.0,-4.734,-4.8364,-4.9258,-4.9609,-4.8437,-4.8144,-4.9531,-4.8516,-4.7754,-4.7617,-4.7266,-4.6836,-4.6328,-4.5817,-4.5366,-4.5015,-4.4506,-4.3647,-4.24,-4.2401,0.0,0.0,0.0,0.0,0.0,-3.8613,-3.8259,-3.8624,-3.8929,-3.9226,-3.9563,-4.0228,-4.0496,-4.0496,-4.0496,-4.0496,-4.0496,-4.0496,-4.0208,-3.9811,-3.9885,-3.9893,-3.9675,-3.8356,-3.8066,-3.8086,-3.7488,-3.6806,-3.6324,-3.6629,-3.6435,-3.6029,-3.5528,-3.5383,-3.5346,-3.527,-3.4517,-3.357,-3.2642,0.0,0.0,0.0,0.0,0.0,0.0,-3.1362,-3.1509,-3.1112,-3.1596,-3.1828,-3.1303,-3.1934,-3.162,-2.9643,-2.8815,-2.7703,-2.5979,-2.6046,-2.5651,-2.4489,-2.4277,-2.3932,-2.3341,-2.2713,-2.1908,-2.0889,-2.0192,-1.9281,-1.8199,-1.798,-1.7712,-1.7399,-1.7467,-1.7599,-1.78,-1.7894,-1.8135,-1.8522,-1.8582,-1.8695,-1.8797,-1.8824,-1.887,-1.8905,-1.8895,-1.8913,-1.8994,-4.2459,-4.3602,-4.447,-4.3893,0.0,0.0,0.0,0.0,-4.7654,-4.7338,-4.8777,-4.9901,-5.0176,-4.9062,-4.8906,-5.0391,-4.9316,-4.8379,-4.7988,-4.7519,-4.6953,-4.6325,-4.5697,-4.5245,-4.501,-4.4147,-4.3271,-4.2398,0.0,0.0,0.0,0.0,0.0,0.0,-3.9433,-3.908,-3.931,-3.9522,-3.9711,-3.9908,-4.0372,-4.04,-4.0208,-4.0419,-4.0362,-4.0169,-4.0169,-3.965,-3.8945,-3.9017,-3.9044,0.0,-3.7344,-3.733,-3.7654,-3.6748,-3.6466,-3.6459,-3.64,-3.6367,-3.6225,-3.5587,-3.542,-3.5355,-3.505,-3.4481,-3.3716,-3.261,-3.1863,0.0,0.0,0.0,-3.0651,-3.068,0.0,-3.1007,-3.0654,-3.1369,-3.1903,-3.1783,-3.2422,-3.2301,-3.0865,-2.9863,-2.8488,-2.6484,-2.6516,-2.6178,-2.5155,-2.4726,-2.4412,-2.422,-2.3407,-2.2539,-2.1601,-2.0921,-1.9978,-1.8798,-1.8457,-1.8077,-1.7675,-1.755,-1.7599,-1.78,-1.78,-1.8025,-1.8398,-1.8475,-1.8544,-1.8612,-1.8751,-1.8663,-1.8494,-1.8771,-1.8887,-1.8941,-4.4116,-4.4908,-4.5556,-4.5518,-4.5518,0.0,0.0,-4.5761,-4.6227,-4.7174,-4.8201,-4.9186,-5.0097,-5.0156,-5.0449,-5.1289,-4.9082,-4.7988,-4.8807,-4.7283,-4.6325,-4.6302,-4.6277,-4.5863,-4.5024,-4.4144,-4.3265,-4.2408,0.0,0.0,0.0,0.0,0.0,0.0,-4.0586,-4.0292,-4.0954,-4.0063,-4.0114,-4.076,-4.0715,-4.0145,-3.9419,-4.0208,-4.0015,-3.9342,-3.9342,0.0,0.0,-3.8118,-3.8144,0.0,0.0,0.0,0.0,-3.5883,-3.5639,-3.5628,-3.556,-3.5547,-3.5534,-3.5507,-3.55,-3.5262,-3.4344,-3.4126,-3.3632,-3.1973,-3.2027,-3.1864,-3.0235,-3.0932,-3.1227,-2.9617,-3.0663,0.0,0.0,-3.1367,-3.1823,-3.0609,-3.0935,-3.1478,-3.1986,-3.1196,-3.009,-2.8779,-2.7636,-2.6522,-2.5448,-2.5304,-2.4942,-2.422,-2.4342,-2.3771,-2.2377,-2.1649,-2.0951,-2.031,-1.8944,-1.8319,-1.8347,-1.7777,-1.7599,-1.78,-1.78,-1.791,-1.8132,-1.8388,-1.8341,-1.8163,-1.8612,-1.8215,-1.7468,-1.8448,-1.8833,-1.9013,-4.4882,-4.5312,-4.5594,-4.5594,-4.5594,-4.5804,-4.6405,-4.705,-4.8021,-4.9612,-5.0185,-5.1036,-5.2558,-5.1699,-5.1094,-5.1387,-5.0137,-4.8711,-4.7265,-4.7167,-4.6657,-4.5481,-4.5984,-4.6155,-4.5875,-4.5015,-4.4413,-4.4125,-4.2663,0.0,0.0,0.0,0.0,0.0,0.0,-3.9511,-4.027,-3.9875,-4.0126,-4.0736,-4.005,-3.9579,-3.9265,-3.895,-3.8681,-3.843,-3.843,-3.7873,0.0,-3.7224,-3.725,-3.7109,-3.6344,-3.6477,-3.6723,-3.5863,-3.5606,0.0,0.0,0.0,-3.4834,-3.5425,0.0,-3.3904,-3.4122,-3.3263,-3.2289,-3.1712,-3.1294,-3.0835,-3.0261,-3.041,-3.0406,-2.9796,-3.0039,-3.0124,0.0,-3.0618,-3.1659,-3.2254,-3.1803,-3.174,-3.2419,-3.1115,-2.973,-2.8494,-2.8023,-2.7206,-2.586,-2.5772,-2.5564,-2.5132,-2.4721,-2.4063,-2.3139,-2.2394,-2.1501,-2.0448,-1.9495,-1.8825,-1.8447,-1.7806,-1.7534,-1.7604,-1.7604,-1.7726,-1.791,-1.8139,-1.818,-1.8142,-1.863,-1.8517,-1.8083,-1.8021,-1.7681,-1.752,-4.5304,-4.5495,-4.5577,-4.5605,-4.5594,-4.5804,-4.6386,-4.7526,-4.8895,-5.0473,-5.104,-5.1755,-5.2949,-5.1816,-5.0723,-5.0098,-4.9297,-4.8105,-4.6406,-4.6541,-4.6304,-4.5498,-4.6,-4.6306,-4.63,-4.5441,-4.4857,-4.4531,-4.3106,-4.2406,0.0,0.0,0.0,0.0,0.0,-3.9375,-3.9882,-3.9812,-4.0203,-4.0762,-3.9441,-3.8722,-3.8348,-3.7452,-3.7296,-3.7546,0.0,-3.6988,-3.6283,-3.6357,-3.6363,-3.6285,-3.5842,-3.6052,-3.6298,-3.543,-3.5173,-3.511,-3.4805,-3.4291,0.0,-3.453,-3.3838,0.0,-3.3261,-3.2441,-3.1551,-3.1268,-3.0763,-3.0361,-3.0349,-3.0228,-3.0121,-3.0047,-2.9939,-2.9818,0.0,-3.0552,-3.1483,-3.2405,-3.2298,-3.219,-3.2296,-3.1395,-3.0044,-2.8152,-2.8219,-2.7587,-2.591,-2.5862,-2.5791,-2.5616,-2.5146,-2.4583,-2.3921,-2.3173,-2.2297,-2.129,-2.0014,-1.9216,-1.8856,-1.7934,-1.7534,-1.7599,-1.7522,-1.7611,-1.7811,-1.7943,-1.7947,-1.7943,-1.8477,-1.8377,-1.7951,-1.7994,-1.7639,-1.7373,-4.539,-4.5467,-4.5541,-4.5586,-4.5594,-4.565,-4.5731,-4.7228,-4.8722,-4.9815,-5.0706,-5.1263,-5.1386,-5.0644,-4.9433,-4.7695,-4.6738,-4.6191,-4.6111,-4.5366,-4.5283,-4.6078,-4.6149,-4.6163,-4.6163,-4.5402,-4.4563,-4.3705,-4.2864,0.0,0.0,0.0,0.0,0.0,-4.0175,-3.9805,-3.9766,-3.9765,-4.0203,-4.071,-3.8868,-3.7633,-3.6783,-3.5862,-3.5942,-3.6577,-3.6635,-3.6115,-3.5456,-3.5515,-3.5501,-3.5494,-3.5552,-3.5568,-3.5414,-3.4587,-3.4336,-3.4151,-3.3327,-3.3065,-3.304,-3.3006,-3.2943,0.0,0.0,0.0,-3.1414,-3.0653,-3.0504,-3.0474,-3.0422,-3.0408,-3.0379,-3.0316,-3.0286,-3.0383,-3.0706,-3.1087,-3.1314,-3.1192,-3.2206,-3.2594,-3.17,-3.1956,-3.0964,-2.8055,-2.8323,-2.7734,-2.5662,-2.5769,-2.5782,-2.5616,-2.5616,-2.5299,-2.4661,-2.389,-2.3242,-2.2731,-2.0469,-1.9463,-1.9551,-1.8137,-1.7599,-1.7777,-1.7592,-1.7599,-1.7789,-1.78,-1.768,-1.7569,-1.8232,-1.7865,-1.71,-1.8258,-1.8623,-1.8547,-4.539,-4.5495,-4.5577,-4.5594,-4.5594,-4.5823,-4.6482,-4.6981,-4.814,-5.048,-5.0431,-5.0494,-5.1308,-5.0098,-4.8535,-4.6797,-4.584,-4.4785,-4.3494,-4.3803,-4.3838,-4.3423,-4.4021,-4.4367,-4.4367,-4.4777,-4.4563,-4.3705,-4.3489,0.0,-4.2376,0.0,0.0,0.0,0.0,-3.8574,-3.7969,-3.7969,-3.8363,-3.8883,-3.7705,-3.706,-3.6723,0.0,-3.5238,-3.493,-3.5577,-3.5264,-3.4539,-3.4609,-3.4234,-3.3735,-3.3754,-3.3764,-3.3726,-3.3494,-3.3436,-3.3378,-3.3155,-3.2633,-3.228,-3.2912,-3.2099,-3.1258,0.0,0.0,0.0,0.0,0.0,0.0,0.0,-3.0428,-3.0381,-3.0375,-3.0115,-3.032,-3.1449,-3.096,-3.0937,-3.2078,-3.1333,-3.1038,-3.1822,-3.0889,-3.008,-2.973,-2.9244,-2.8255,-2.6554,0.0,-2.7538,-2.5875,-2.5824,-2.5221,-2.3963,-2.375,-2.308,-2.1973,-2.0282,-1.952,-1.9551,-1.8137,-1.7522,-1.7581,-1.751,-1.7522,-1.7592,-1.7732,-1.768,-1.7545,-1.8018,-1.8021,-1.7734,-1.7215,-1.7993,-1.9244,-4.539,-4.5504,-4.5594,-4.5594,-4.5913,-4.6326,-4.6833,-4.7568,-4.867,-5.0311,-4.9819,-4.9421,-4.9703,-4.8222,-4.6484,-4.4746,-4.4141,-4.3457,-4.2459,-4.2866,-4.3077,-4.2975,-4.3435,-4.3705,-4.3705,-4.4172,-4.3997,-4.3138,-4.3138,0.0,-4.181,0.0,0.0,0.0,0.0,-3.7754,-3.7324,-3.7715,-3.7864,-3.7802,-3.723,-3.6712,0.0,-3.5297,-3.4635,-3.4225,-3.4372,-3.4097,-3.3672,-3.3722,-3.3442,-3.3103,-3.3105,-3.3097,-3.3024,-3.2633,-3.2541,-3.2449,-3.2101,-3.1657,-3.1386,-3.1869,-3.126,-3.067,-3.1158,-3.0897,-3.054,0.0,-3.054,-3.054,0.0,-3.049,-3.0409,-3.0334,-3.0044,-3.0222,-3.1262,-3.0798,-3.0777,-3.1985,-3.1186,-3.0977,-3.2063,-3.026,-2.9285,-2.9958,-2.9379,-2.8402,0.0,0.0,-2.7733,-2.5967,-2.5897,-2.5506,-2.4705,-2.4047,-2.3375,-2.2679,-2.0525,-1.955,-1.9551,-1.8137,-1.7503,-1.7503,-1.7503,-1.7503,-1.7498,-1.7611,-1.7604,-1.7534,-1.785,-1.8023,-1.8018,-1.7376,-1.8059,-1.9194,-4.54,-4.5513,-4.5594,-4.5594,-4.6317,-4.6846,-4.6759,-4.8155,-4.9257,-4.9262,-4.8639,-4.7933,-4.7312,-4.5701,-4.4043,-4.2537,-4.2304,-4.2246,-4.2224,-4.2222,-4.2569,-4.3325,-4.3357,-4.3354,-4.3354,-4.3354,-4.2982,-4.224,-4.224,0.0,0.0,0.0,0.0,0.0,0.0,-3.7246,-3.7187,-3.7949,-3.7812,-3.7105,-3.6986,-3.6434,-3.5593,-3.4582,-3.4122,-3.3943,-3.3121,-3.2825,-3.2837,-3.2827,-3.2792,-3.2756,-3.2761,-3.2758,-3.2613,-3.1869,-3.1647,-3.1483,-3.0791,-3.0598,-3.0578,-3.0462,-3.052,-3.0578,-3.0462,-3.052,-3.0598,-3.0598,-3.0598,-3.0598,0.0,0.0,-3.0293,-3.0176,-3.0004,-3.0086,-3.0685,-3.0536,-3.0627,-3.1408,-3.1072,0.0,-3.2324,-3.0089,-2.8932,-2.9775,-2.9494,-2.8677,0.0,0.0,-2.7426,-2.5968,-2.5934,-2.5921,-2.5878,-2.4459,-2.3786,-2.3818,-2.0999,-1.9646,-1.9551,-1.8236,-1.7586,-1.7503,-1.7503,-1.7503,-1.7503,-1.7503,-1.7503,-1.751,-1.7726,-1.7888,-1.8016,-1.8048,-1.8467,-1.8877,-4.5467,-4.555,-4.5594,-4.5594,-4.6317,-4.6663,-4.5932,-4.6718,-4.7155,-4.6571,-4.5852,-4.5391,-4.5365,-4.3876,-4.2733,-4.2439,-4.1797,-4.1386,-4.1323,-4.1322,-4.1396,-4.1542,-4.1558,-4.1558,-4.1558,-4.1558,-4.148,-4.1324,-4.1324,-4.1246,0.0,0.0,0.0,0.0,-3.7695,-3.6894,-3.623,-3.6387,0.0,-3.6132,-3.6055,-3.5907,-3.5586,-3.4585,-3.3788,-3.3108,-3.2236,-3.1927,-3.1929,-3.1934,-3.1493,-3.096,-3.096,-3.0965,-3.0931,-3.084,-3.0806,-3.0772,-3.0636,-3.0598,-3.0424,-2.9708,-3.0075,-3.0404,-2.9689,-3.0075,-3.0598,-3.0598,-3.0598,-3.0598,-3.0598,0.0,0.0,-2.9815,-2.9845,-3.0007,-3.0551,-2.9996,-3.0039,-3.1419,-2.9122,-2.8769,-3.2153,-3.0711,-3.0139,-3.1549,-3.1428,-3.0406,0.0,0.0,-2.8936,0.0,-2.615,0.0,0.0,0.0,-2.3653,-2.3073,-2.1319,-2.0177,-1.9568,-1.872,-1.8021,-1.7503,-1.7503,-1.7503,-1.7503,-1.7503,-1.7503,-1.751,-1.7726,-1.7721,-1.7634,-1.7783,-1.8538,-1.9325,-4.5541,-4.5577,-4.546,-4.4998,-4.5643,-4.5797,-4.4489,-4.4691,-4.5027,-4.5161,-4.4171,-4.3484,-4.3591,-4.2487,-4.1559,-4.1149,-4.0741,-4.0311,-3.9838,-4.0228,-4.0283,-3.9821,-4.0192,-4.0229,-3.9801,-3.9801,-4.0016,-4.0424,-4.0424,-4.0659,-4.107,0.0,0.0,-3.8549,-3.7187,-3.6341,0.0,0.0,0.0,-3.5804,-3.5288,-3.5045,-3.4879,-3.3454,-3.2665,-3.2204,-3.1338,-3.1028,-3.1031,-3.1031,-3.0783,-3.0495,-3.046,-3.0476,-3.0515,-3.054,-3.0579,-3.0501,-3.0056,-2.9921,-2.9727,-2.8842,-2.8939,-2.9132,-2.8726,-2.8958,-2.9248,-2.9248,-2.9611,-3.0056,-3.052,-3.0167,0.0,0.0,-2.9894,-3.0018,-3.0616,-2.9531,-2.9249,-3.0842,-2.8444,-2.8033,-3.1578,-3.0732,-3.0584,-3.2047,-3.1614,-3.0472,0.0,0.0,-2.8956,0.0,0.0,0.0,-2.511,0.0,0.0,-2.2874,-2.1398,-2.0519,-2.0141,-1.9018,-1.8323,-1.8004,-1.7652,-1.7503,-1.7503,-1.7503,-1.7503,-1.7498,-1.7616,-1.7592,-1.7498,-1.7599,-1.8235,-1.8899,-4.5577,-4.546,-4.5114,-4.4412,-4.472,-4.4547,-4.3047,-4.2758,-4.3008,-4.3904,-4.2692,-4.1763,-4.1816,-4.1077,-4.0305,-3.968,-3.9449,-3.9059,-3.8372,-3.8978,-3.8955,-3.8084,-3.8824,-3.8961,-3.8337,-3.8142,-3.8531,-3.9546,-3.9548,0.0,0.0,0.0,0.0,0.0,0.0,0.0,0.0,0.0,-3.5694,-3.5477,-3.4711,-3.4309,-3.3964,-3.2315,-3.169,-3.1595,-3.0708,-3.0406,-3.0367,-3.0194,-3.0274,-3.0469,-3.0422,-3.0314,-3.0235,-3.0244,-3.0158,-2.9901,-2.921,-2.9016,-2.8803,-2.7933,-2.7855,-2.7952,-2.7778,-2.7875,-2.7991,-2.7991,-2.8687,-2.9568,-3.0405,-3.0312,0.0,0.0,0.0,-2.9926,-3.0432,-2.9275,-2.8837,-3.0109,-2.8453,-2.8201,-3.0662,-3.0735,-3.1005,-3.1937,-3.144,-3.0466,-2.898,0.0,0.0,0.0,0.0,-2.6171,-2.5609,0.0,-2.3619,-2.2874,-2.1564,-2.0851,-2.0652,-1.9333,-1.8654,-1.8456,-1.7801,-1.7503,-1.7503,-1.7503,-1.7503,-1.7503,-1.7503,-1.7503,-1.7503,-1.7503,-1.7922,-1.8406,-4.5577,-4.496,-4.4393,-4.4316,-4.3758,-4.3008,-4.2066,-4.1403,-4.1308,-4.206,-4.0857,-3.9944,-3.9947,-3.9281,-3.8796,-3.8738,-3.8,-3.7514,-3.7431,-3.7509,-3.7154,-3.6285,-3.7067,-3.7497,-3.7419,-3.6656,-3.7048,-3.8708,-3.8714,-3.8755,0.0,0.0,0.0,0.0,0.0,0.0,0.0,-3.5794,-3.5385,-3.4683,-3.4482,-3.3949,-3.3195,-3.2108,-3.1707,-3.1586,-3.071,-3.041,-3.0275,-2.9492,-2.9745,-3.0417,-3.0398,-2.9899,-2.9332,-2.939,-2.8858,-2.8223,-2.8146,-2.8126,-2.7914,-2.7035,-2.7426,-2.7797,-2.6996,-2.7426,-2.7991,-2.7991,-2.8687,-2.9535,-3.029,-2.97,-2.9295,0.0,0.0,-2.9588,-2.9551,-2.9399,-2.9301,-2.9405,-2.9155,-2.9071,-2.9292,-3.1108,-3.2039,-3.1441,-3.1819,-3.1538,0.0,0.0,0.0,-2.8935,-2.7864,-2.7278,-2.7282,-2.5095,-2.3619,-2.2891,-2.2094,-2.1348,-2.0669,-1.9863,-1.9121,-1.8456,-1.7801,-1.7503,-1.7503,-1.7503,-1.7503,-1.7503,-1.7503,-1.7503,-1.7503,-1.7503,-1.7922,-1.8406,-4.4802,-4.4145,-4.3239,-4.2209,-4.1747,-4.1085,0.0,-3.9335,-3.9303,-3.9693,-3.9331,-3.9035,-3.9035,-3.921,-3.8694,-3.7175,-3.7199,-3.6868,-3.5809,-3.5734,-3.5828,-3.5992,-3.6324,-3.6519,-3.6519,-3.6187,-3.6597,-3.783,-3.7816,-3.8092,0.0,0.0,0.0,0.0,0.0,-3.609,-3.5705,-3.5177,-3.4768,-3.4376,-3.3277,-3.2658,-3.2261,-3.1281,-3.0927,-3.0864,-3.0525,-3.0058,-2.9563,-2.9223,-2.9325,-2.9547,-2.9047,-2.8683,-2.842,-2.8449,-2.8246,-2.7887,-2.737,-2.7224,-2.7015,-2.6184,-2.6246,-2.6401,-2.6068,-2.6246,-2.6497,-2.6497,-2.7155,-2.8148,-2.9492,-2.9271,-2.9135,-2.9913,0.0,0.0,-2.8877,-2.8267,-2.7704,-2.7135,-2.6594,-2.6636,-2.758,-2.9329,-3.0448,-3.0557,-3.2515,-3.3067,0.0,0.0,0.0,-3.0222,0.0,-2.6763,-2.6833,-2.4946,-2.3404,-2.2243,-2.1945,-2.1647,-2.1332,-2.0144,-1.8985,-1.7872,-1.7619,-1.7503,-1.7503,-1.7503,-1.7503,-1.7503,-1.7503,-1.7503,-1.7503,-1.7503,-1.7922,-1.8456,-4.3145,0.0,-4.1569,0.0,-3.9931,-3.9277,-3.7834,-3.7488,-3.7346,-3.7169,-3.7113,-3.7264,-3.7771,-3.7887,-3.7186,-3.5396,-3.5555,-3.5244,-3.4029,-3.3935,-3.4109,-3.445,-3.4724,-3.4841,-3.4841,-3.4841,-3.5271,-3.615,-3.641,0.0,0.0,0.0,0.0,0.0,-3.5785,-3.5184,-3.4898,-3.4289,-3.3866,-3.3538,-3.2301,-3.1642,-3.1347,-3.0664,-3.0404,-3.0365,-3.0115,-2.9621,-2.9011,-2.853,-2.8357,-2.8319,-2.8011,-2.7719,-2.7513,-2.7513,-2.7388,-2.7092,-2.6474,-2.6329,-2.6187,-2.5607,-2.5472,-2.5472,-2.5472,-2.5472,-2.5549,-2.58,-2.6303,-2.7202,-2.8898,-2.8982,-2.9053,-2.9913,0.0,0.0,-2.84,-2.7503,-2.6665,-2.607,-2.5827,-2.5898,-2.6301,-2.839,-2.9635,-2.9441,-3.2397,0.0,0.0,0.0,0.0,0.0,0.0,0.0,-2.6786,-2.4996,-2.3434,-2.2157,-2.1925,-2.1811,-2.1763,-2.0276,-1.882,-1.7503,-1.7503,-1.7503,-1.7503,-1.7503,-1.7503,-1.7503,-1.7503,-1.7491,-1.7479,-1.7486,-1.7777,-1.8215,-4.0435,-3.9794,-3.925,-3.9231,-3.8562,-3.7738,-3.6846,-3.6154,-3.5413,-3.4567,-3.387,-3.4118,-3.5836,-3.4509,-3.3474,-3.3435,-3.2656,-3.215,-3.213,-3.213,-3.1758,0.0,0.0,-3.215,-3.215,-3.215,-3.2578,-3.3455,-3.4301,0.0,-3.4755,0.0,-3.5894,-3.578,-3.4909,-3.3999,-3.3126,-3.3126,-3.2623,-3.1826,-3.1818,-3.1276,-3.0518,-3.0427,-3.0404,-3.0288,-2.941,-2.9107,-2.8857,-2.7198,-2.664,-2.6774,-2.7621,-2.7309,-2.6612,-2.6612,-2.6058,-2.543,-2.543,-2.543,-2.541,-2.5391,-2.5391,-2.5391,-2.5391,-2.5391,-2.5642,-2.651,-2.6684,-2.7171,-2.8712,-2.8838,-2.893,-2.9593,0.0,0.0,0.0,-2.7408,-2.6907,-2.6888,-2.8225,-2.8189,-2.5752,-2.9067,-3.0387,-2.8007,0.0,0.0,0.0,0.0,0.0,-3.0539,-2.9386,0.0,-2.7683,-2.543,-2.386,-2.2981,-2.2249,-2.1869,-2.1763,-2.0276,-1.882,-1.7503,-1.7503,-1.7503,-1.7503,-1.7503,-1.7503,-1.7503,-1.7503,-1.7455,-1.7411,-1.7479,-1.7455,-1.751,-3.8567,-3.8039,-3.7317,-3.6774,-3.6474,-3.5823,-3.4382,-3.3996,-3.3803,-3.368,-3.2944,-3.2666,-3.3278,-3.3905,-3.3807,0.0,-3.2796,-3.2739,0.0,-3.1587,-3.1665,-3.2537,-3.2265,-3.2383,-3.2968,-3.2988,-3.3123,-3.3396,0.0,0.0,0.0,-3.3973,-3.4043,-3.4003,-3.3691,-3.3379,-3.3068,-3.2469,-3.2043,-3.1748,-3.1142,-3.0755,-3.0499,-3.0427,-3.0019,-2.9486,-2.9204,-2.8376,-2.7313,-2.6774,-2.6212,-2.5769,-2.6038,-2.5947,-2.5702,-2.5702,-2.5553,-2.5407,-2.5407,-2.5397,-2.541,-2.541,-2.541,-2.541,-2.541,-2.541,-2.5487,-2.5758,-2.5741,-2.6008,-2.7108,-2.7022,-2.7056,-2.7869,-2.7586,0.0,-2.6535,-2.6238,-2.5838,-2.519,-2.603,-2.6138,-2.4744,-2.7743,-2.9445,-2.8675,0.0,0.0,0.0,0.0,0.0,0.0,-2.9345,0.0,-2.77,-2.538,-2.3859,-2.3123,-2.231,-2.1603,-2.1017,-2.0045,-1.9085,-1.817,-1.7702,-1.7503,-1.7503,-1.7503,-1.7503,-1.7503,-1.7503,-1.7455,-1.7395,-1.7419,-1.8008,-1.8795,-3.5879,-3.5587,-3.5114,-3.4642,-3.4565,-3.4112,-3.2798,-3.2607,-3.2551,-3.2349,-3.1867,-3.1576,-3.1619,-3.2578,0.0,-3.1719,-3.2113,-3.2191,-3.1641,-3.1137,-3.1332,-3.2381,-3.1895,-3.1875,-3.2401,-3.2412,0.0,-3.2416,-3.2734,-3.2863,-3.2828,-3.2758,-3.2698,-3.2668,-3.2314,-3.2159,-3.2121,-3.1579,-3.1347,-3.1308,-3.0737,-3.0292,-2.9997,-2.9932,-2.939,-2.8607,-2.828,-2.7486,-2.6544,-2.6212,-2.575,-2.5308,-2.5308,-2.5308,-2.5308,-2.5308,-2.5322,-2.5361,-2.5361,-2.537,-2.536,-2.536,-2.536,-2.536,-2.536,-2.536,-2.536,-2.536,-2.5259,-2.5417,-2.6205,-2.6093,-2.6153,-2.6954,-2.672,-2.6275,-2.5782,-2.5421,-2.5106,-2.4829,-2.5484,-2.5629,0.0,-2.7291,-2.8491,0.0,0.0,0.0,0.0,0.0,0.0,-3.1094,-2.9191,0.0,-2.7332,-2.5327,-2.4086,-2.3649,-2.2473,-2.1337,-2.0274,-1.9813,-1.9068,-1.8104,-1.7685,-1.7503,-1.7503,-1.7503,-1.7503,-1.7519,-1.7748,-1.7786,-1.7773,-1.8053,-1.867,-1.9416,-3.2704,-3.2767,-3.2833,0.0,-3.2923,0.0,-3.1926,-3.187,-3.1617,-3.081,-3.0765,-3.08,-3.08,-3.08,-3.0781,-3.0722,0.0,0.0,0.0,-3.08,-3.0781,-3.0722,-3.0722,-3.0683,-3.0625,-3.0624,-3.0643,-3.07,-3.1517,-3.1878,-3.1803,-3.1809,-3.1779,-3.1676,-3.0868,-3.0501,-3.0501,-3.0443,-3.0424,-3.04,-3.0351,-2.9829,-2.911,-2.9033,-2.8511,-2.7698,-2.689,-2.6563,-2.639,-2.5577,-2.5308,-2.5308,-2.5308,-2.5308,-2.5308,-2.5308,-2.5308,-2.5308,-2.5308,-2.5308,-2.5308,-2.5308,-2.5308,-2.5308,-2.5308,-2.5284,-2.5298,-2.5298,-2.5171,-2.5266,-2.5899,-2.5894,-2.6014,-2.6637,-2.6108,-2.5606,-2.5606,-2.4902,-2.469,-2.5504,0.0,0.0,-2.5573,-2.757,-2.7703,0.0,0.0,0.0,0.0,0.0,-3.2808,-2.9046,-2.8925,-2.8197,-2.6708,-2.5235,-2.4409,-2.4215,-2.2653,-2.1154,-1.975,-1.97,-1.8952,-1.7718,-1.7602,-1.7602,-1.7635,-1.7586,-1.7602,-1.769,-1.8251,-1.8434,-1.8461,-1.9149,-1.9388,-1.9465,0.0,0.0,-3.2022,-3.2141,-3.2167,-3.1887,-3.1106,-3.0991,-3.0953,-3.0807,-3.0796,-3.08,-3.08,-3.08,-3.0548,-2.9944,-3.045,-3.08,-3.08,-3.08,-3.0528,-2.9905,-2.9885,-2.9572,-2.8908,-2.8846,-2.9116,-2.9734,-3.0543,-3.0924,-3.0911,-3.0909,-3.0901,-3.0849,-2.9998,-2.9611,-2.9553,-2.89,-2.8629,-2.8606,-2.8536,-2.8401,-2.8198,-2.8186,-2.764,-2.689,-2.6678,-2.6173,-2.5577,-2.5365,-2.5308,-2.5308,-2.5308,-2.5308,-2.5308,-2.5308,-2.5308,-2.5308,-2.5308,-2.5308,-2.5308,-2.5308,-2.5308,-2.5308,-2.5308,-2.5228,-2.5149,-2.5149,-2.4968,-2.4843,-2.4994,-2.4909,-2.4877,-2.5047,-2.4864,-2.4699,-2.4699,-2.4496,-2.4617,0.0,-2.6227,-2.6362,-2.5505,-2.7045,-2.8026,0.0,0.0,0.0,-3.0247,-3.1297,-3.0734,-2.8163,-2.8077,-2.7638,-2.6708,-2.5235,-2.3855,-2.2561,-2.2166,-2.1728,-2.1251,-2.0688,-2.0271,-1.9873,-1.875,-1.8588,-1.9068,-1.8489,-1.8588,-1.9118,-1.9257,-1.9243,-1.9165,-1.9345,-1.9672,-2.0046,-3.0995,-3.1154,-3.1228,-3.1323,-3.1358,-3.1204,-3.081,-3.0757,-3.0764,-3.0799,-3.0489,-3.0255,-3.0255,-2.9904,-2.9474,-2.9045,-2.9767,-3.0079,-2.9688,-2.9668,-2.9456,-2.9028,-2.8977,-2.8747,-2.8259,-2.8194,-2.8345,-2.876,-2.9204,-2.9408,-2.942,-2.9406,-2.9399,-2.9384,-2.8919,-2.8707,-2.8668,-2.8204,-2.8002,-2.7989,-2.7933,-2.7658,-2.7321,-2.7314,-2.6755,-2.6,-2.6,-2.5692,-2.5308,-2.5308,-2.5308,-2.5308,-2.5308,-2.5308,-2.5308,-2.5308,-2.5308,-2.5308,-2.5308,-2.5308,-2.5308,-2.5308,-2.5308,-2.5308,-2.5308,-2.5206,-2.509,-2.509,-2.4888,-2.47,-2.47,-2.459,-2.4491,-2.4456,-2.4717,-2.4931,-2.4912,-2.5189,-2.5408,-2.5491,-2.6178,-2.6185,-2.497,-2.63,-2.7218,-2.7125,-2.8027,0.0,-2.9006,-2.9177,-2.8817,-2.7841,-2.7807,-2.7435,-2.6725,-2.5235,-2.3654,-2.2013,-2.2013,-2.1742,-2.1282,-2.0884,-2.0519,-2.0158,-1.9349,-1.9051,-1.9088,-1.9022,-1.9051,-1.9154,-1.9764,-1.9972,-1.9921,-2.0176,-2.0372,-2.0511,-3.0438,-3.0542,-3.0632,-3.0706,-3.072,-3.0732,-3.0798,-3.0703,-3.0626,-3.0626,-2.9904,-2.9397,-2.9397,-2.8732,-2.8244,-2.8127,-2.8773,-2.8949,-2.8343,-2.8287,-2.8232,-2.8099,-2.8027,-2.7947,-2.7807,-2.7866,-2.7864,-2.7797,-2.7933,-2.7991,-2.7991,-2.7991,-2.7991,-2.7991,-2.7855,-2.7797,-2.7797,-2.7662,-2.7626,-2.7599,-2.7561,-2.7075,-2.6415,-2.64,-2.5942,-2.5308,-2.5308,-2.5308,-2.5308,-2.5308,-2.5308,-2.5308,-2.5308,-2.5298,-2.5264,-2.5264,-2.5253,-2.5248,-2.5298,-2.5308,-2.5308,-2.5308,-2.5308,-2.5284,-2.5269,-2.5165,-2.5055,-2.5037,-2.4832,-2.4653,-2.4653,-2.4557,-2.4493,-2.457,-2.5144,-2.5606,-2.5678,0.0,-2.6289,-2.5729,-2.6111,-2.5878,-2.4502,-2.5621,-2.5993,-2.4986,-2.6027,-2.6517,-2.6072,-2.6536,-2.6971,-2.73,-2.7519,-2.7232,-2.6386,-2.5015,-2.3553,-2.2013,-2.2013,-2.1592,-2.0868,-2.0868,-2.0522,-1.9929,-1.9813,-1.9465,-1.9035,-1.9419,-1.9353,-1.9078,-2.0047,-2.0482,-2.0603,-2.0988,-2.0958,-2.0696,-3.0635,-3.0664,-3.0709,-3.077,-3.0776,-3.0796,-3.08,-3.0216,-2.9788,-2.9788,-2.9045,-2.8498,-2.8498,-2.8381,-2.7991,-2.7269,-2.7332,-2.7665,-2.8269,-2.826,-2.7891,-2.7148,-2.7117,-2.6753,-2.6029,-2.6656,-2.6961,-2.6899,-2.7638,-2.7991,-2.7991,-2.7991,-2.7991,-2.7972,-2.7232,-2.6899,-2.6861,-2.6184,-2.5866,-2.5803,-2.5786,-2.5706,-2.5586,-2.5515,-2.5423,-2.5308,-2.5308,-2.5308,-2.5308,-2.5308,-2.5308,-2.5308,-2.5308,-2.5228,-2.5138,-2.5138,-2.5062,-2.5019,-2.5238,-2.5308,-2.5308,-2.5308,-2.5308,-2.5264,-2.516,-2.5037,-2.4902,-2.4787,-2.4596,-2.4456,-2.4456,-2.4384,-2.4561,-2.5217,-2.5419,-2.574,-2.642,0.0,-2.5807,-2.6366,-2.5925,-2.5485,-2.5246,-2.5429,-2.5429,-2.5001,-2.4933,-2.5052,-2.5342,-2.5124,-2.5004,-2.5015,-2.6218,-2.6218,-2.4846,-2.4,-2.3032,-2.2013,-2.2013,-2.1876,-2.163,-2.163,-2.158,-2.1416,-2.0801,-2.0818,-2.1201,-2.0061,-2.0235,-2.1119,-2.0366,-2.038,-2.0815,-2.0551,-2.0381,-2.0243,-3.0609,-3.0726,-3.0638,-3.0212,-3.0157,-3.0001,-2.9533,-2.9142,-2.8908,-2.8908,-2.8147,-2.7601,-2.7601,-2.7173,-2.6745,-2.6335,-2.6306,-2.6465,-2.6875,-2.6874,-2.6656,-2.621,-2.616,-2.5967,-2.556,-2.591,-2.6079,-2.6048,-2.6459,-2.6652,-2.6652,-2.6652,-2.6652,-2.6633,-2.6223,-2.6048,-2.6029,-2.5662,-2.5452,-2.5404,-2.5395,-2.5388,-2.5346,-2.5313,-2.5308,-2.5308,-2.5308,-2.5308,-2.5298,-2.5222,-2.5187,-2.5176,-2.5109,-2.505,-2.4981,-2.4981,-2.4955,-2.4935,-2.5056,-2.5086,-2.5086,-2.5086,-2.5086,-2.5074,-2.5019,-2.4888,-2.4753,-2.4673,-2.4513,-2.4394,-2.4348,-2.433,-2.4414,-2.4754,-2.5564,0.0,0.0,-2.7045,-2.7163,-2.6657,-2.6264,-2.5654,-2.4644,-2.4522,-2.4487,-2.4497,-2.4315,-2.4386,-2.4856,-2.4673,-2.4521,-2.4491,-2.5168,-2.4983,-2.3872,-2.3519,-2.2872,-2.194,-2.194,-2.1882,-2.1812,-2.1812,-2.1812,-2.1779,-2.1448,-2.1236,-2.1094,-2.0419,-2.0176,-2.0218,-1.9979,-1.9956,-2.0096,-2.0207,-2.0104,-1.9925,-2.9995,-3.016,-3.0027,-2.9414,-2.93,-2.9064,-2.8401,-2.8127,-2.7991,-2.7991,-2.725,-2.6703,-2.6703,-2.6102,-2.5695,-2.5679,-2.5683,-2.5695,-2.566,-2.5644,-2.5636,-2.558,-2.5529,-2.5506,-2.5492,-2.5507,-2.5507,-2.5507,-2.5507,-2.5507,-2.5507,-2.5507,-2.5507,-2.5507,-2.5507,-2.5488,-2.5484,-2.5484,-2.544,-2.5402,-2.5402,-2.5341,-2.5253,-2.5253,-2.5238,-2.5212,-2.5212,-2.5212,-2.5182,-2.5097,-2.5049,-2.505,-2.4942,-2.4881,-2.4847,-2.4821,-2.4804,-2.479,-2.4849,-2.4888,-2.4881,-2.4881,-2.4888,-2.4862,-2.4814,-2.4738,-2.465,-2.4543,-2.4445,-2.4339,-2.4284,-2.4284,-2.4321,-2.4449,0.0,0.0,0.0,-2.749,-2.768,-2.6423,-2.6112,-2.5406,-2.3893,-2.3703,-2.3723,-2.3807,-2.3701,-2.377,-2.4069,-2.4013,-2.4,-2.4,-2.4152,-2.3938,-2.3306,-2.3123,-2.2662,-2.1913,-2.1913,-2.1869,-2.1812,-2.1812,-2.1812,-2.1812,-2.1766,-2.1439,-2.085,-2.0584,-1.9989,-1.9276,-1.9499,-1.9358,-1.9086,-1.9712,-1.9695,-1.9355,-2.8374,-2.8448,-2.8478,-2.842,-2.8401,-2.8362,-2.8303,-2.7601,-2.7094,-2.7094,-2.6333,-2.5805,-2.5805,-2.573,-2.5679,-2.5605,-2.566,-2.5658,-2.5522,-2.5507,-2.5515,-2.551,-2.5505,-2.5496,-2.5507,-2.5507,-2.5507,-2.5507,-2.5507,-2.5507,-2.5507,-2.5507,-2.5507,-2.5507,-2.5507,-2.548,-2.5401,-2.5401,-2.54,-2.5398,-2.5398,-2.5288,-2.5101,-2.5101,-2.505,-2.4935,-2.4935,-2.4935,-2.4935,-2.4922,-2.4903,-2.4915,-2.4908,-2.4804,-2.4696,-2.4639,-2.4485,-2.4418,-2.473,-2.4814,-2.4811,-2.4811,-2.4814,-2.4766,-2.4578,-2.4572,-2.4551,-2.4366,-2.4257,-2.421,-2.421,-2.4209,-2.4438,-2.5201,0.0,0.0,-2.642,-2.5981,-2.5502,-2.5319,-2.4644,-2.4034,-2.3649,-2.3599,-2.3445,-2.303,-2.285,-2.272,-2.2572,-2.2491,-2.2448,-2.2448,-2.3122,-2.3414,-2.3306,-2.2618,-2.2144,-2.1913,-2.1913,-2.1869,-2.1812,-2.1812,-2.1812,-2.1797,-2.1723,-2.1705,-2.1635,-2.0576,-2.0089,-1.9935,-1.9161,-1.8465,-1.802,-1.8873,-1.8812,-1.8382,-2.8862,-2.8651,-2.8127,-2.7582,-2.7484,-2.7309,-2.6761,-2.641,-2.6196,-2.6196,-2.5905,-2.5675,-2.5643,-2.5684,-2.5661,-2.5605,-2.5595,-2.5556,-2.5493,-2.5506,-2.5498,-2.5498,-2.5507,-2.5507,-2.5507,-2.5507,-2.5507,-2.5507,-2.5507,-2.5507,-2.5507,-2.5507,-2.5507,-2.5507,-2.5456,-2.5429,-2.5397,-2.5303,-2.5249,-2.5214,-2.5118,-2.5043,-2.4987,-2.4987,-2.4936,-2.4902,-2.4902,-2.4902,-2.4888,-2.4768,-2.4738,-2.4757,-2.4626,-2.4555,-2.4507,-2.4426,-2.433,-2.4155,-2.3783,-2.371,-2.3755,-2.3755,-2.3372,-2.3103,-2.3535,-2.3657,-2.378,-2.4165,-2.421,-2.4192,-2.42,-2.4199,-2.4135,-2.3933,0.0,-2.5269,-2.5037,-2.5573,-2.5736,-2.5023,-2.4686,-2.4152,-2.3242,-2.3087,-2.2933,-2.2615,-2.2508,-2.2412,-2.2352,-2.2268,-2.2194,-2.2118,-2.2401,-2.2521,-2.2492,-2.2209,-2.2003,-2.184,-2.184,-2.1825,-2.1812,-2.1812,-2.1812,-2.1797,-2.1723,-2.1694,-2.1583,-2.0394,-1.9544,-1.892,-1.8289,-1.7794,-1.7518,-1.8269,-1.8637,-1.8796,-2.8148,-2.7893,-2.7308,-2.6703,-2.6586,-2.6391,-2.5785,-2.5708,-2.5709,-2.5709,-2.5697,-2.5683,-2.5643,-2.5654,-2.5634,-2.558,-2.5534,-2.5492,-2.5493,-2.5503,-2.5507,-2.5507,-2.5507,-2.5507,-2.5507,-2.5507,-2.5507,-2.5507,-2.5507,-2.5507,-2.5507,-2.5507,-2.5488,-2.546,-2.5376,-2.533,-2.5307,-2.5163,-2.5084,-2.503,-2.4936,-2.4876,-2.4832,-2.4832,-2.4804,-2.4768,-2.4768,-2.4753,-2.4716,-2.4575,-2.4553,-2.4555,-2.4411,-2.4348,-2.4275,-2.3971,-2.4036,-2.3962,-2.2913,-2.2663,-2.2689,-2.2689,-2.2273,-2.2015,-2.256,-2.2697,-2.291,-2.3676,-2.3833,-2.3897,-2.4144,-2.3978,-2.3694,-2.3391,-2.4003,-2.4365,-2.3963,-2.4813,-2.5192,-2.4372,-2.4265,-2.3886,-2.2936,-2.2747,-2.2607,-2.2377,-2.2324,-2.2282,-2.2268,-2.2197,-2.2106,-2.2013,-2.2013,-2.194,-2.1823,-2.1926,-2.1897,-2.1812,-2.1812,-2.1812,-2.1812,-2.1812,-2.1797,-2.1753,-2.1555,-2.1448,-2.1323,-2.0257,-1.9277,-1.8451,-1.8223,-1.7756,-1.7301,-1.8172,-1.8622,-1.8854,-2.5707,-2.5707,-2.5707,-2.5707,-2.5707,-2.5707,-2.5707,-2.5691,-2.5694,-2.5694,-2.5703,-2.57,-2.57,-2.564,-2.5578,-2.5507,-2.551,-2.5493,-2.5496,-2.5507,-2.5507,-2.5507,-2.5507,-2.5507,-2.5507,-2.5507,-2.5507,-2.5507,-2.5507,-2.5507,-2.5507,-2.5507,-2.5456,-2.5393,-2.5255,-2.5159,-2.5086,-2.4949,-2.4891,-2.4902,-2.4902,-2.483,-2.47,-2.47,-2.4623,-2.45,-2.45,-2.4456,-2.4403,-2.4403,-2.4348,-2.4294,-2.4294,-2.4257,-2.4035,-2.3244,-2.3575,-2.3841,-2.2235,-2.1794,-2.1794,-2.1794,-2.1792,-2.1772,-2.1784,-2.1792,-2.2029,-2.2832,-2.3006,-2.3244,-2.4043,-2.3501,-2.3152,-2.3947,-2.336,-2.296,-2.3418,-2.3482,-2.3398,-2.3128,-2.3109,-2.2985,-2.2725,-2.2699,-2.2596,-2.2324,-2.2296,-2.2268,-2.2214,-2.2075,-2.2013,-2.2013,-2.1998,-2.1809,-2.1402,-2.172,-2.1869,-2.1797,-2.1797,-2.1797,-2.1797,-2.1781,-2.1753,-2.1679,-2.1214,-2.0991,-2.0926,-2.0124,-1.9396,-1.8835,-1.9169,-1.8439,-1.7359,-1.8637,-1.8724,-1.8285,-2.6489,-2.6117,-2.5707,-2.5707,-2.5707,-2.5708,-2.5691,-2.5661,-2.5644,-2.5683,-2.5653,-2.5606,-2.5561,-2.5532,-2.551,-2.5501,-2.551,-2.5495,-2.5492,-2.5507,-2.5507,-2.5507,-2.5507,-2.5507,-2.5507,-2.5507,-2.5507,-2.5507,-2.5408,-2.535,-2.5289,-2.5239,-2.5182,-2.5126,-2.503,-2.4974,-2.4943,-2.4814,-2.4764,-2.4749,-2.466,-2.4607,-2.4557,-2.4557,-2.4517,-2.443,-2.443,-2.4394,-2.433,-2.4275,-2.4275,-2.4284,-2.4229,-2.421,-2.4155,-2.3915,-2.3612,-2.3125,-2.2088,-2.1345,-2.0878,-2.0878,-2.0454,-2.0194,-2.0758,-2.1362,-2.2032,-2.2832,-2.34,-2.3839,-2.4086,-2.3735,-2.3113,-2.2274,-2.2639,-2.2676,-2.1742,-2.254,-2.3128,-2.285,-2.2825,-2.2915,-2.3161,-2.2725,-2.2598,-2.3038,-2.2558,-2.218,-2.2075,-2.1986,-2.1897,-2.1855,-2.1631,-2.1448,-2.1324,-2.1706,-2.1751,-2.1449,-2.1449,-2.1449,-2.1433,-2.1103,-2.0958,-2.091,-2.0632,-2.0516,-2.0466,-1.9962,-1.9324,-1.8721,-1.859,-1.8263,-1.7954,-1.8332,-1.8622,-1.885,-2.6372,-2.606,-2.571,-2.571,-2.5692,-2.5696,-2.5701,-2.5664,-2.564,-2.565,-2.5597,-2.5552,-2.5499,-2.5502,-2.5501,-2.5496,-2.5507,-2.5507,-2.5507,-2.5507,-2.5507,-2.5507,-2.5448,-2.5444,-2.5507,-2.5507,-2.548,-2.5417,-2.5317,-2.523,-2.5163,-2.5084,-2.5018,-2.4955,-2.4857,-2.4816,-2.4814,-2.4673,-2.4613,-2.4604,-2.4524,-2.45,-2.45,-2.4474,-2.4438,-2.4403,-2.4358,-2.4321,-2.4257,-2.421,-2.4229,-2.4257,-2.4201,-2.4191,-2.4081,-2.3428,-2.3125,-2.2676,-2.1206,-2.0666,-2.0419,-2.0107,-1.9656,-1.9426,-1.9913,-2.0427,-2.1016,-2.1753,-2.2245,-2.2617,-2.2829,-2.243,-2.1864,-2.123,-2.1735,-2.1943,-2.1231,-2.2162,-2.285,-2.2565,-2.2542,-2.2777,-2.334,-2.2719,-2.2482,-2.2893,-2.2433,-2.2061,-2.1969,-2.1899,-2.1781,-2.1617,-2.1402,-2.1167,-2.0861,-2.1261,-2.134,-2.1103,-2.1103,-2.1071,-2.1007,-2.073,-2.0548,-2.0481,-2.021,-2.0089,-2.0035,-1.9639,-1.9217,-1.8794,-1.86,-1.8473,-1.8454,-1.8454,-1.8671,-1.8969,-2.5707,-2.5691,-2.5694,-2.5694,-2.5698,-2.5703,-2.5701,-2.5694,-2.5661,-2.5593,-2.5539,-2.5492,-2.5492,-2.5494,-2.5507,-2.5507,-2.543,-2.5372,-2.5372,-2.5318,-2.5256,-2.5252,-2.5136,-2.5127,-2.524,-2.539,-2.54,-2.5283,-2.5196,-2.5122,-2.5061,-2.5,-2.4923,-2.4864,-2.4741,-2.4678,-2.4676,-2.4549,-2.45,-2.45,-2.4491,-2.4491,-2.4482,-2.4421,-2.4394,-2.4367,-2.4303,-2.4257,-2.4192,-2.4192,-2.4209,-2.419,-2.4116,-2.408,-2.3786,-2.2253,-2.2263,-2.2272,-2.0023,-1.9879,-2.0185,-1.9442,-1.9251,-1.9232,-1.9182,-1.9274,-1.9504,-1.9966,-2.0165,-2.0406,-2.0899,-2.0321,-1.9991,-2.0735,-2.0842,-2.101,-2.1495,-2.2203,-2.2565,-2.2338,-2.2296,-2.2584,-2.3325,-2.2786,-2.2355,-2.2284,-2.2161,-2.2055,-2.1953,-2.1895,-2.165,-2.1181,-2.1182,-2.0861,-2.0114,-2.0497,-2.0712,-2.0745,-2.0745,-2.0663,-2.0531,-2.0513,-2.0396,-2.0195,-1.9877,-1.9696,-1.9617,-1.925,-1.9074,-1.8993,-1.8993,-1.8908,-1.8803,-1.8803,-1.8803,-1.8784,-2.5707,-2.5691,-2.5694,-2.5694,-2.5702,-2.5701,-2.5696,-2.5602,-2.553,-2.5529,-2.5506,-2.5495,-2.5495,-2.5499,-2.5507,-2.5507,-2.4873,-2.4486,-2.4486,-2.3848,-2.3442,-2.3396,-2.3315,-2.3256,-2.3223,-2.4507,-2.5176,-2.5141,-2.4962,-2.4845,-2.4792,-2.4727,-2.4653,-2.4588,-2.4566,-2.4541,-2.4532,-2.4517,-2.45,-2.45,-2.4447,-2.4421,-2.4421,-2.4348,-2.4284,-2.4229,-2.422,-2.421,-2.4209,-2.4209,-2.4199,-2.408,-2.3456,-2.3263,-2.307,-2.2088,-2.1437,-2.0924,-2.0395,-1.9785,-1.9278,-1.9035,-1.8878,-1.8664,-1.8294,-1.9145,-1.9821,-1.9156,-1.9946,-2.0773,-2.0909,-2.0547,-2.0321,-2.0477,-2.0857,-2.1144,-2.1262,-2.1915,-2.2366,-2.231,-2.2296,-2.2569,-2.3268,-2.3141,-2.2981,-2.2901,-2.2825,-2.2656,-2.2391,-2.2312,-2.1616,-2.0177,-2.0331,-2.008,-1.9354,-1.9682,-1.9975,-2.0256,-2.0256,-2.0189,-2.0039,-1.9732,-1.9563,-1.9512,-1.9328,-1.9236,-1.9232,-1.9093,-1.8998,-1.8993,-1.8889,-1.8836,-1.8803,-1.8803,-1.8803,-1.8784,-2.569,-2.5696,-2.57,-2.5703,-2.5701,-2.5688,-2.5618,-2.5552,-2.5498,-2.5499,-2.5495,-2.5507,-2.5507,-2.5507,-2.5325,-2.4876,-2.4041,-2.3527,-2.348,-2.3039,-2.2744,-2.2704,-2.2603,-2.2541,-2.2503,-2.3265,-2.3904,-2.4378,-2.4633,-2.4719,-2.4657,-2.4572,-2.4524,-2.4481,-2.4063,-2.4119,-2.4462,-2.4063,-2.4102,-2.4447,-2.4412,-2.4153,-2.3766,-2.3721,-2.3427,-2.3069,-2.306,-2.3061,-2.3061,-2.3061,-2.3061,-2.2987,-2.2556,-2.2428,-2.2263,-2.1428,-2.0784,-2.0269,-1.9844,-1.9272,-1.8798,-1.8762,-1.8679,-1.8429,-1.7839,-1.8331,-1.8825,-1.8512,-1.8803,-1.9258,-1.984,-1.9522,-1.9275,-1.9634,-2.0191,-2.0702,-2.1056,-2.172,-2.2147,-2.2147,-2.2147,-2.2284,-2.2641,-2.3284,-2.3506,-2.3076,-2.3347,-2.3207,-2.2492,-2.2427,-2.1665,-2.003,-2.0381,-2.0185,-1.9353,-2.0042,-2.0332,-2.0139,-1.9894,-1.9711,-1.9609,-1.9398,-1.9265,-1.9195,-1.912,-1.9078,-1.9055,-1.8998,-1.8936,-1.886,-1.8774,-1.8702,-1.8644,-1.8644,-1.8644,-1.8606,-2.548,-2.5603,-2.5703,-2.5696,-2.5568,-2.5425,-2.5304,-2.5165,-2.5118,-2.5267,-2.5143,-2.5105,-2.526,-2.5132,-2.4721,-2.3934,-2.3054,-2.2524,-2.2465,-2.2273,-2.2167,-2.2147,-2.2017,-2.1953,-2.1935,-2.1908,-2.237,-2.3333,-2.3952,-2.4211,-2.4145,-2.4097,-2.4063,-2.4045,-2.3306,-2.3388,-2.4026,-2.3287,-2.3365,-2.3968,-2.3959,-2.3517,-2.2872,-2.2784,-2.2326,-2.1739,-2.1715,-2.1697,-2.1697,-2.1697,-2.1697,-2.167,-2.1524,-2.1487,-2.1305,-2.0422,-2.0064,-1.9759,-1.904,-1.8671,-1.8528,-1.8518,-1.8577,-1.8469,-1.7716,-1.7682,-1.7865,-1.8094,-1.7759,-1.7669,-1.8551,-1.8307,-1.8211,-1.8954,-1.9622,-2.029,-2.0908,-2.1488,-2.1828,-2.1828,-2.1931,-2.2034,-2.2168,-2.3275,-2.378,-2.3287,-2.3818,-2.3704,-2.2616,-2.2533,-2.181,-2.0301,-2.0771,-2.0628,-1.9716,-2.0754,-2.0964,-2.0323,-1.9888,-1.9644,-1.9587,-1.9485,-1.937,-1.9242,-1.914,-1.904,-1.896,-1.8955,-1.886,-1.8692,-1.8673,-1.8595,-1.8498,-1.842,-1.8386,-1.8307,-2.4586,-2.5175,-2.5696,-2.5694,-2.5028,-2.4479,-2.4463,-2.3773,-2.3514,-2.4273,-2.3712,-2.3538,-2.4292,-2.3647,-2.3093,-2.2915,-2.2095,-2.1559,-2.1493,-2.0838,-2.0398,-2.027,-2.0185,-2.012,-2.0075,-2.0665,-2.141,-2.2304,-2.2331,-2.2362,-2.2349,-2.2333,-2.2343,-2.2325,-2.2154,-2.2173,-2.2325,-2.2154,-2.2148,-2.2233,-2.2172,-2.2082,-2.1964,-2.1762,-2.1652,-2.1515,-2.1345,-2.1269,-2.1269,-2.1269,-2.1269,-2.1151,-2.0384,-2.0168,-1.9988,-1.9117,-1.8839,-1.8784,-1.8604,-1.8413,-1.8249,-1.8173,-1.8531,-1.8665,-1.7922,-1.8426,-1.8845,-1.8085,-1.8314,-1.85,-1.8031,-1.8345,-1.8915,-1.9643,-2.033,-2.0826,-2.0974,-2.1075,-2.1142,-2.1142,-2.1604,-2.2147,-2.2797,-2.3002,-2.3423,-2.4234,-2.4395,-2.4056,-2.3231,-2.308,-2.2205,-2.0512,-2.0991,-2.0887,-2.0138,-2.0845,-2.1111,-2.0892,-2.0826,-2.0782,-2.0747,-2.0224,-1.9923,-1.9767,-1.9248,-1.8941,-1.8817,-1.8755,-1.8711,-1.8692,-1.8576,-1.8517,-1.8459,-1.8042,-1.7902,-1.7841,-2.5039,-2.5035,-2.51,-2.5512,-2.4477,-2.3734,-2.4177,-2.3485,-2.3039,-2.3422,-2.3136,-2.3058,-2.3422,-2.2636,-2.2019,-2.1924,-2.111,-2.0584,-2.0522,-2.0123,-1.9854,-1.9794,-1.9713,-1.9673,-1.9645,-1.9957,-2.031,-2.0655,-2.1558,-2.1991,-2.2001,-2.1959,-2.1943,-2.1924,-2.1446,-2.1501,-2.1906,-2.1303,-2.1291,-2.1669,-2.1516,-2.1198,-2.0789,-2.0706,-2.0371,-1.9983,-1.9891,-1.9863,-1.9853,-1.9825,-1.9805,-1.9724,-1.9301,-1.9175,-1.9095,-1.8673,-1.8452,-1.8448,-1.8805,-1.8446,-1.8073,-1.8455,-1.8721,-1.8915,-1.8957,-1.9629,-2.0037,-1.9239,-1.864,-1.856,-1.9424,-1.9163,-1.916,-2.0284,-2.0331,-2.0391,-2.0825,-2.0847,-2.1149,-2.1967,-2.2304,-2.2754,-2.3485,-2.3687,-2.3992,-2.4452,-2.4564,-2.4197,-2.3236,-2.3065,-2.2345,-2.0986,-2.1454,-2.1436,-2.0766,-2.1697,-2.1938,-2.1554,-2.1867,-2.165,-2.0988,-2.0651,-2.046,-2.039,-2.0085,-1.9689,-1.9228,-1.9203,-1.8965,-1.8556,-1.8234,-1.7975,-1.7754,-1.7537,-1.7455,-1.7393]},{"header":{"parameterUnit":"m.s-1","parameterCategory":1,"la1":30.6,"la2":28.766,"lo1":-90.7593,"lo2":-88.6598,"dy":0.0162,"dx":0.0183,"nx":116,"ny":114,"refTime":"2023-07-17T12:00:00:Z","depth":0,"parameterNumber":3,"parameterNumberName":"V-component_of_WINDS"},"data":[0.0,0.0,0.0,0.0,0.0,0.0,0.0,0.0,0.0,0.0,0.0,0.0,0.0,0.0,0.0,0.0,0.0,0.0,0.0,0.0,0.0,0.0,0.0,0.0,0.0,0.0,0.0,0.0,0.0,0.0,0.0,0.0,0.0,0.0,0.0,0.0,0.0,0.0,0.0,0.0,0.0,0.0,0.0,0.0,0.0,0.0,0.0,0.0,0.0,0.0,0.0,0.0,0.0,0.0,0.0,0.0,0.0,0.0,0.0,0.0,0.0,0.0,0.0,0.0,0.0,0.0,0.0,0.0,0.0,0.0,0.0,0.0,0.0,0.0,0.0,0.0,0.0,0.0,0.0,0.0,0.0,0.0,0.0,0.0,0.0,0.0,0.0,0.0,0.0,0.0,0.0,0.0,0.0,0.0,0.0,0.0,0.0,0.0,0.0,0.0,0.0,0.0,0.0,0.0,0.0,0.0,0.0,0.0,0.0,0.0,0.0,0.0,0.0,0.0,0.0,0.0,0.0,0.0,0.0,0.0,0.0,0.0,0.0,0.0,0.0,0.0,0.0,0.0,0.0,0.0,0.0,0.0,0.0,0.0,0.0,0.0,0.0,0.0,0.0,0.0,0.0,0.0,0.0,0.0,0.0,0.0,0.0,0.0,0.0,0.0,0.0,0.0,0.0,0.0,0.0,0.0,0.0,0.0,0.0,0.0,0.0,0.0,0.0,0.0,0.0,0.0,0.0,0.0,0.0,0.0,0.0,0.0,0.0,0.0,0.0,0.0,0.0,0.0,0.0,0.0,0.0,0.0,0.0,0.0,0.0,0.0,0.0,0.0,0.0,0.0,0.0,0.0,0.0,0.0,0.0,0.0,0.0,0.0,0.0,0.0,0.0,0.0,0.0,0.0,0.0,0.0,0.0,0.0,0.0,0.0,0.0,0.0,0.0,0.0,0.0,0.0,0.0,0.0,0.0,0.0,0.0,0.0,0.0,0.0,0.0,0.0,0.0,0.0,0.0,0.0,0.0,0.0,0.0,0.0,0.0,0.0,0.0,0.0,0.0,0.0,0.0,0.0,0.0,0.0,0.0,0.0,0.0,0.0,0.0,0.0,0.0,0.0,0.0,0.0,0.0,0.0,0.0,0.0,0.0,0.0,0.0,0.0,0.0,0.0,0.0,0.0,0.0,0.0,0.0,0.0,0.0,0.0,0.0,0.0,0.0,0.0,0.0,0.0,0.0,0.0,0.0,0.0,0.0,0.0,0.0,0.0,0.0,0.0,0.0,0.0,0.0,0.0,0.0,0.0,0.0,0.0,0.0,0.0,0.0,0.0,0.0,0.0,0.0,0.0,0.0,0.0,0.0,0.0,0.0,0.0,0.0,0.0,0.0,0.0,0.0,0.0,0.0,0.0,0.0,0.0,0.0,0.0,0.0,0.0,0.0,0.0,0.0,0.0,0.0,0.0,0.0,0.0,0.0,0.0,0.0,0.0,0.0,0.0,0.0,0.0,0.0,0.0,0.0,0.0,0.0,0.0,0.0,0.0,0.0,0.0,0.0,0.0,0.0,0.0,0.0,0.0,0.0,0.0,0.0,0.0,0.0,0.0,0.0,0.0,0.0,0.0,0.0,0.0,0.0,0.0,0.0,0.0,0.0,0.0,0.0,0.0,0.0,0.0,0.0,0.0,0.0,0.0,0.0,0.0,0.0,0.0,0.0,0.0,0.0,0.0,0.0,0.0,0.0,0.0,0.0,0.0,0.0,0.0,0.0,0.0,0.0,0.0,0.0,0.0,0.0,0.0,0.0,0.0,0.0,0.0,0.0,0.0,0.0,0.0,0.0,0.0,0.0,0.0,0.0,0.0,0.0,0.0,0.0,0.0,0.0,0.0,0.0,0.0,0.0,0.0,0.0,0.0,0.0,0.0,0.0,0.0,0.0,0.0,0.0,0.0,0.0,0.0,0.0,0.0,0.0,0.0,0.0,0.0,0.0,0.0,0.0,0.0,0.0,0.0,0.0,0.0,0.0,0.0,0.0,0.0,0.0,0.0,0.0,0.0,0.0,0.0,0.0,0.0,0.0,0.0,0.0,0.0,0.0,0.0,0.0,0.0,0.0,0.0,0.0,0.0,0.0,0.0,0.0,0.0,0.0,0.0,0.0,0.0,0.0,0.0,0.0,0.0,0.0,0.0,0.0,0.0,0.0,0.0,0.0,0.0,0.0,0.0,0.0,0.0,0.0,0.0,0.0,0.0,0.0,0.0,0.0,0.0,0.0,0.0,0.0,0.0,0.0,0.0,0.0,0.0,0.0,0.0,0.0,0.0,0.0,0.0,0.0,0.0,0.0,0.0,0.0,0.0,0.0,0.0,0.0,0.0,0.0,0.0,0.0,0.0,0.0,0.0,0.0,0.0,0.0,0.0,0.0,0.0,0.0,0.0,0.0,0.0,0.0,0.0,0.0,0.0,0.0,0.0,0.0,0.0,0.0,0.0,0.0,0.0,0.0,0.0,0.0,0.0,0.0,0.0,0.0,0.0,0.0,0.0,0.0,0.0,0.0,0.0,0.0,0.0,0.0,0.0,0.0,0.0,0.0,0.0,0.0,0.0,0.0,0.0,0.0,0.0,0.0,0.0,0.0,0.0,0.0,0.0,0.0,0.0,0.0,0.0,0.0,0.0,0.0,0.0,0.0,0.0,0.0,0.0,0.0,0.0,0.0,0.0,0.0,0.0,0.0,0.0,0.0,0.0,0.0,0.0,0.0,0.0,0.0,0.0,0.0,0.0,0.0,0.0,0.0,0.0,0.0,0.0,0.0,0.0,0.0,0.0,0.0,0.0,0.0,0.0,0.0,0.0,0.0,0.0,0.0,0.0,0.0,0.0,0.0,0.0,0.0,0.0,0.0,0.0,0.0,0.0,0.0,0.0,0.0,0.0,0.0,0.0,0.0,0.0,0.0,0.0,0.0,0.0,0.0,0.0,0.0,0.0,0.0,0.0,0.0,0.0,0.0,0.0,0.0,0.0,0.0,0.0,0.0,0.0,0.0,0.0,0.0,0.0,0.0,0.0,0.0,0.0,0.0,0.0,0.0,0.0,0.0,0.0,0.0,0.0,0.0,0.0,0.0,0.0,0.0,0.0,0.0,0.0,0.0,0.0,0.0,0.0,0.0,0.0,0.0,0.0,0.0,0.0,0.0,0.0,0.0,0.0,0.0,0.0,0.0,0.0,0.0,0.0,0.0,0.0,0.0,0.0,0.0,0.0,0.0,0.0,0.0,0.0,0.0,0.0,0.0,0.0,0.0,0.0,0.0,0.0,0.0,0.0,0.0,0.0,0.0,0.0,0.0,0.0,0.0,0.0,0.0,0.0,0.0,0.0,0.0,0.0,0.0,0.0,0.0,0.0,0.0,0.0,0.0,0.0,0.0,0.0,0.0,0.0,0.0,0.0,0.0,0.0,0.0,0.0,0.0,0.0,0.0,0.0,0.0,0.0,0.0,0.0,0.0,0.0,0.0,0.0,0.0,0.0,0.0,0.0,0.0,0.0,0.0,0.0,0.0,0.0,0.0,0.0,0.0,0.0,0.0,0.0,0.0,0.0,0.0,0.0,0.0,0.0,0.0,0.0,0.0,0.0,0.0,0.0,0.0,0.0,0.0,0.0,0.0,0.0,0.0,0.0,0.0,0.0,0.0,0.0,0.0,0.0,0.0,0.0,0.0,0.0,0.0,0.0,0.0,0.0,0.0,0.0,0.0,0.0,0.0,0.0,0.0,0.0,0.0,0.0,0.0,0.0,0.0,0.0,0.0,0.0,0.0,0.0,0.0,0.0,0.0,0.0,0.0,0.0,0.0,0.0,0.0,0.0,0.0,0.0,0.0,0.0,0.0,0.0,0.0,0.0,0.0,0.0,0.0,0.0,0.0,0.0,0.0,0.0,0.0,0.0,0.0,0.0,0.0,0.0,0.0,0.0,0.0,0.0,0.0,0.0,0.0,0.0,0.0,0.0,0.0,0.0,0.0,0.0,0.0,0.0,0.0,0.0,0.0,0.0,0.0,0.0,0.0,0.0,0.0,0.0,0.0,0.0,0.0,0.0,0.0,0.0,0.0,0.0,0.0,0.0,0.0,0.0,0.0,0.0,0.0,0.0,0.0,0.0,0.0,0.0,0.0,0.0,0.0,0.0,0.0,0.0,0.0,0.0,0.0,0.0,0.0,0.0,0.0,0.0,0.0,0.0,0.0,0.0,0.0,0.0,0.0,0.0,0.0,0.0,0.0,0.0,0.0,0.0,0.0,0.0,0.0,0.0,0.0,0.0,0.0,0.0,0.0,0.0,0.0,0.0,0.0,0.0,0.0,0.0,0.0,0.0,0.0,0.0,0.0,0.0,0.0,0.0,0.0,0.0,0.0,0.0,0.0,0.0,0.0,0.0,0.0,0.0,0.0,0.0,0.0,0.0,0.0,0.0,0.0,0.0,0.0,0.0,0.0,0.0,0.0,0.0,0.0,0.0,0.0,0.0,0.0,0.0,0.0,0.0,0.0,0.0,0.0,0.0,0.0,0.0,0.0,0.0,0.0,0.0,0.0,0.0,0.0,0.0,0.0,0.0,0.0,0.0,0.0,0.0,0.0,0.0,0.0,0.0,0.0,0.0,0.0,0.0,0.0,0.0,0.0,0.0,0.0,0.0,0.0,0.0,0.0,0.0,0.0,0.0,0.0,0.0,0.0,0.0,0.0,0.0,0.0,0.0,0.0,0.0,0.0,0.0,0.0,0.0,0.0,0.0,0.0,0.0,0.0,0.0,0.0,0.0,0.0,0.0,0.0,0.0,0.0,0.0,0.0,0.0,0.0,0.0,0.0,0.0,0.0,0.0,0.0,0.0,0.0,0.0,0.0,0.0,0.0,0.0,0.0,0.0,0.0,0.0,0.0,0.0,0.0,0.0,0.0,0.0,0.0,0.0,0.0,0.0,0.0,0.0,0.0,0.0,0.0,0.0,0.0,0.0,0.0,0.0,0.0,0.0,0.0,0.0,0.0,0.0,0.0,0.0,0.0,0.0,0.0,0.0,0.0,0.0,0.0,0.0,0.0,0.0,0.0,0.0,0.0,0.0,0.0,0.0,0.0,0.0,0.0,0.0,0.0,0.0,0.0,0.0,0.0,0.0,0.0,0.0,0.0,0.0,0.0,0.0,0.0,0.0,0.0,0.0,0.0,0.0,0.0,0.0,0.0,0.0,0.0,0.0,0.0,0.0,0.0,0.0,0.0,0.0,0.0,0.0,0.0,0.0,0.0,0.0,0.0,0.0,0.0,0.0,0.0,0.0,0.0,0.0,0.0,0.0,0.0,0.0,0.0,0.0,0.0,0.0,0.0,0.0,0.0,0.0,0.0,0.0,0.0,0.0,0.0,0.0,0.0,0.0,0.0,0.0,0.0,0.0,0.0,0.0,0.0,0.0,0.0,0.0,0.0,0.0,0.0,0.0,0.0,0.0,0.0,0.0,0.0,0.0,0.0,0.0,0.0,0.0,0.0,0.0,0.0,0.0,0.0,0.0,0.0,0.0,0.0,0.0,0.0,0.0,0.0,0.0,0.0,0.0,0.0,0.0,0.0,0.0,0.0,0.0,0.0,0.0,0.0,0.0,0.0,0.0,0.0,0.0,0.0,0.0,0.0,0.0,0.0,0.0,0.0,0.0,0.0,0.0,0.0,0.0,0.0,0.0,0.0,0.0,0.0,0.0,0.0,0.0,0.0,0.0,0.0,0.0,0.0,0.0,0.0,0.0,0.0,0.0,0.0,0.0,0.0,0.0,0.0,0.0,0.0,0.0,0.0,0.0,0.0,0.0,0.0,0.0,0.0,0.0,0.0,0.0,0.0,0.0,0.0,0.0,0.0,0.0,0.0,0.0,0.0,0.0,0.0,0.0,0.0,0.0,0.0,0.0,0.0,0.0,0.0,0.0,0.0,0.0,0.0,0.0,0.0,0.0,0.0,0.0,0.0,0.0,0.0,0.0,0.0,0.0,0.0,0.0,0.0,0.0,0.0,0.0,0.0,0.0,0.0,0.0,0.0,0.0,0.0,0.0,0.0,0.0,0.0,0.0,0.0,0.0,-0.1712,-0.1671,0.0,0.0,0.0,0.0,0.0,0.0,0.0,0.0,0.0,0.0,0.0,0.0,0.0,0.0,0.0,0.0,0.0,0.0,0.0,0.0,0.0,0.0,0.0,0.0,0.0,0.0,0.0,0.0,0.0,0.0,0.0,0.0,0.0,0.0,0.0,0.0,0.0,0.0,0.0,0.0,0.0,0.0,0.0,0.0,0.0,0.0,0.0,0.0,0.0,0.0,0.0,0.0,0.0,0.0,0.0,0.0,0.0,0.0,0.0,0.0,0.0,0.0,0.0,0.0,0.0,0.0,0.0,0.0,0.0,0.0,0.0,0.0,0.0,0.0,0.0,0.0,0.0,0.0,0.0,0.0,0.0,0.0,0.0,0.0,0.0,0.0,0.0,0.0,0.0,0.0,0.0,0.0,0.0,0.0,0.0,0.0,0.0,0.0,0.0,0.0,0.0,0.0,0.0,0.0,0.0,0.0,0.0,0.0,0.0,0.0,0.0,0.0,0.0,0.0,-0.1775,-0.1748,0.0,0.0,0.0,0.0,0.0,0.0,0.0,0.0,0.0,0.0,0.0,0.0,0.0,0.0,0.0,0.0,0.0,0.0,0.0,0.0,0.0,0.0,0.0,0.0,0.0,0.0,0.0,0.0,0.0,0.0,0.0,0.0,0.0,0.0,0.0,0.0,0.0,0.0,0.0,0.0,0.0,0.0,0.0,0.0,0.0,0.0,0.0,0.0,0.0,0.0,0.0,0.0,0.0,0.0,0.0,0.0,0.0,0.0,0.0,0.0,0.0,0.0,0.0,0.0,0.0,0.0,0.0,0.0,0.0,0.0,0.0,0.0,0.0,0.0,0.0,0.0,0.0,0.0,0.0,0.0,0.0,0.0,0.0,0.0,0.0,0.0,0.0,0.0,0.0,0.0,0.0,0.0,0.0,0.0,0.0,0.0,0.0,0.0,0.0,0.0,0.0,0.0,0.0,0.0,0.0,0.0,0.0,0.0,0.0116,-0.0466,-0.1572,-0.1572,-0.1689,-0.1863,-0.1838,-0.1832,-0.1777,-0.1759,0.0,0.0,0.0,0.0,0.0,0.0,0.0,0.0,0.0,0.0,0.0,0.0,0.0,0.0,0.0,0.0,0.0,0.0,0.0,0.0,0.0,0.0,0.0,0.0,0.0,0.0,0.0,0.0,0.0,0.0,0.0,0.0,0.0,0.0,0.0,0.0,0.0,0.0,1.0746,1.1588,1.1155,0.9547,0.791,0.0,0.0,0.0,0.0,0.0,0.0,0.0,0.0,0.0,0.0,0.0,0.0,0.0,0.0,0.0,0.0,0.0,0.0,0.0,0.0,0.0,0.0,0.0,0.0,0.0,0.0,0.0,0.0,0.0,0.0,0.0,0.0,0.0,0.0,0.0,0.0,0.0,0.0,0.0,0.0,0.0,0.0,0.0,0.669,0.6825,0.0,0.0,0.0,0.0,0.0,0.0,0.0,0.0,0.0,0.0,0.0,0.0,0.0,0.3784,0.2012,0.2571,0.2256,0.0938,0.1749,0.1161,-0.0672,-0.0672,-0.1161,-0.1958,-0.1954,0.0,-0.1782,-0.177,0.0,0.0,0.0,0.0,0.0,0.0,0.0,0.0,0.0,0.0,0.0,0.0,0.0,0.0,0.0,0.0,0.0,0.0,0.0,0.0,0.0,0.0,0.0,0.0,0.0,0.0,0.0,0.0,0.0,0.0,0.0,0.0,0.0,0.0,0.0,0.0,1.4421,1.4592,1.3846,1.3863,1.3135,1.1769,1.0774,0.9278,0.7394,0.6268,0.0,0.0,0.0,0.0,0.0,0.0,0.0,0.0,0.0,0.0,0.0,0.0,0.0,0.0,0.0,0.0,0.0,0.0,0.0,0.0,0.0,0.0,0.0,0.0,0.0,0.0,0.0,0.0,0.0,0.0,0.0,0.0,0.0,0.0,0.0,0.0,0.0,0.0,0.0,0.6445,0.6774,0.6692,0.6755,0.6698,0.0,0.0,0.0,0.0,0.0,0.0,0.0,0.0,0.0,0.5614,0.5362,0.4599,0.3389,0.3491,0.2995,0.1837,0.2234,0.1436,-0.0499,-0.0499,-0.1057,-0.1977,-0.1977,-0.1954,-0.1914,-0.188,-0.1842,-0.18,0.0,0.0,0.0,0.0,-0.2944,-0.3901,0.0,0.0,0.0,0.0,0.0,0.0,0.0,0.0,0.0,0.0,0.0,0.0,0.0,0.0,0.0,1.2908,0.0,0.0,0.0,0.0,0.0,0.0,0.0,0.0,0.0,0.0,0.0,0.0,1.7184,1.7103,1.6331,1.5891,1.4955,1.364,1.3319,1.1578,0.8867,0.8085,0.6741,0.0,0.0,0.0,0.0,0.0,0.0,0.0,0.0,0.0,0.0,0.0,0.0,0.0,0.0,0.0,0.0,0.0,0.0,0.0,0.0,0.0,0.0,0.0,0.0,0.0,0.0,0.0,0.0,0.0,0.0,0.0,0.0,0.0,0.0,0.0,0.0,0.0,0.0,0.7058,0.7144,0.6662,0.6893,0.6888,0.0,0.0,0.0,0.0,0.0,0.0,0.7295,0.7306,0.7031,0.6536,0.5994,0.5408,0.4846,0.4249,0.3551,0.2761,0.2509,0.1693,0.0251,-0.0251,-0.0871,-0.1596,-0.1842,-0.196,-0.195,-0.1913,-0.1893,-0.1878,-0.1802,-0.1823,-0.1814,-0.1952,-0.2611,-0.3586,0.0,0.0,0.0,0.0,0.0,0.0,0.0,0.0,0.0,0.0,0.0,0.0,0.0,0.0,1.4597,1.527,1.5307,1.5049,0.0,0.0,0.0,0.0,0.0,0.0,0.0,0.0,0.0,1.7324,1.7013,1.6727,1.6508,1.677,1.6492,1.5737,1.5157,1.3101,1.0111,0.9912,0.8616,0.6631,0.0,0.0,0.0,0.0,0.0,0.0,0.0,0.0,0.0,0.0,0.0,0.0,0.0,0.0,0.0,0.0,0.0,0.0,0.0,0.0,0.0,0.0,0.0,0.0,0.0,0.0,0.0,0.0,0.0,0.0,0.0,0.0,0.0,0.0,0.0,0.0,0.0,0.0,0.0,0.7271,0.7591,0.0,0.0,0.0,0.0,0.7182,0.7193,0.7249,0.7489,0.75,0.731,0.686,0.6286,0.5611,0.4921,0.4311,0.3943,0.3832,0.2903,0.247,0.2285,0.037,-0.049,-0.0543,-0.1509,-0.1917,-0.1892,-0.1918,-0.1912,-0.1882,-0.1849,-0.1818,-0.1904,-0.2516,-0.3075,-0.3695,0.0,0.0,0.0,0.0,0.0,0.0,0.0,0.0,0.0,0.0,0.0,0.0,0.0,1.4651,1.6325,1.7109,1.7879,1.8218,1.8019,0.0,0.0,0.0,0.0,0.0,0.0,0.0,1.9638,1.9448,1.95,1.873,1.7265,1.7084,1.6366,1.5252,1.4906,1.3682,1.1889,1.0975,0.9379,0.7421,0.6637,0.5374,0.0,0.0,0.0,0.0,0.0,0.0,0.0,0.0,0.0,0.0,0.0,0.0,0.0,0.0,0.0,0.0,0.0,0.0,0.0,0.0,0.0,0.0,0.0,0.0,0.0,0.0,0.0,0.0,0.0,0.0,0.0,0.0,0.0,0.0,0.0,0.0,0.0,0.8159,0.7921,0.0,0.7092,0.7166,0.7243,0.7266,0.7418,0.7576,0.7736,0.7744,0.7296,0.6272,0.6062,0.5388,0.4255,0.4031,0.3908,0.3889,0.358,0.3069,0.243,0.17,0.0723,-0.0475,-0.0832,-0.1362,-0.1887,-0.1898,-0.1896,-0.1883,-0.1852,-0.1776,-0.1879,-0.2478,-0.2879,-0.3188,0.0,0.0,0.0,0.0,0.0,0.0,0.0,0.0,0.0,0.0,0.0,1.2769,1.39,1.6128,1.784,1.8551,1.9449,1.976,1.9216,0.0,0.0,0.0,0.0,0.0,0.0,2.1372,2.1475,2.1014,2.0803,1.9813,1.8104,1.7692,1.6886,1.5731,1.5142,1.4466,1.362,1.21,1.0293,0.8463,0.7763,0.6619,0.529,0.0,0.0,0.0,0.0,0.0,0.0,0.0,0.0,0.0,0.0,0.0,0.0,0.0,0.0,0.0,0.0,0.0,0.0,0.0,0.0,0.0,0.0,0.0,0.0,0.0,0.0,0.0,0.0,0.0,0.0,0.0,0.0,0.0,0.0,1.0176,0.9832,0.8723,0.8508,0.8173,0.733,0.7404,0.7535,0.7576,0.7728,0.7837,0.7869,0.7872,0.7503,0.6582,0.6154,0.5479,0.4562,0.4134,0.3879,0.392,0.392,0.3522,0.287,0.2511,0.1482,0.0,-0.0348,-0.0982,-0.184,-0.184,-0.1834,-0.1825,-0.1836,-0.1783,-0.1894,-0.2483,-0.2813,-0.3157,0.0,0.0,0.0,0.0,0.0,0.0,0.0,0.0,0.0,0.0,1.2769,1.468,1.5879,1.7676,1.9,1.9558,1.9785,1.9284,1.7831,1.8143,0.0,0.0,0.0,0.0,2.1229,2.0817,2.1,2.1784,2.0701,1.9726,1.8874,1.8638,1.8146,1.7317,1.6084,1.5455,1.5159,1.3321,1.145,0.974,0.9191,0.82,0.6947,0.0,0.0,0.0,0.0,0.0,0.0,0.0,0.0,0.0,0.0,0.0,0.0,0.0,0.0,0.0,0.0,0.0,0.0,0.0,0.0,0.0,0.0,0.0,0.0,0.0,0.0,0.0,0.0,0.0,0.0,0.0,0.0,0.0,1.1489,1.1777,1.1272,0.8983,0.95,0.9433,0.7884,0.8024,0.8174,0.8119,0.8111,0.8059,0.7877,0.7872,0.7872,0.7869,0.6582,0.5906,0.5843,0.4559,0.3917,0.3917,0.3917,0.3884,0.3763,0.2764,0.1864,0.0972,0.0056,-0.0888,-0.1748,-0.1748,-0.1731,-0.1713,-0.1747,-0.178,-0.1889,-0.2533,-0.3099,-0.3635,0.0,0.0,0.0,0.0,0.0,0.0,0.0,0.0,0.0,0.0,1.314,1.4836,1.6158,1.7486,1.8677,1.9664,1.9648,1.9954,2.0732,0.0,0.0,0.0,0.0,0.0,2.262,2.267,2.2351,2.1655,2.177,2.0713,1.8548,1.9254,1.8626,1.6866,1.6527,1.5789,1.4728,1.3876,1.2722,1.1368,0.9659,0.8618,0.7929,0.0,0.0,0.0,0.0,0.0,0.0,0.0,0.0,0.0,0.0,0.0,0.0,0.0,0.0,0.0,0.0,0.0,0.0,0.0,0.0,0.0,0.0,0.0,0.0,0.0,0.0,0.0,0.0,0.0,0.0,0.0,1.2266,1.2904,1.2617,1.2589,1.2312,1.1622,1.0587,0.9691,0.9287,0.8448,0.7959,0.7985,0.7982,0.7969,0.7872,0.7872,0.7686,0.7194,0.6827,0.6122,0.5092,0.473,0.4334,0.3854,0.3854,0.3739,0.3639,0.3394,0.2772,0.1796,0.1591,0.0599,-0.0858,-0.0858,-0.1177,-0.1709,-0.1756,-0.1761,-0.1795,-0.2436,-0.3205,-0.409,0.0,0.0,0.0,0.0,0.0,0.0,0.0,0.0,0.0,0.0,1.4039,1.562,1.6866,1.7783,1.8695,1.9666,1.9903,2.0287,2.0992,0.0,0.0,0.0,0.0,2.4202,2.4285,2.4086,2.3419,2.2232,2.2196,2.1155,1.9223,1.9838,1.9316,1.7874,1.7826,1.7061,1.5834,1.5373,1.4255,1.274,1.1138,0.9965,0.9021,0.7736,0.6992,0.6624,0.6479,0.6221,0.5995,0.6482,0.0,0.0,0.0,0.0,0.0,0.0,0.0,0.0,0.0,0.0,0.0,0.0,0.0,0.0,0.0,0.0,0.0,0.0,0.0,0.0,0.0,0.0,0.0,0.0,1.2696,1.323,1.3315,1.3271,1.3082,1.2716,1.1716,1.0703,0.9818,0.9105,0.8496,0.8012,0.801,0.7905,0.7804,0.7801,0.7617,0.7251,0.6948,0.6436,0.5602,0.5059,0.4588,0.4138,0.3905,0.3668,0.355,0.3586,0.3034,0.2077,0.2138,0.1169,-0.0474,-0.0474,-0.0944,0.0,0.0,0.0,0.0,0.0,-0.351,-0.4093,0.0,0.0,0.0,0.0,0.0,0.0,0.0,0.0,0.0,0.0,0.0,1.6627,1.7701,1.8257,1.8852,1.9576,2.0279,2.0517,0.0,0.0,0.0,2.3963,2.5711,2.6375,2.5749,2.5072,2.421,2.3191,2.2409,2.1512,2.0489,2.0604,2.0292,1.9622,1.9509,1.8836,1.7788,1.724,1.5867,1.4015,1.3078,1.1692,1.0007,0.8566,0.7936,0.7765,0.7434,0.727,0.7348,0.8228,0.0,0.0,0.0,0.0,0.0,0.0,0.0,0.0,0.0,0.0,0.0,0.0,0.0,0.0,0.0,0.0,0.0,0.0,0.0,0.0,0.0,0.0,0.0,0.0,1.3169,1.3528,1.3731,1.3882,1.3678,1.2925,1.2758,1.2,1.0172,0.9889,0.9381,0.8333,0.8186,0.8025,0.7693,0.7682,0.0,0.0,0.0,0.6777,0.6646,0.557,0.484,0.4581,0.4067,0.3661,0.3488,0.3493,0.3025,0.2222,0.2244,0.1346,-0.0155,-0.0155,-0.0714,-0.1609,-0.2253,-0.2474,-0.2617,-0.3563,-0.3859,-0.3831,0.0,0.0,0.0,0.0,0.0,0.0,0.0,0.0,0.0,1.347,1.5164,1.6654,1.7913,1.8225,1.8606,1.9252,2.0001,2.1178,0.0,0.0,2.5385,2.5269,2.597,2.6068,2.5413,2.4981,2.4433,2.3752,2.4048,2.3339,2.169,2.2489,2.1985,2.0395,2.0424,1.9957,1.9058,1.8044,1.6953,1.577,1.4132,1.2118,1.0008,0.9654,0.8775,0.7808,0.788,0.7676,0.7468,0.8229,0.8591,0.8778,0.9319,0.0,0.0,0.0,0.0,0.0,0.0,0.0,0.0,0.0,0.0,0.0,0.0,0.0,0.0,0.0,0.0,0.0,0.0,0.0,0.0,1.3008,1.3504,1.3962,1.4161,1.3939,1.377,1.3731,1.3,1.2374,1.1999,1.0951,0.9947,0.9026,0.8797,0.8357,0.7557,0.7554,0.7554,0.7554,0.7437,0.7039,0.6484,0.6196,0.5561,0.4501,0.0,0.0,0.3429,0.3476,0.3305,0.3011,0.3046,0.2469,0.1519,0.1496,0.0343,-0.1399,-0.2066,-0.233,-0.2471,-0.3475,-0.3735,-0.3718,0.0,0.0,0.0,0.0,0.0,0.0,0.0,0.0,0.0,0.0,1.5201,1.6415,1.7624,1.7844,1.8167,1.8831,2.028,0.0,0.0,2.5776,2.6455,2.7135,2.7408,2.7226,2.6523,2.604,2.5389,2.4546,2.4745,2.428,2.3206,2.382,2.3483,2.2418,2.2831,2.2299,2.112,2.0824,1.9454,1.7369,1.6005,1.3835,1.1388,1.0843,1.019,0.9592,0.9473,0.946,0.9495,0.9795,1.0194,1.0651,1.1129,1.1215,1.1111,0.0,0.0,0.0,0.0,0.0,0.0,0.0,0.0,0.0,0.0,0.0,0.0,0.0,0.0,1.4613,1.4441,0.0,1.4117,1.4913,1.4455,1.4094,1.4283,1.4078,1.3906,1.3886,1.3237,1.2665,1.2217,1.1504,1.0743,0.994,0.9215,0.8585,0.8123,0.7657,0.7426,0.7426,0.7426,0.7224,0.6878,0.6536,0.6003,0.5308,0.4698,0.4183,0.3734,0.3501,0.3343,0.3181,0.3212,0.2733,0.1936,0.1461,0.0432,-0.0905,-0.1475,-0.2237,-0.3045,-0.3579,-0.3844,-0.4004,0.0,0.0,0.0,0.0,0.0,0.0,0.0,0.0,0.0,0.0,0.0,1.609,1.7161,1.7462,1.801,0.0,0.0,0.0,0.0,2.637,2.6989,2.8466,2.861,2.8311,2.7587,2.7114,2.6452,2.558,2.543,2.5261,2.5063,2.5199,2.5147,2.4947,2.5487,2.4928,2.3612,2.3752,2.2112,1.937,1.8226,1.6251,1.389,1.2876,1.2061,1.1366,1.1194,1.1254,1.1426,1.1657,1.1991,1.2445,1.3063,1.3151,1.2997,1.2705,1.2936,0.0,0.0,0.0,0.0,0.0,0.0,0.0,0.0,1.575,1.5836,1.7393,1.7095,1.6734,1.7407,1.6505,1.6027,1.7035,1.5812,1.4665,1.4606,1.4438,1.4174,1.3903,1.3476,1.3011,1.235,1.2024,1.1516,1.072,0.9766,0.9057,0.8665,0.7924,0.7471,0.7301,0.7301,0.7301,0.7301,0.6768,0.6391,0.6115,0.5166,0.4489,0.4095,0.3618,0.3321,0.3162,0.32,0.2765,0.2083,0.1389,0.0664,0.0,-0.0511,-0.1751,-0.3218,-0.3541,-0.3955,-0.43,0.0,0.0,0.0,0.0,0.0,0.0,0.0,0.0,0.0,0.0,0.0,0.0,0.0,0.0,0.0,0.0,0.0,0.0,2.6341,2.6869,2.7311,2.7872,2.8082,2.7862,2.7191,2.7169,2.7115,2.698,2.6964,2.711,2.7417,2.7311,2.7372,2.7565,2.7283,2.6892,2.6367,2.5043,2.3755,2.2413,2.0529,1.9058,1.7854,1.6837,1.4351,1.149,1.217,1.1828,1.1266,1.2671,1.2751,1.2379,1.3323,1.3792,1.3862,1.3481,1.3581,1.3755,1.3572,1.4062,1.5123,1.7037,1.7025,1.7195,0.0,2.0007,1.9847,1.9333,1.954,1.9517,1.8604,1.8426,1.8363,1.8084,1.7477,1.6742,1.5865,1.5141,1.4622,1.4452,1.4061,1.3764,1.367,1.3088,1.2295,1.1343,1.1009,1.0185,0.8621,0.8399,0.8008,0.7229,0.7232,0.7232,0.7232,0.7018,0.6629,0.6112,0.5857,0.5174,0.4092,0.3975,0.3606,0.3097,0.3093,0.3034,0.2888,0.284,0.2333,0.1493,0.0827,-0.0229,-0.1575,-0.306,-0.3907,-0.43,0.0,0.0,0.0,0.0,0.0,0.0,0.0,0.0,0.0,0.0,0.0,0.0,0.0,0.0,0.0,0.0,0.0,0.0,2.6961,2.6916,2.7122,2.7894,2.7623,2.7159,2.653,2.7084,2.7386,2.7432,2.7507,2.7873,2.8494,2.8475,2.8676,2.9057,2.9196,2.887,2.8174,2.8116,2.7245,2.5755,2.4262,2.299,2.1781,1.9828,1.7876,1.5972,1.4297,1.3594,0.0,0.0,1.3971,1.4148,1.4909,1.5026,1.4837,1.4846,1.5006,1.521,1.5429,1.5544,1.5843,1.7065,1.7541,1.82,2.0027,2.0429,2.0512,2.0921,2.1169,2.1256,2.0962,2.0534,2.0254,2.0517,1.8886,1.7545,1.725,1.6097,1.5288,1.5244,1.5097,1.488,1.4545,1.3719,1.3245,1.3088,1.2064,1.1113,1.0375,0.9268,0.8488,0.8155,0.7524,0.718,0.7056,0.701,0.6805,0.64,0.5923,0.5461,0.4914,0.4479,0.3983,0.3466,0.3163,0.3029,0.3004,0.2997,0.2506,0.1751,0.1494,0.0181,-0.1613,-0.2466,-0.3274,-0.39,0.0,0.0,0.0,0.0,0.0,0.0,0.0,0.0,0.0,0.0,0.0,0.0,0.0,0.0,0.0,0.0,0.0,0.0,0.0,2.6589,2.6856,2.7946,2.7434,2.691,2.6498,2.723,2.7662,2.7707,2.8062,2.8658,2.9449,2.9722,3.028,3.1044,3.1144,3.0901,3.0466,3.078,3.0151,2.889,2.7728,2.6553,2.521,2.2635,2.1028,1.9749,1.6556,1.536,0.0,0.0,1.4964,1.5303,1.6035,1.5906,1.5528,1.6005,1.6085,1.6156,1.668,1.6586,1.6509,1.7301,1.8093,1.8996,2.0189,2.0611,2.1035,2.2021,2.231,2.2467,2.2813,2.226,2.1896,2.2245,2.0174,1.8489,1.833,1.6951,1.6003,1.6065,1.6065,1.5925,1.5546,1.4652,1.4215,1.4483,1.314,1.2254,1.1967,1.0417,0.931,0.8801,0.7997,0.7375,0.6986,0.695,0.6828,0.6619,0.6062,0.5607,0.5238,0.4443,0.3908,0.351,0.3138,0.298,0.2978,0.2936,0.2603,0.2064,0.1885,0.0627,-0.1164,-0.1704,-0.269,-0.381,0.0,0.0,0.0,0.0,0.0,0.0,0.0,0.0,0.0,0.0,0.0,0.0,0.0,0.0,0.0,0.0,0.0,0.0,0.0,2.585,2.6683,2.7947,2.7613,2.7402,2.7461,2.7792,2.8,2.8,2.8902,2.9765,3.056,3.1345,3.2591,3.4125,3.3093,3.309,3.3766,3.2351,3.173,3.1589,3.0454,2.9297,2.8001,2.5526,2.3325,2.1213,1.8631,0.0,0.0,0.0,1.553,1.5105,1.6073,1.6035,1.5781,1.6704,1.6466,1.6088,1.6948,1.6873,1.6995,1.8644,1.9273,1.9806,2.0857,2.1597,2.2169,2.2528,2.2771,2.3111,2.3528,2.3493,2.3251,2.2684,2.1314,1.9989,1.8991,1.7597,1.6644,1.6644,1.6644,1.674,1.6999,1.6028,1.5243,1.4975,1.4313,1.3559,1.2703,1.1833,1.055,0.8857,0.8555,0.7981,0.6986,0.6866,0.6744,0.6616,0.6385,0.573,0.4694,0.3578,0.3022,0.2924,0.2922,0.2922,0.2921,0.292,0.2875,0.2784,0.2064,0.13,0.0493,-0.0718,-0.2464,-0.43,0.0,0.0,0.0,0.0,0.0,0.0,0.0,0.0,0.0,0.0,0.0,0.0,0.0,0.0,0.0,0.0,0.0,0.0,0.0,2.5086,2.5759,2.6892,2.711,2.7097,2.6909,2.7582,2.828,2.9001,2.9449,3.0351,3.1679,3.2613,3.3672,3.4768,3.4902,3.5064,3.5258,3.5153,3.4786,3.4226,3.379,3.3129,3.1967,2.8336,2.6246,2.4744,0.0,0.0,0.0,1.7366,1.7375,1.7324,1.8175,1.7987,1.7586,1.8251,1.7986,1.7792,1.919,1.8875,1.8518,2.0057,2.0232,2.0304,2.126,2.2094,2.2577,2.2237,2.2626,2.2864,2.2382,2.264,2.2962,2.3186,2.2814,2.2176,2.1147,2.0129,1.9072,1.7988,1.8179,1.8233,1.7738,1.6617,1.5911,1.599,1.5412,1.4945,1.4646,1.3131,1.1802,1.0829,0.9273,0.8044,0.7127,0.6926,0.67,0.6446,0.626,0.5732,0.489,0.4189,0.3699,0.3365,0.3053,0.292,0.292,0.292,0.292,0.2873,0.2649,0.1883,0.085,-0.0045,-0.1343,-0.2774,0.0,0.0,0.0,0.0,0.0,0.0,0.0,0.0,0.0,0.0,0.0,0.0,0.0,0.0,0.0,0.0,0.0,0.0,0.0,0.0,2.4748,2.6141,2.6437,2.6649,2.6821,2.7493,2.8248,2.9034,2.9552,3.0508,3.1897,3.319,3.4444,3.5597,3.6127,3.6526,3.6793,3.6929,3.6128,3.476,3.4865,3.3914,3.213,2.8985,2.7223,0.0,0.0,0.0,0.0,1.8436,1.8312,1.8515,1.9413,1.9748,1.9848,1.9871,1.9893,2.0159,2.1381,2.1139,2.0691,2.1399,2.1441,2.1344,2.1683,2.2284,2.2687,2.2421,2.2589,2.2622,2.1987,2.2376,2.2797,2.2902,2.3151,2.2905,2.1765,2.1032,2.0134,1.8885,1.9121,1.9162,1.8539,1.773,1.715,1.6891,1.6385,1.604,1.5957,1.4383,1.3155,1.2465,1.0798,0.9259,0.7846,0.7586,0.7049,0.6309,0.6013,0.5542,0.4964,0.4342,0.39,0.3587,0.3097,0.292,0.292,0.292,0.292,0.292,0.292,0.2287,0.1253,0.0621,-0.0442,-0.1727,0.0,0.0,0.0,0.0,0.0,0.0,0.0,0.0,0.0,0.0,0.0,0.0,0.0,0.0,0.0,0.0,0.0,0.0,0.0,0.0,0.0,2.564,2.5631,2.6091,2.7164,2.758,2.7936,2.8241,2.9278,3.0306,3.1327,3.3084,3.48,3.6382,3.6545,3.7156,3.8055,3.7332,3.5573,3.3314,3.3672,3.1913,2.8936,2.7635,0.0,0.0,0.0,0.0,0.0,1.9202,1.8623,1.8934,1.9937,2.1296,2.2351,2.1624,2.2127,2.3039,2.3417,2.3584,2.3468,2.2859,2.2907,2.2896,2.2148,2.2318,2.2637,2.286,2.2638,2.2373,2.2356,2.2681,2.2741,2.2083,2.2548,2.2561,2.1294,2.0658,2.0161,1.9494,1.9632,1.9628,1.9322,1.9309,1.8838,1.7639,1.7172,1.6848,1.6549,1.5541,1.4524,1.3695,1.2916,1.137,0.9026,0.8669,0.772,0.6086,0.5661,0.5264,0.4964,0.4076,0.3631,0.3587,0.3142,0.292,0.292,0.292,0.292,0.292,0.292,0.2469,0.179,0.1224,0.0217,-0.1085,0.0,0.0,0.0,0.0,0.0,0.0,0.0,0.0,0.0,0.0,0.0,0.0,0.0,0.0,0.0,0.0,0.0,0.0,0.0,0.0,0.0,0.0,0.0,0.0,0.0,0.0,0.0,0.0,0.0,3.0076,3.1088,3.2223,3.2939,3.3346,3.3931,3.4109,3.3957,3.3317,3.2524,3.1658,0.0,3.0785,2.9725,0.0,0.0,0.0,0.0,0.0,2.2421,2.1609,2.1917,2.2703,2.3368,2.3872,2.4333,2.5116,2.513,2.5173,2.6444,2.5976,2.5237,2.5591,2.5162,2.4411,2.3575,2.3674,2.3531,2.2113,2.2006,2.2025,2.1454,2.2011,2.289,2.399,2.5103,2.5642,2.5038,2.4476,2.3475,2.1644,2.1039,2.0391,1.9361,1.9497,1.9206,1.8225,1.7904,1.7563,1.725,1.6172,1.5182,1.4383,1.317,1.146,0.9324,0.7958,0.6891,0.6086,0.5992,0.5588,0.501,0.4743,0.4255,0.3587,0.3454,0.323,0.292,0.292,0.292,0.292,0.292,0.2784,0.2552,0.1794,0.1302,0.0778,0.0,0.0,0.0,0.0,0.0,0.0,0.0,0.0,0.0,0.0,0.0,0.0,0.0,0.0,0.0,0.0,0.0,0.0,0.0,0.0,0.0,0.0,0.0,0.0,0.0,0.0,0.0,0.0,0.0,0.0,0.0,3.0656,3.1249,3.1545,3.2299,3.244,3.2073,0.0,0.0,0.0,0.0,0.0,0.0,0.0,0.0,0.0,0.0,0.0,2.4299,2.4778,2.4903,2.4931,2.5568,2.6046,2.6538,2.7278,2.7389,2.7484,2.8211,2.7951,2.7429,2.7128,2.6431,2.5388,2.3783,2.3529,2.3239,2.1877,2.166,2.1689,2.1636,2.252,2.349,2.4354,2.5866,2.6789,2.6407,2.6211,2.5258,2.2891,2.2553,2.1693,1.9701,1.9759,1.9567,1.8693,1.8366,1.7975,1.7554,1.6684,1.5896,1.5192,1.4164,1.249,1.005,0.7869,0.6617,0.6272,0.6133,0.582,0.5282,0.5099,0.4699,0.421,0.3765,0.3454,0.3187,0.2963,0.2903,0.2837,0.2908,0.2903,0.2782,0.2332,0.197,0.1487,0.0,0.0,0.0,0.0,0.0,0.0,0.0,0.0,0.0,0.0,0.0,0.0,0.0,0.0,0.0,0.0,0.0,0.0,0.0,0.0,0.0,0.0,0.0,0.0,0.0,0.0,0.0,0.0,0.0,0.0,0.0,0.0,0.0,0.0,0.0,0.0,0.0,0.0,0.0,0.0,0.0,0.0,0.0,0.0,0.0,0.0,0.0,0.0,2.61,2.7674,2.7377,2.6482,2.7235,2.8039,2.8677,2.8643,2.9077,2.9474,2.9139,2.9352,2.9356,2.7924,2.713,2.6101,2.3526,2.2889,2.2635,2.1886,2.147,2.1499,2.2258,2.3396,2.4165,2.4164,2.5805,2.7022,2.6871,2.7035,2.6319,2.4108,2.4064,2.3127,2.0429,2.0166,1.9827,1.9036,1.8593,1.8171,1.7627,1.6998,1.6387,1.5753,1.5098,1.3563,1.1028,0.8548,0.7082,0.6691,0.6441,0.6083,0.5688,0.528,0.5055,0.4966,0.4121,0.3721,0.3587,0.3141,0.2932,0.28,0.2889,0.283,0.2775,0.2706,0.2302,0.17,0.0,0.0,0.0,0.0,0.0,0.0,0.0,0.0,0.0,0.0,0.0,0.0,0.0,0.0,0.0,0.0,0.0,0.0,0.0,0.0,0.0,0.0,0.0,0.0,0.0,0.0,0.0,0.0,0.0,0.0,0.0,0.0,0.0,0.0,0.0,0.0,0.0,0.0,0.0,0.0,0.0,0.0,0.0,0.0,0.0,0.0,0.0,2.5006,2.5938,0.0,2.8521,2.8847,2.9693,3.0082,3.017,2.9895,2.9785,2.9774,2.9885,2.9467,2.8948,2.8421,2.7934,2.692,2.4281,2.3852,2.3477,2.1697,2.1392,2.1656,2.2359,2.3088,2.4065,2.5683,2.6735,2.7897,2.9467,2.9101,2.8298,2.7306,2.5394,2.3604,2.2148,2.0711,1.9707,1.936,1.8746,1.8154,1.7602,1.6802,1.5903,1.4944,1.3753,1.2764,1.2047,1.0518,0.9132,0.7801,0.7537,0.6808,0.5688,0.5599,0.5371,0.501,0.4832,0.0,0.3587,0.3497,0.3224,0.2899,0.2815,0.2792,0.277,0.2658,0.2536,0.236,0.0,0.0,0.0,0.0,0.0,0.0,0.0,0.0,0.0,0.0,0.3523,0.0,0.0,0.0,0.0,0.0,0.0,0.0,0.0,0.0,0.0,0.0,0.0,0.0,0.0,2.1202,2.1973,2.2443,0.0,2.315,2.3299,2.3378,2.3114,2.2571,2.263,0.0,0.0,0.0,0.0,0.0,0.0,0.0,0.0,0.0,0.0,0.0,0.0,2.4723,2.5432,2.7645,2.8413,2.8644,2.9932,3.0401,3.0451,3.0306,2.9805,2.9275,2.9227,2.9124,2.8793,2.7886,2.7513,2.6647,2.4067,2.34,2.2829,2.1223,2.1335,2.1955,2.2682,2.3411,2.4334,2.5527,2.6615,2.7914,2.9757,3.0043,2.9611,2.8563,2.6743,2.4735,2.2594,2.0802,1.9624,1.9172,1.8684,1.8164,1.7452,1.6289,1.5354,1.4733,1.3281,1.2453,1.2305,1.0896,0.9799,0.8967,0.8109,0.732,0.6612,0.5997,0.5597,0.5371,0.5099,0.4743,0.43,0.381,0.3408,0.3125,0.2912,0.2745,0.2681,0.2623,0.2601,0.2548,0.0,0.0,0.0,0.0,0.0,0.0,0.0,-0.1131,-0.0225,0.0674,0.1441,0.2929,0.5633,0.7499,0.0,0.0,0.0,0.0,0.0,0.0,0.0,0.0,0.0,0.0,0.0,0.0,0.0,2.0015,2.0668,0.0,0.0,0.0,0.0,0.0,2.0427,2.0166,1.9724,0.0,0.0,0.0,0.0,1.986,0.0,0.0,0.0,0.0,0.0,2.4365,2.4872,2.715,2.7617,2.7474,2.8782,2.9748,3.0302,2.9777,2.9145,2.8524,2.8047,2.8051,2.7958,2.6754,2.636,2.5653,2.3138,2.2524,2.2096,2.0867,2.135,2.218,2.2935,2.3647,2.4316,2.4938,2.6014,2.7376,2.9205,3.0181,3.0327,2.9259,2.796,2.6109,2.3261,2.1316,1.9941,1.9064,1.8468,1.7799,1.7062,1.5747,1.4917,1.46,1.3305,1.2546,1.2546,1.1277,1.0491,1.0109,0.8759,0.7912,0.7445,0.6305,0.5733,0.5688,0.5327,0.5099,0.4921,0.421,0.3725,0.3389,0.3048,0.278,0.26,0.2587,0.2582,0.2527,0.0,0.0,0.0,0.0,0.0,0.0,0.0,0.0,-0.103,-0.0032,0.0773,0.1658,0.2696,0.4944,0.0,0.0,0.0,0.0,0.0,0.0,0.0,0.0,0.0,0.0,0.0,0.0,0.0,1.7164,1.7476,0.0,0.0,0.0,0.0,0.0,0.0,1.9232,1.8286,1.8097,0.0,0.0,0.0,0.0,0.0,0.0,0.0,0.0,0.0,2.4157,2.455,2.5952,2.6251,2.6087,2.6222,2.818,2.9971,2.7688,2.7582,2.7879,2.6662,2.5847,2.5301,2.5053,2.4672,2.3722,2.1355,2.1808,2.2285,2.0905,2.143,2.2347,2.2988,2.3159,2.357,2.4631,2.5092,2.6094,2.8377,2.9309,2.9826,3.0035,2.8978,2.7445,2.5295,2.3087,2.1136,1.9484,1.7835,1.6742,1.6405,1.5324,1.4597,1.4372,1.3701,1.3413,1.3413,1.3016,1.2287,1.1227,1.0006,0.8767,0.7489,0.6523,0.5952,0.5688,0.5644,0.5371,0.0,0.4921,0.4328,0.35,0.3394,0.3031,0.2594,0.254,0.2519,0.2508,0.0,0.0,0.0,0.0,0.0,0.0,0.0,-0.2727,-0.1849,-0.0793,0.0,0.0967,0.2263,0.3513,0.0,0.0,0.0,0.0,0.0,0.0,0.0,0.0,0.0,0.0,0.0,0.0,1.5267,1.5782,1.6406,0.0,0.0,0.0,0.0,0.0,0.0,1.6717,1.6042,1.6004,0.0,0.0,0.0,0.0,0.0,0.0,0.0,0.0,0.0,0.0,2.3071,2.457,2.4834,2.46,2.4708,2.5736,2.6825,2.6337,2.6372,2.637,2.5535,2.5526,2.5531,2.4684,2.4221,2.3475,2.1828,2.1803,2.1875,2.0926,2.1793,2.283,2.3076,2.3091,2.3296,2.3915,2.4366,2.5251,2.6893,2.7636,2.8379,2.9316,2.8126,2.6715,2.5241,2.3228,2.1042,1.8742,1.7392,1.6559,1.6318,1.5383,1.4706,1.4297,1.3767,1.3406,1.3278,1.3006,1.2651,1.2163,1.1008,1.0139,0.957,0.8177,0.7265,0.6786,0.6476,0.5991,0.0,0.5034,0.4599,0.416,0.3528,0.3126,0.2863,0.2599,0.2511,0.2501,0.0,0.0,0.0,0.0,0.0,0.0,-0.382,-0.3301,-0.2561,-0.1543,-0.0706,0.0305,0.1638,0.238,0.3158,0.4208,0.0,0.0,0.0,0.0,0.0,0.0,0.0,0.0,0.0,0.0,1.354,1.3952,1.4658,1.5129,0.0,0.0,1.5369,1.506,0.0,0.0,0.0,0.0,0.0,0.0,0.0,0.0,0.0,0.0,0.0,0.0,0.0,0.0,0.0,0.0,0.0,2.2853,2.3169,2.3393,0.0,2.4671,2.4992,2.4897,2.4365,2.4665,2.4935,2.4223,2.3511,2.2741,2.1807,2.1656,2.1528,2.0868,2.196,2.3032,2.3071,2.3091,2.3188,2.346,2.3786,2.4438,2.5538,2.6232,2.706,2.8223,2.7435,2.6289,2.4864,2.2533,2.0214,1.8144,1.7174,1.6552,1.6159,1.5406,1.4827,1.4398,1.3881,1.3423,1.3094,1.2893,1.279,1.2705,1.1612,1.1047,1.0956,0.9483,0.8412,0.7679,0.72,0.6562,0.0,0.5267,0.4864,0.4607,0.3879,0.3402,0.3059,0.2764,0.2574,0.2496,0.0,0.0,0.0,0.0,0.0,0.0,0.0,-0.3575,-0.3091,-0.2307,-0.1242,-0.0374,0.0244,0.1469,0.2197,0.2121,0.0,0.0,0.0,0.0,0.0,0.0,0.0,0.0,0.0,0.0,1.0848,1.1225,1.1567,1.2198,1.3055,1.3365,1.3778,1.4227,0.0,0.0,0.0,0.0,0.0,0.0,0.0,0.0,0.0,0.0,0.0,0.0,0.0,0.0,0.0,0.0,0.0,0.0,0.0,0.0,0.0,0.0,2.3255,2.3678,2.2988,2.2668,2.2704,2.3351,2.2303,2.105,2.0707,2.1062,2.132,2.0722,2.1765,2.285,2.3057,2.3091,2.3188,2.346,2.3285,2.3501,2.4637,2.5338,2.6015,2.6934,2.7412,2.6797,2.4503,2.1045,1.8695,1.8053,1.7167,1.6449,1.5852,1.5284,1.4874,1.4597,1.409,1.3591,1.31,1.31,1.2966,1.2705,1.1757,1.1187,1.0956,1.0009,0.9082,0.8152,0.7679,0.7052,0.0,0.5712,0.5157,0.4584,0.4584,0.3962,0.3093,0.3017,0.2768,0.2485,0.0,0.0,0.0,0.0,0.0,0.0,0.0,0.0,-0.3225,-0.2318,-0.1734,-0.0955,0.0245,0.1065,0.1705,0.2122,0.0,0.0,0.0,0.0,0.0,0.0,0.0,0.0,0.0,0.0,0.0,1.0639,1.1354,1.184,1.2121,1.2507,1.2721,1.2849,1.3031,1.2916,0.0,0.0,0.0,0.0,0.0,0.0,1.6545,0.0,0.0,0.0,0.0,0.0,0.0,0.0,0.0,0.0,0.0,0.0,0.0,0.0,2.1881,2.2746,2.2237,2.253,2.3048,2.3234,2.211,2.0995,2.1178,2.1094,2.1053,2.1194,2.2166,2.3022,2.3071,2.3091,2.3188,2.346,2.3276,2.3286,2.3826,2.4434,2.5109,2.5996,2.6107,2.5571,2.4077,2.1354,1.91,1.7831,1.7092,1.6354,1.5558,1.5357,1.4987,1.4361,1.3931,1.3609,1.3307,1.3185,1.3052,1.2966,1.2491,1.2229,1.2137,1.1531,1.0713,0.9784,0.8628,0.7593,0.6643,0.5688,0.513,0.4833,0.4555,0.4173,0.3659,0.3167,0.2897,0.2708,0.0,0.0,0.0,0.0,0.0,0.0,0.0,0.0,-0.3255,-0.2493,-0.1952,-0.1238,-0.0211,0.056,0.124,0.1921,0.0,0.0,0.0,0.0,0.0,0.0,0.0,0.0,0.0,0.0,0.8773,0.929,0.9841,1.0173,1.0366,1.082,1.1173,1.1383,1.1816,1.1909,0.0,0.0,0.0,0.0,0.0,0.0,1.5255,0.0,0.0,0.0,0.0,0.0,0.0,0.0,0.0,0.0,0.0,0.0,0.0,0.0,2.0824,2.1676,2.1587,2.2189,2.2856,2.295,2.1927,2.0965,2.1422,2.1291,2.1184,2.1588,2.2405,2.3091,2.3091,2.3188,2.3276,2.3319,2.3276,2.3393,2.3762,2.432,2.5049,2.6094,2.5566,2.4681,2.3479,2.1301,1.9239,1.7556,1.6856,1.6115,1.5303,1.5124,1.4761,1.4196,1.4068,1.3848,1.3525,1.3392,1.3264,1.3094,1.2924,1.279,1.2699,1.23,1.1651,1.079,0.9424,0.8193,0.0,0.5943,0.5246,0.4906,0.4627,0.4301,0.3932,0.352,0.3222,0.3006,0.0,0.0,0.0,0.0,0.0,0.0,0.0,0.0,0.0,0.0,0.0,-0.1339,-0.0921,-0.0038,0.0,0.0,0.0,0.0,0.0,0.0,0.0,0.0,0.0,0.0,0.0,0.6748,0.7049,0.7464,0.7464,0.7655,0.8046,0.8618,0.9231,0.9909,1.0746,1.1104,0.0,0.0,0.0,0.0,0.0,0.0,0.0,0.0,0.0,0.0,0.0,0.0,0.0,0.0,0.0,0.0,0.0,0.0,0.0,0.0,0.0,0.0,0.0,2.1622,2.2207,2.2473,2.1683,2.0954,2.1491,2.158,0.0,2.1877,2.2578,2.3091,2.3091,2.3319,2.3373,2.3144,2.3319,2.3703,2.4258,2.4834,2.5615,2.6826,2.5761,2.4372,2.285,2.1089,1.9243,1.7327,1.6563,1.585,1.4995,1.4669,1.4389,1.4095,1.4349,1.4226,1.3737,1.3695,1.3519,1.3137,1.3075,1.2936,1.2668,1.2403,1.1939,1.1255,1.011,0.885,0.752,0.6419,0.553,0.4835,0.4756,0.4449,0.3994,0.3895,0.3668,0.3319,0.0,0.0,0.0,0.0,0.0,0.0,0.0,0.0,0.0,0.0,0.0,-0.1883,-0.0933,-0.0432,0.0,0.0,0.0,0.0,0.0,0.0,0.0,0.0,0.0,0.0,0.0,0.6115,0.644,0.7049,0.7049,0.7088,0.7207,0.7659,0.806,0.8486,0.9011,0.0,0.0,0.0,0.0,0.0,0.0,0.0,0.0,0.0,0.0,0.0,1.5819,1.6289,0.0,0.0,0.0,0.0,0.0,0.0,0.0,0.0,1.9479,1.9866,2.0115,0.0,2.1506,2.1909,2.142,2.1092,0.0,2.1933,2.1887,2.2275,2.274,2.3091,2.3091,2.3135,2.3178,2.3091,2.3135,2.3374,2.3867,2.5166,2.6191,2.6494,2.6526,2.5531,2.3012,2.1752,2.0227,1.8029,1.6846,1.576,1.4649,1.4556,1.4389,1.4095,1.4155,1.4113,1.4004,1.3779,1.3568,1.3307,1.2973,1.2659,1.2397,1.2131,1.1792,1.139,1.0342,0.9332,0.8333,0.7302,0.6211,0.5188,0.5157,0.4711,0.4043,0.3783,0.3542,0.3364,0.0,0.0,0.0,0.0,0.0,0.0,0.0,0.0,0.0,0.0,0.0,0.0,0.0,0.0,0.0,0.0,0.0,0.0,0.0,0.0,0.0,0.0,0.0,0.0,0.0,0.5509,0.5701,0.611,0.6048,0.6018,0.6057,0.6588,0.7103,0.7626,0.8959,0.0,0.0,0.0,0.0,0.0,1.2663,0.0,0.0,0.0,0.0,0.0,1.4764,1.5173,0.0,1.6609,1.7107,1.743,0.0,0.0,0.0,0.0,1.988,2.0246,2.044,2.0927,2.1371,2.1481,2.1521,2.1639,2.2219,2.2252,2.2295,2.2672,2.2935,2.3091,2.3091,2.3345,2.3457,2.313,2.3521,2.4022,2.4362,2.5195,2.5859,2.6064,2.5928,2.5054,2.3073,2.1748,2.0184,1.8178,1.6622,1.5427,1.4717,1.4439,1.4249,1.4088,1.3955,1.3948,1.4088,1.3822,1.3541,1.3368,1.2886,1.2503,1.2241,1.1766,1.1435,1.1246,1.028,0.9443,0.8698,0.7887,0.6917,0.5872,0.549,0.498,0.4391,0.3924,0.368,0.3569,0.0,0.0,0.0,0.0,0.0,0.0,0.0,0.0,0.0,0.0,0.0,0.0,0.0,0.0,0.0,0.0,0.0,0.0,0.0,0.0,0.0,0.0,0.0,0.0,0.5186,0.5091,0.5091,0.5186,0.5091,0.5053,0.5072,0.5694,0.6339,0.7054,0.9238,0.0,0.0,0.0,1.1922,1.2165,1.229,0.0,0.0,0.0,0.0,0.0,0.0,0.0,0.0,1.5296,1.5844,1.6356,1.8034,0.0,0.0,0.0,0.0,0.0,2.1043,2.1351,2.1539,2.1416,2.1832,2.2288,2.2552,2.2607,2.2672,2.3023,2.3091,2.3091,2.3091,2.357,2.3742,2.3193,2.4106,2.496,2.5331,2.536,2.5361,2.5605,2.4912,2.3984,2.2926,2.1409,1.9796,1.8092,1.6402,1.5268,1.4852,1.4435,1.4146,1.4021,1.3774,1.3741,1.3955,1.366,1.3452,1.3248,1.2795,1.2397,1.2058,1.1394,1.107,1.093,0.0,0.0,0.8852,0.8351,0.7562,0.6554,0.5747,0.5178,0.4759,0.4105,0.3851,0.3819,0.0,0.0,0.0,0.0,0.0,0.0,0.0,0.0,0.0,0.0,0.0,0.0,0.0,0.0,0.0,0.0,0.0,0.0,0.0,0.0,0.0,0.0,0.0,0.0,0.5189,0.517,0.517,0.5186,0.517,0.5214,0.5358,0.5457,0.5826,0.6465,0.7797,0.8571,0.8931,1.0668,1.1412,1.1525,1.2304,0.0,0.0,0.0,0.0,0.0,0.0,0.0,0.0,1.5772,1.6599,1.7166,1.8707,0.0,0.0,0.0,0.0,0.0,2.0586,2.1251,2.1916,2.2227,2.2363,2.2572,2.2906,2.3003,2.3013,2.3081,2.3091,2.3091,2.3091,2.3193,2.3213,2.311,2.4216,2.5429,2.6553,2.6406,2.5937,2.5244,2.4717,2.3812,2.2242,2.1425,2.0224,1.8381,1.7244,1.6022,1.4565,1.4552,1.433,1.3721,1.3858,1.3743,1.3347,1.33,1.316,1.2948,1.2648,1.2184,1.1527,1.1174,1.0802,1.0412,0.0,0.9857,0.9288,0.898,0.8045,0.6782,0.5905,0.5122,0.4409,0.3852,0.3637,0.3623,0.0,0.0,0.0,0.0,0.0,0.0,0.0,0.0,0.0,0.0,0.0,0.0,0.0,0.0,0.0,0.0,0.0,0.0,0.0,0.0,0.0,0.0,0.0,0.0,0.0,0.4471,0.47,0.5186,0.5124,0.5124,0.5181,0.5435,0.5769,0.6262,0.7603,0.8299,0.8593,1.0588,1.1428,1.1603,0.0,0.0,0.0,0.0,0.0,0.0,0.0,0.0,0.0,0.0,1.5302,1.6139,1.7608,0.0,0.0,0.0,0.0,0.0,2.0809,2.1396,2.1992,2.2412,2.2643,2.2857,2.3052,2.3091,2.3091,2.3091,2.3091,2.3091,2.3091,2.3471,2.4062,2.4785,2.5195,2.5635,2.624,2.5557,2.4834,2.4434,2.3594,2.2832,2.2275,2.116,2.0074,1.9241,1.8036,1.679,1.5567,1.5308,1.4828,1.4008,1.3639,1.3285,1.2878,1.2603,1.2528,1.2566,1.2188,1.1747,1.1213,1.0766,1.0436,1.0239,0.0,0.9479,0.9215,0.8962,0.8354,0.7527,0.6803,0.6079,0.5293,0.4291,0.3935,0.3873,0.0,0.0,0.0,0.0,0.0,0.0,0.0,0.0,0.0,0.0,0.0,0.0,0.0,0.0,0.0,0.0,0.0,0.0,0.0,0.0,0.0,0.0,0.0,0.0,0.0,0.3586,0.4003,0.4902,0.4793,0.4873,0.5102,0.5574,0.5925,0.6263,0.7524,0.8159,0.8326,1.0134,1.095,1.117,0.0,0.0,0.0,0.0,0.0,0.0,0.0,0.0,0.0,0.0,0.0,0.0,0.0,0.0,0.0,1.9276,1.9951,2.0362,2.0809,2.1318,2.1836,2.2266,2.2643,2.3033,2.3325,2.3393,2.3422,2.3574,2.3594,2.3535,2.3286,2.3828,2.4668,2.5879,2.5801,2.5606,2.5859,2.4766,2.3896,2.3799,2.2666,2.1973,2.2197,2.0882,1.9993,1.9791,1.8726,1.7594,1.6476,1.5978,1.5275,1.4214,1.3449,1.2872,1.2503,1.2053,1.1948,1.2091,1.1728,1.1366,1.0976,1.0459,1.0136,0.9984,0.9333,0.9065,0.8987,0.8722,0.8416,0.8073,0.7435,0.675,0.5947,0.4855,0.435,0.4126,0.0,0.0,0.0,0.0,0.0,0.0,0.0,0.0,0.0,0.0,0.0,0.0,0.0,0.0,0.0,0.0,0.0,0.0,0.0,0.0,0.0,0.0,0.0,0.0,0.0,0.2797,0.318,0.4016,0.3965,0.4455,0.5385,0.5776,0.6135,0.6479,0.6972,0.7357,0.7721,0.8734,0.9191,0.9376,1.1222,0.0,0.0,0.0,0.0,0.0,0.0,0.0,0.0,0.0,0.0,0.0,0.0,0.0,1.7287,1.8462,1.908,1.9497,1.9858,2.0596,2.1346,2.1816,2.2246,2.2871,2.4053,2.4326,2.4443,2.4891,2.4979,2.4734,2.3887,2.3799,2.4131,2.5067,2.5184,2.5458,2.623,2.5205,2.4228,2.3838,2.2666,2.1738,2.1327,2.0849,2.0215,1.9387,1.9231,1.8376,1.6517,1.6252,1.5432,1.3898,1.3407,1.2897,1.2224,1.1888,1.1641,1.1455,1.1435,1.1167,1.0711,1.0432,0.9995,0.9444,0.9129,0.891,0.8716,0.8423,0.8174,0.7864,0.7192,0.6277,0.5352,0.5258,0.475,0.4082,0.0,0.0,0.0,0.0,0.0,0.0,0.0,0.0,0.0,0.0,0.0,0.0,0.0,0.0,0.0,0.0,0.0,0.0,0.0,0.0,0.0,0.0,0.0,0.033,0.0994,0.155,0.2235,0.3013,0.3703,0.4567,0.566,0.6159,0.6608,0.701,0.7376,0.7621,0.7777,0.8724,0.9191,0.9424,1.1355,1.2245,0.0,0.0,0.0,0.0,0.0,0.0,0.0,0.0,1.3522,1.3954,0.0,1.5983,1.6684,1.7897,1.8777,1.9402,1.9799,2.0762,2.168,2.1846,2.2529,2.328,2.3902,2.4033,2.4072,2.4238,2.4482,2.456,2.4238,2.4404,2.4734,2.5067,2.5303,2.541,2.5195,2.4502,2.3769,2.3076,2.21,2.1375,2.121,2.0586,2.0042,1.9697,1.9659,1.8907,1.7108,1.6821,1.5939,1.4301,1.3373,1.2678,1.2269,1.1809,1.1362,1.0894,1.0892,1.0703,1.0309,0.9934,0.9624,0.9383,0.8953,0.872,0.8616,0.8208,0.7991,0.7843,0.7441,0.7025,0.6588,0.5968,0.5333,0.4722,0.0,0.0,0.0,0.0,0.0,0.0,0.0,0.0,0.0,0.0,0.0,0.0,0.0,0.0,0.0,0.0,0.0,0.0,0.0,0.0,0.0,0.0,0.0,0.0,0.0,0.0567,0.1282,0.2122,0.3467,0.4669,0.5723,0.632,0.6804,0.7184,0.7563,0.7743,0.7794,0.8464,0.8816,0.9052,1.0738,1.1766,0.0,0.0,0.0,0.0,0.0,0.0,0.0,0.0,1.2901,0.0,0.0,0.0,0.0,0.0,1.8138,1.8844,1.9685,2.0635,2.1502,2.1816,2.2549,2.327,2.3707,2.4039,2.432,2.4375,2.446,2.4467,2.4248,2.4401,2.4506,2.4323,2.4521,2.4456,2.3896,2.3447,2.292,2.2197,2.1505,2.1016,2.0791,2.0194,1.9801,1.9717,1.9717,1.9099,1.7684,1.7316,1.6346,1.46,1.3552,1.2728,1.2145,1.156,1.1041,1.0597,1.0407,1.0208,1.0026,0.9557,0.9317,0.924,0.8809,0.8551,0.8456,0.8162,0.7986,0.7854,0.7612,0.7402,0.7171,0.6466,0.5831,0.5198,0.0,0.0,0.0,0.0,0.0,0.0,0.0,0.0,0.0,0.0,0.0,0.0,0.0,0.0,0.0,0.0,0.0,0.0,0.0,0.0,0.0,0.0,0.0,0.0,0.0,0.0,0.0421,0.1302,0.3164,0.4557,0.5526,0.624,0.6657,0.6811,0.7372,0.76,0.7607,0.775,0.7811,0.7921,0.9094,1.0239,1.1225,0.0,0.0,0.0,0.0,0.0,0.0,0.0,1.2656,1.2716,0.0,0.0,0.0,0.0,1.7139,1.7687,1.941,2.0081,2.0564,2.1619,2.2197,2.2744,2.3584,2.4618,2.5461,2.5625,2.5218,2.4608,2.3912,2.3659,2.3268,2.2621,2.251,2.25,2.25,2.2139,2.1719,2.1239,2.0958,2.0544,1.9951,1.9735,1.9525,1.9314,1.9277,1.8893,1.8054,1.7651,1.6598,1.4645,1.4018,1.3096,1.1808,1.1145,1.0733,1.0583,0.9995,0.9778,0.9891,0.9422,0.9128,0.8976,0.8731,0.8448,0.8221,0.8342,0.8157,0.7791,0.7646,0.7227,0.6701,0.6701,0.6189,0.5411,0.0,0.0,0.0,0.0,0.0,0.0,0.0,0.0,0.0,0.0,0.0,0.0,0.0,0.0,0.0,0.0,0.0,0.0,0.0,0.0,0.0,0.0,0.0,0.0,0.0,0.0,0.0431,0.1313,0.2667,0.3878,0.0,0.5985,0.6588,0.6867,0.7179,0.7308,0.7312,0.7547,0.7719,0.7911,0.901,0.9685,1.0151,0.0,0.0,0.0,0.0,0.0,0.0,0.0,0.0,0.0,0.0,0.0,0.0,1.4818,1.6518,1.8186,1.8413,1.9945,2.1403,2.1395,2.2407,2.3381,2.3212,2.4103,2.503,2.5252,2.4915,2.4431,2.3903,2.3757,2.347,2.2637,2.2507,2.2357,2.2048,2.1889,2.165,2.1261,2.0851,2.0532,2.0354,1.9594,1.9077,1.9031,1.8625,1.8155,1.7596,1.6965,1.5965,1.4637,1.3696,1.2724,1.1675,1.1221,1.0755,1.0242,0.9722,0.9505,0.9548,0.9194,0.8985,0.8851,0.8672,0.8547,0.8461,0.8158,0.7974,0.7835,0.7518,0.7273,0.708,0.6804,0.6313,0.5692,0.0,0.0,0.0,0.0,0.0,0.0,0.0,0.0,0.0,0.0,0.0,0.0,0.0,0.0,0.0,0.0,0.0,0.0,0.0,0.0,0.0,0.0,0.0,0.0,0.0,0.0,0.027,0.0,0.0,0.0,0.0,0.5447,0.6203,0.6869,0.7001,0.7089,0.7181,0.7322,0.7536,0.7781,0.8501,0.911,0.9624,0.0,0.0,0.0,0.0,0.0,0.0,0.0,0.0,0.0,0.0,0.0,0.0,1.4435,1.5732,1.7108,1.8098,1.9481,2.0761,2.1089,2.2448,2.3651,2.3443,2.3941,2.4456,2.4546,2.4337,2.3937,2.3398,2.3219,2.2907,2.212,2.196,2.1869,2.1598,2.1558,2.1397,2.0956,2.0578,2.0236,1.9992,1.9123,1.8568,1.851,1.7978,1.7574,1.7334,1.6803,1.5891,1.4561,1.3827,1.2782,1.1401,1.1078,1.0616,1.0097,0.9669,0.9389,0.9189,0.8932,0.8753,0.8682,0.8633,0.8567,0.8475,0.8069,0.7821,0.7629,0.7322,0.7121,0.6953,0.6711,0.6407,0.5991,0.0,0.0,0.0,0.0,0.0,0.0,0.0,0.0,0.0,0.0,0.0,0.0,0.0,0.0,0.0,0.0,0.0,0.0,0.0,0.0,0.0,0.0,0.0,0.0,0.0,0.0,0.0,0.0,0.0,0.0,0.0,0.4727,0.5526,0.6615,0.6722,0.6854,0.7095,0.7082,0.7299,0.759,0.7719,0.8437,0.9396,0.9124,0.0,0.0,0.0,0.0,0.0,0.0,0.0,0.0,1.1492,1.2206,1.3242,1.4681,1.4857,1.5224,1.7956,1.8744,1.9121,2.0656,2.2205,2.3497,2.3927,2.3841,2.367,2.3753,2.361,2.3277,2.2625,2.2341,2.2004,2.1353,2.1244,2.1233,2.1193,2.1183,2.1022,2.0568,2.025,1.9859,1.9288,1.8565,1.8037,1.7928,1.7421,1.716,1.72,1.6995,1.6177,1.4555,1.4249,1.3147,1.1182,1.082,1.0466,1.0053,0.9702,0.9304,0.8873,0.8664,0.8559,0.852,0.8527,0.8461,0.833,0.7985,0.7645,0.7295,0.7135,0.6859,0.6541,0.6526,0.6489,0.6346,0.0,0.0,0.0,0.0,0.0,0.0,0.0,0.0,0.0,0.0,0.0,0.0,0.0,0.0,0.0,0.0,0.0,0.0,0.0,0.0,0.0,0.0,0.0,0.0,0.0,0.0,0.0,0.0,0.0,0.0,0.0,0.3761,0.475,0.5176,0.6043,0.6586,0.6874,0.6937,0.7146,0.7467,0.7455,0.7697,0.8007,0.7848,0.7767,0.0,0.0,0.0,0.0,0.0,0.0,0.0,1.1078,1.1864,1.2629,1.3244,1.4363,1.5586,1.6157,1.7426,1.8743,1.9527,2.0972,2.2342,2.2775,2.2815,2.2878,2.3238,2.3279,2.3113,2.2609,2.2445,2.2267,2.1765,2.1655,2.1532,2.1162,2.112,2.0946,2.0483,2.0077,1.9802,1.9665,1.8731,1.8102,1.807,1.7182,1.6798,1.718,1.6518,1.588,1.5355,1.4601,1.336,1.1676,1.1205,1.0562,0.9709,0.9153,0.8853,0.8754,0.9073,0.898,0.8557,0.8214,0.8034,0.7985,0.7716,0.7536,0.7426,0.7069,0.6881,0.6808,0.6708,0.6645,0.6538,0.0,0.0,0.0,0.0,0.0,0.0,0.0,0.0,0.0,0.0,0.0,0.0,0.0,0.0,0.0,0.0,0.0,0.0,0.0,0.0,0.0,0.0,0.0,0.0,0.0,0.0,0.0,0.0,0.0,0.0965,0.1451,0.3113,0.4238,0.4905,0.5961,0.6596,0.686,0.68,0.699,0.7265,0.7343,0.7461,0.759,0.7512,0.7392,0.7272,0.7773,0.0,0.0,0.0,0.0,0.0,0.0,0.0,1.2236,1.2375,1.3494,1.4797,1.5425,1.6451,1.78,1.974,2.0667,2.1312,2.2292,2.2325,2.217,2.219,2.2366,2.2449,2.2211,2.1983,2.1756,2.1518,2.129,2.1062,2.0788,2.0746,2.0617,2.0162,1.9741,1.9461,1.9461,1.8306,1.7677,1.7903,1.6991,1.6564,1.6798,1.6302,1.582,1.5425,1.462,1.3458,1.1911,1.1358,1.064,0.9699,0.9317,0.9058,0.895,0.8964,0.876,0.8352,0.8265,0.8048,0.7695,0.7558,0.7404,0.7241,0.7024,0.6929,0.6893,0.6815,0.6751,0.6645,0.0,0.0,0.0,0.0,0.0,0.0,0.0,0.0,0.0,0.0,0.0,0.0,0.0,0.0,0.0,0.0,0.0,0.0,0.0,0.0,0.0,0.0,0.0,0.0,0.0,0.0,0.0,0.0,0.0,0.0374,0.1183,0.2536,0.3728,0.4814,0.0,0.657,0.6913,0.6803,0.6895,0.7105,0.7282,0.7407,0.7519,0.7519,0.7441,0.7287,0.7333,0.7206,0.7054,0.7095,0.0,0.0,0.0,0.0,1.1567,1.1773,1.25,1.3543,1.4909,1.5746,1.6917,1.9989,2.0455,2.0527,2.1844,2.1899,2.158,2.1234,2.1414,2.1662,2.1617,2.1286,2.1026,2.1073,2.0751,2.0471,2.0398,2.0377,2.0191,1.9685,1.9289,1.905,1.9017,1.7823,1.7233,1.7668,1.6891,1.6413,1.6413,1.6239,1.5872,1.5303,1.4657,1.3608,1.2096,1.1502,1.0743,0.9799,0.9563,0.927,0.8943,0.8591,0.8303,0.8091,0.8266,0.802,0.7439,0.7432,0.7241,0.7,0.7,0.6964,0.6914,0.6914,0.6851,0.6751,0.0,0.0,0.0,0.0,0.0,0.0,0.0,0.0,0.0,0.0,0.0,0.0,0.0,0.0,0.0,0.0,0.0,0.0,0.0,0.0,0.0,0.0,0.0,0.0,0.0,0.0,0.0,0.0,0.0,0.0047,0.0232,0.1519,0.2693,0.3831,0.4964,0.605,0.7058,0.6916,0.695,0.7098,0.7119,0.7139,0.7156,0.7156,0.7057,0.691,0.7084,0.703,0.6881,0.7054,0.7183,0.0,0.0,0.0,0.9842,1.1224,1.1967,1.2533,1.3741,1.5253,1.6929,1.8545,1.9564,2.0294,2.0693,2.0989,2.1234,2.1345,2.1276,2.112,2.0895,2.0806,2.0799,2.0973,2.0956,2.0776,2.0363,2.031,1.9982,1.9125,1.8966,1.886,1.8678,1.782,1.7383,1.7668,1.6891,1.6413,1.6413,1.6374,1.6131,1.5646,1.5157,1.41,1.2447,1.1942,1.1049,0.9792,0.9129,0.8494,0.7916,0.8136,0.8164,0.7986,0.757,0.7325,0.7228,0.7109,0.704,0.7,0.7,0.7006,0.6979,0.6979,0.6985,0.6943,0.0,0.0,0.0,0.0,0.0,0.0,0.0,0.0,0.0,0.0,0.0,0.0,0.0,0.0,0.0,0.0,0.0,0.0,0.0,0.0,0.0,0.0,0.0,0.0,0.0,0.0,0.0,0.0,0.0,0.0,0.0,0.0837,0.2061,0.3657,0.5005,0.6124,0.6977,0.6997,0.6994,0.6987,0.7065,0.7095,0.7095,0.7095,0.7054,0.6966,0.7051,0.7054,0.6966,0.7051,0.7095,0.7183,0.758,0.0,0.0,0.0,1.0838,1.2211,1.3406,1.4773,1.615,1.7361,1.8241,1.8966,1.9668,1.9966,2.0133,2.0242,2.0226,2.0343,2.0786,2.0656,2.0511,2.0591,2.0379,2.0124,1.9956,1.9924,1.9669,1.8977,1.8669,1.8478,1.8364,1.755,1.7143,1.7456,1.6882,1.6477,1.6413,1.6164,1.5898,1.5728,1.4987,1.4109,1.3074,1.2523,1.1509,1.0012,0.9019,0.8327,0.799,0.7946,0.7852,0.7709,0.7673,0.7467,0.7195,0.7146,0.707,0.7,0.7,0.7,0.7,0.7,0.7,0.7,0.0,0.0,0.0,0.0,0.0,0.0,0.0,0.0,0.0,0.0,0.0,0.0,0.0,0.0,0.0,0.0,0.0,0.0,0.0,0.0,0.0,0.0,0.0,0.0,0.0,0.0,0.0,0.0,0.0,0.0,0.0,0.0438,0.1572,0.3299,0.4829,0.5911,0.6635,0.6947,0.7058,0.7048,0.7068,0.7119,0.7149,0.7109,0.7095,0.7095,0.7095,0.7095,0.7095,0.7095,0.7095,0.7095,0.7095,0.7753,0.0,0.0,0.0,1.1824,1.3067,1.4079,1.511,1.63,1.71,1.7926,1.893,1.9112,1.9192,1.937,1.9289,1.9455,2.0292,2.0313,2.0238,2.0373,2.0005,1.978,1.9835,1.9769,1.9522,1.8912,1.8633,1.8378,1.8093,1.7461,1.7137,1.7341,1.6929,1.6581,1.6459,1.6012,1.5683,1.5515,1.4728,1.3992,1.3326,1.2495,1.1423,1.0144,0.895,0.8304,0.8114,0.7829,0.7642,0.7558,0.7774,0.7638,0.7272,0.7251,0.7181,0.7105,0.7105,0.7105,0.7091,0.707,0.7048,0.7048,0.0,0.0,0.0,0.0,0.0,0.0,0.0,0.0,0.0,0.0,0.0,0.0,0.0,0.0,0.0,0.0,0.0,0.0,0.0,0.0,0.0,0.0,0.0,0.0,0.0,0.0,0.0,0.0,0.0,0.0,0.0,0.0305,0.1032,0.2233,0.3734,0.4905,0.5806,0.6724,0.7221,0.7336,0.7152,0.7227,0.7343,0.7197,0.7095,0.7095,0.7095,0.7095,0.7095,0.7095,0.7095,0.7095,0.7095,0.7323,0.7731,0.0,0.0,0.0,1.226,1.3006,1.383,1.5289,1.6594,1.7709,1.8528,1.8678,1.8802,1.9367,1.8884,1.8478,1.8846,1.9459,2.0064,2.0519,2.0313,2.0172,2.0506,2.027,1.9726,1.8809,1.9082,1.8922,1.7822,1.7744,1.7675,1.749,1.7055,1.6722,1.6609,1.6129,1.5624,1.5049,1.4562,1.384,1.2852,1.1351,1.0405,1.0001,0.8923,0.8228,0.79,0.7761,0.7691,0.7691,0.7566,0.7517,0.7482,0.7412,0.7377,0.7377,0.7377,0.7377,0.737,0.723,0.7195,0.7167,0.0,0.0,0.0,0.0,0.0,0.0,0.0,0.0,0.0,0.0,0.0,0.0,0.0,0.0,0.0,0.0,0.0,0.0,0.0,0.0,0.0,0.0,0.0,0.0,0.0,0.0,0.0,0.0,0.0,0.0,0.0,0.0256,0.0673,0.1237,0.3312,0.4768,0.5769,0.6824,0.7319,0.7402,0.7204,0.7234,0.7398,0.72,0.7095,0.7095,0.7095,0.7204,0.7288,0.7288,0.7198,0.7066,0.7243,0.7112,0.7142,0.8317,0.9093,0.9855,1.1061,1.1717,1.2414,1.3838,1.4708,1.5553,1.6843,1.7128,1.7369,1.8167,1.8224,1.8245,1.8707,1.9363,1.9944,2.0237,2.0571,2.0839,2.0967,2.0679,2.0166,1.9563,1.9423,1.9017,1.7999,1.7912,1.7723,1.7216,1.7034,1.6753,1.6316,1.5823,1.5305,1.47,1.423,1.3617,1.2865,1.1219,1.0285,1.0108,0.8872,0.8145,0.7891,0.7857,0.7836,0.7816,0.7683,0.7572,0.7502,0.7468,0.7447,0.7398,0.7398,0.7398,0.7391,0.7356,0.7335,0.7314,0.0,0.0,0.0,0.0,0.0,0.0,0.0,0.0,0.0,0.0,0.0,0.0,0.0,0.0,0.0,0.0,0.0,0.0,0.0,0.0,0.0,0.0,0.0,0.0,0.0,0.0,0.0,0.0,0.0,0.0,0.0,0.0167,0.037,0.0685,0.2625,0.4136,0.5283,0.6364,0.705,0.7402,0.7204,0.7265,0.7431,0.7278,0.7251,0.7243,0.7234,0.7285,0.7363,0.7222,0.7073,0.6982,0.716,0.7037,0.7006,0.7865,0.8315,0.879,0.9888,1.0517,1.1218,1.2799,1.3526,1.4251,1.5857,1.6246,1.651,1.7279,1.7423,1.7557,1.7984,1.8561,1.9265,2.0138,2.0796,2.1221,2.1348,2.1031,2.0615,2.0127,2.001,1.9629,1.8651,1.8475,1.8148,1.7547,1.7249,1.6817,1.6191,1.5711,1.509,1.4279,1.3808,1.3363,1.2905,1.1338,1.0514,1.0452,0.9063,0.8337,0.8193,0.8015,0.7933,0.7933,0.785,0.7746,0.7635,0.7593,0.7538,0.7503,0.7503,0.7503,0.7503,0.7454,0.7433,0.7412,0.0,0.0,0.0,0.0,0.0,0.0,0.0,0.0,0.0,-0.0847,0.0,0.0,0.0,0.0,0.0,0.0,0.0,0.0,0.0,0.0,0.0,0.0,0.0,0.0,0.0,0.0,0.0,0.0,0.0,0.0,0.0,0.0,0.0201,0.063,0.1606,0.2873,0.4246,0.5264,0.6373,0.7409,0.7204,0.7277,0.7584,0.7424,0.7458,0.7567,0.7417,0.7412,0.735,0.6936,0.6805,0.6805,0.6792,0.7001,0.7254,0.713,0.7441,0.7961,0.0,0.0,0.0,1.2246,1.3206,1.4056,1.5578,1.6101,1.6392,1.6783,1.6585,1.6364,1.6555,1.7002,1.8051,2.0178,2.0869,2.1262,2.162,2.1368,2.0974,2.0477,2.0848,2.0768,1.9798,1.9399,1.9018,1.8513,1.7738,1.7004,1.6337,1.5831,1.5042,1.3842,1.3349,1.3029,1.2884,1.1615,1.098,1.097,0.9508,0.88,0.88,0.8259,0.8021,0.8021,0.8,0.7966,0.7891,0.7753,0.7691,0.7691,0.7691,0.7691,0.7691,0.7551,0.7502,0.7502,0.0,0.0,0.0,0.0,0.0,0.0,0.0,0.0,-0.2992,0.0,0.0,0.0,0.0,0.0,0.0,0.0,0.0,0.0,0.0,0.0,0.0,0.0,0.0,0.0,0.0,0.0,0.0,0.0,0.0,0.0,0.0,0.0,0.0,0.0,0.0932,0.22,0.4145,0.5232,0.6433,0.7512,0.7203,0.7277,0.757,0.7305,0.7186,0.7216,0.7176,0.7275,0.7366,0.7054,0.688,0.6771,0.6474,0.6726,0.713,0.6923,0.7163,0.7545,0.8005,0.0,0.0,0.0,0.0,0.0,1.4066,1.4932,1.564,1.6023,1.6324,1.6519,1.6587,1.7451,1.8383,1.8982,1.9533,2.0052,2.0472,2.0248,2.016,2.0506,2.0459,2.025,1.9873,1.9441,1.89,0.0,1.7608,1.706,1.6477,1.5585,1.4787,1.4104,1.3212,1.2711,1.2603,1.1247,1.0538,1.0479,0.9433,0.9079,0.9279,0.85,0.8296,0.8557,0.8157,0.8049,0.8106,0.7919,0.7795,0.7691,0.7691,0.7691,0.7691,0.767,0.7642,0.7621,0.0,0.0,0.0,0.0,0.0,0.0,0.0,0.0,-0.2999,0.0,0.0,0.0,0.0,0.0,0.0,0.0,0.0,0.0,0.0,0.0,0.0,0.0,0.0,0.0,0.0,0.0,0.0,0.0,0.0,0.0,0.0,0.0,0.0,0.0,0.0,0.1867,0.394,0.4713,0.5924,0.7309,0.7142,0.7288,0.7485,0.7305,0.7275,0.7277,0.7258,0.7336,0.7448,0.705,0.6791,0.6563,0.622,0.6419,0.6757,0.6739,0.6846,0.7097,0.7438,0.7799,0.8268,0.9365,0.0,0.0,1.2399,1.3295,1.4117,1.4665,1.5115,1.5532,1.5938,1.6655,1.7268,1.7441,1.7951,1.8677,1.9684,1.9533,1.9522,2.0074,2.0301,2.0316,2.0023,1.964,1.9125,1.8438,1.7721,1.6972,1.6247,1.5434,1.4744,1.421,1.3387,1.285,1.2542,1.152,1.0871,1.0622,0.9883,0.9646,0.9804,0.9099,0.8817,0.8857,0.8553,0.8345,0.8196,0.8064,0.7919,0.7774,0.7774,0.7753,0.7691,0.7691,0.7691,0.7691,0.0,0.0,0.0,0.0,0.0,0.0,0.0,0.0,0.0,0.0,-0.0388,0.0,0.0,0.0,0.0,0.0,0.0,0.0,0.0,0.0,0.0,0.0,0.0,0.0,0.0,0.0,0.0,0.0,0.0,0.0,0.0,0.0,0.0,0.0,0.0,0.0,0.3557,0.4024,0.5173,0.6787,0.6987,0.7234,0.7415,0.7398,0.7431,0.7529,0.7394,0.7431,0.7462,0.6943,0.6624,0.6345,0.6111,0.6196,0.6385,0.6544,0.6602,0.6705,0.7057,0.7323,0.7774,0.8851,0.9539,0.0,1.0803,1.1604,1.2444,1.3149,1.3546,1.4021,1.4959,1.5283,1.5507,1.5891,1.6355,1.7292,1.905,1.8964,1.8902,1.9283,2.0051,2.0385,1.989,1.9629,1.928,1.8805,1.7868,1.6907,1.5906,1.5421,1.4882,1.4244,1.3767,1.3226,1.2627,1.2097,1.1582,1.1082,1.0564,1.0322,1.0341,0.9825,0.941,0.9056,0.9016,0.87,0.8216,0.8216,0.8085,0.7899,0.7899,0.7816,0.7691,0.7691,0.7691,0.7691,-0.8582,0.0,0.0,0.0,0.0,0.0,0.0,0.0,-0.3494,-0.2241,-0.088,0.0,0.0,0.0,0.0,0.0,0.0,0.0,0.0,0.0,0.0,0.0,0.0,0.0,0.0,0.0,0.0,0.0,0.0,0.0,0.0,0.0,0.0,0.0,0.0,0.0,0.2572,0.3712,0.4789,0.5835,0.6726,0.7234,0.7402,0.7234,0.7159,0.7183,0.7149,0.7159,0.7148,0.6759,0.6523,0.6375,0.6327,0.6412,0.6548,0.6664,0.6731,0.6795,0.6875,0.7311,0.775,0.7825,0.9005,0.0,1.0142,1.1277,1.243,1.2684,1.3351,1.4036,1.467,1.5087,1.5444,1.5774,1.5875,1.6389,1.7692,1.7818,1.7864,1.818,1.8366,1.8405,1.8246,1.8211,1.8112,1.7937,1.7727,1.7221,1.6252,1.5865,1.5266,1.4382,1.3914,1.3368,1.2764,1.228,1.1719,1.1082,1.0612,1.0525,1.0766,0.9962,0.9559,0.9469,0.9128,0.8761,0.8353,0.8353,0.8188,0.7899,0.7899,0.7816,0.7691,0.7691,0.7691,0.7691,-0.8494,0.0,0.0,0.0,0.0,0.0,0.0,0.0,-0.4069,-0.2526,-0.0952,0.0,0.0,0.0,0.0,0.0,0.0,0.0,0.0,0.0,0.0,0.0,-0.0146,-0.0147,0.0,-0.0144,-0.0142,0.0,0.0,0.0,0.0,0.0,0.0,0.0,0.0,0.1124,0.2163,0.3581,0.4694,0.5588,0.667,0.7142,0.7248,0.7125,0.7095,0.7095,0.7095,0.7095,0.7074,0.6772,0.6545,0.6363,0.6106,0.6148,0.6318,0.6429,0.6536,0.6678,0.6762,0.7042,0.7319,0.7451,0.8197,0.0,0.0,0.9675,1.0513,1.0891,1.1714,1.2678,1.3612,1.4393,1.4999,1.5429,1.5635,1.5964,1.6585,1.6803,1.7013,1.7365,1.778,1.7921,1.7629,1.8012,1.8185,1.7923,1.7901,1.7591,1.6883,1.633,1.5712,1.4969,1.4367,1.3663,1.2869,1.2578,1.2054,1.1263,1.0919,1.0843,1.0987,1.0477,1.0001,0.9579,0.939,0.8967,0.8394,0.8394,0.827,0.8044,0.7974,0.7891,0.7795,0.7732,0.7691,0.7691,-0.831,0.0,0.0,0.0,0.0,0.0,0.0,0.0,-0.4568,-0.2417,-0.0925,0.0,0.0,0.0,0.0,0.0,0.0,0.0,0.0,0.0,0.0,0.0,-0.0243,-0.0289,-0.0096,-0.0283,-0.028,0.0,0.0,0.0,0.0,0.0,0.0,0.0,0.0,0.0944,0.1793,0.3429,0.4578,0.5367,0.6592,0.7095,0.7095,0.7095,0.7095,0.7095,0.7095,0.7095,0.7071,0.674,0.6523,0.6301,0.5899,0.585,0.5975,0.6191,0.6318,0.6437,0.6671,0.6741,0.6842,0.725,0.7369,0.7486,0.0,0.0,0.0,0.9099,1.0155,1.1327,1.2395,1.3504,1.4362,1.479,1.5282,1.5631,1.559,1.5954,1.6283,1.6515,1.7243,1.7517,1.7012,1.7988,1.8508,1.8113,1.826,1.8078,1.752,1.6812,1.6137,1.5529,1.4865,1.4056,1.3074,1.2902,1.2395,1.1532,1.1257,1.1111,1.1111,1.0968,1.0477,0.9717,0.9638,0.9191,0.8516,0.8435,0.8332,0.8229,0.809,0.7987,0.7912,0.7787,0.7753,0.774,-0.8314,-0.8028,0.0,0.0,0.0,0.0,0.0,0.0,-0.4979,-0.2366,-0.0828,0.0,0.0,0.0,0.0,0.0,0.0,0.0,0.0,0.0,0.0,0.0,-0.0251,-0.0398,-0.0343,-0.0391,-0.0383,-0.037,0.0,0.0,0.0,0.0,0.0,0.0,0.025,0.0535,0.0961,0.3056,0.4109,0.4491,0.6364,0.7095,0.7095,0.7095,0.7095,0.7095,0.7095,0.7095,0.701,0.658,0.6399,0.636,0.5999,0.5794,0.5829,0.6261,0.62,0.6067,0.6437,0.6577,0.6623,0.6683,0.6988,0.7292,0.7498,0.0,0.8568,0.881,0.0,1.1315,1.1448,0.0,0.0,1.3614,1.4402,1.4966,1.4828,1.541,1.5713,1.5342,1.5721,1.5815,1.5398,1.7073,1.8113,1.8023,1.8776,1.8815,1.7817,1.7219,1.6471,1.554,1.5196,1.457,1.3619,1.3139,1.2608,1.2016,1.1463,1.1158,1.1111,1.0968,1.0641,1.0196,0.9785,0.9339,0.8903,0.8537,0.8394,0.8353,0.8237,0.8098,0.7979,0.7979,0.7925,0.7915,-0.831,-0.7982,-0.7784,0.0,0.0,0.0,0.0,0.0,0.0,-0.3103,-0.1214,0.0,0.0,0.0,0.0,0.0,0.0,0.0,0.0,0.0,-0.0051,-0.0202,-0.05,-0.0643,-0.0638,-0.0728,-0.0667,-0.0416,-0.0278,0.0,0.0,0.0,0.0,0.0,0.0211,0.0459,0.0843,0.2978,0.4036,0.4377,0.6327,0.7095,0.7095,0.7095,0.7095,0.7095,0.7095,0.7045,0.693,0.6496,0.6318,0.6195,0.5647,0.5604,0.5735,0.6021,0.6077,0.6119,0.6418,0.6507,0.6556,0.6585,0.6718,0.6911,0.7096,0.7455,0.775,0.7686,0.0,0.0,0.0,0.0,0.0,0.0,1.3191,1.3741,1.3771,1.4316,1.4884,1.5437,1.5835,1.6068,1.6095,1.6847,1.7437,1.7647,1.8238,1.8424,1.7997,1.7357,1.6796,1.6381,1.5538,1.4777,1.4123,1.3619,1.2944,1.2103,1.176,1.142,1.1111,1.0968,1.0679,1.0303,1.0098,0.9617,0.8984,0.8814,0.8618,0.8394,0.8332,0.8229,0.8098,0.8021,0.7979,0.7989,-0.8397,-0.8032,-0.7841,-0.774,0.0,0.0,0.0,0.0,-0.4117,-0.3674,-0.1757,-0.0327,-0.0055,0.0,0.0,0.0,0.0,-0.0053,-0.0105,-0.0104,-0.0205,-0.0505,-0.0748,-0.0888,-0.0933,-0.106,-0.0944,-0.0601,0.0,0.0,0.0,0.0,0.0,0.0,0.0129,0.0384,0.0729,0.2634,0.3693,0.4282,0.6034,0.6851,0.7045,0.7082,0.7071,0.7038,0.7038,0.6947,0.678,0.6354,0.6184,0.0,0.5415,0.5371,0.5585,0.5697,0.5857,0.6019,0.6255,0.6331,0.6347,0.6475,0.6525,0.6553,0.6694,0.6859,0.6898,0.6746,0.7503,0.0,0.0,0.0,1.0629,1.1015,0.0,1.2253,1.2502,1.3074,1.3913,1.5117,1.5682,1.6149,1.6628,1.7025,1.7244,1.724,1.7969,1.8288,1.7943,1.7434,1.7133,1.6998,1.6012,1.5203,1.4604,1.4145,1.3412,1.2471,1.2101,1.1683,1.126,1.102,1.0679,1.0303,1.0303,0.9863,0.9148,0.9036,0.8895,0.8704,0.8496,0.8358,0.8258,0.8162,0.809,0.8064,-0.8575,-0.8273,-0.7982,-0.7975,-0.7975,0.0,0.0,-0.6431,-0.5063,-0.3764,-0.2421,-0.1127,-0.0109,0.0,0.0,0.0,0.0,-0.0105,-0.0373,-0.0413,-0.0505,-0.0758,-0.106,-0.1201,-0.1179,-0.1204,-0.118,-0.1064,0.0,0.0,0.0,0.0,0.0,0.0,-0.0089,0.0176,0.0491,0.1662,0.2849,0.4014,0.527,0.6224,0.6906,0.7045,0.7011,0.6893,0.6893,0.0,0.0,0.6165,0.5999,0.0,0.0,0.0,0.0,0.5283,0.5326,0.5404,0.5831,0.5909,0.5986,0.6261,0.63,0.6297,0.6327,0.6325,0.6309,0.6251,0.7137,0.7834,0.7503,0.8687,0.9622,0.9338,0.9852,0.0,0.0,1.1806,1.2736,1.3748,1.4672,1.5523,1.6254,1.7605,1.7991,1.691,1.8509,1.8918,1.749,1.7595,1.7465,1.6998,1.6651,1.5996,1.5094,1.4602,1.4065,1.3443,1.2391,1.1812,1.166,1.1135,1.0679,1.0303,1.0303,1.003,0.954,0.9168,0.9219,0.948,0.8704,0.8446,0.8472,0.8407,0.8311,0.8242,-0.8724,-0.8347,-0.7988,-0.7988,-0.7988,-0.7922,-0.7766,-0.6665,-0.5365,-0.3905,-0.263,-0.1392,-0.0115,0.0,0.0,0.0,0.0,-0.0053,-0.0155,-0.0309,-0.0509,-0.0794,-0.1054,-0.1259,-0.1452,-0.1474,-0.1357,-0.1155,-0.1024,0.0,0.0,0.0,0.0,0.0,0.0,0.0129,0.0483,0.148,0.2674,0.4057,0.5807,0.6668,0.6879,0.6868,0.682,0.6776,0.6776,0.6678,0.0,0.6062,0.59,0.5794,0.5229,0.5127,0.5202,0.528,0.5282,0.0,0.0,0.0,0.5673,0.5809,0.0,0.5788,0.5902,0.594,0.5948,0.5949,0.626,0.6554,0.6432,0.7196,0.7863,0.7879,0.8543,0.9354,0.0,1.1524,1.2831,1.3691,1.4284,1.4843,1.5463,1.5769,1.585,1.5754,1.6384,1.6795,1.6874,1.6937,1.7041,1.7192,1.6753,1.6193,1.5571,1.5105,1.4367,1.3374,1.269,1.2109,1.1611,1.1126,1.0824,1.0709,1.0709,1.0467,1.003,0.9569,0.9489,0.952,0.8712,0.8585,0.8771,0.8213,0.7826,0.7709,-0.8806,-0.8432,-0.8088,-0.8041,-0.7988,-0.7922,-0.7762,-0.6785,-0.5463,-0.3917,-0.2731,-0.1525,-0.0173,0.0,0.0,0.0,0.0,-0.0052,-0.0152,-0.0406,-0.0657,-0.0943,-0.1205,-0.1415,-0.1617,-0.1587,-0.1517,-0.1312,-0.127,-0.1157,0.0,0.0,0.0,0.0,0.0,0.0086,0.0305,0.0999,0.2019,0.3342,0.5368,0.622,0.6331,0.6477,0.6576,0.662,0.0,0.6522,0.6357,0.5921,0.5759,0.5625,0.5157,0.5067,0.5142,0.5137,0.5139,0.5169,0.5357,0.5355,0.0,0.5469,0.5473,0.0,0.5491,0.5538,0.5528,0.5443,0.5494,0.5524,0.5591,0.6013,0.6437,0.6593,0.7153,0.8025,0.0,1.1082,1.2481,1.3175,1.3835,1.4374,1.4803,1.4933,1.4898,1.4655,1.5442,1.5968,1.5995,1.6476,1.6909,1.7278,1.6961,1.6504,1.5983,1.5557,1.4793,1.3727,1.2967,1.2331,1.184,1.1179,1.0824,1.0679,1.0843,1.066,1.0283,0.9971,0.9923,0.9971,0.8987,0.879,0.895,0.8272,0.7969,0.7986,-0.8874,-0.8581,-0.8287,-0.8038,-0.7988,-0.7895,-0.7653,-0.6795,-0.5605,-0.3811,-0.2768,-0.1622,-0.0168,0.0,0.0,0.0,0.0,-0.0101,-0.0402,-0.0643,-0.0939,-0.1207,-0.146,-0.1612,-0.1612,-0.1585,-0.1556,-0.1478,-0.1497,0.0,0.0,0.0,0.0,0.0,-0.0219,0.0,0.0,0.026,0.0965,0.2044,0.4085,0.5038,0.5333,0.6041,0.6378,0.6491,0.6501,0.6409,0.6212,0.5744,0.5583,0.5503,0.5115,0.4999,0.4977,0.4822,0.4787,0.4838,0.4944,0.4978,0.5012,0.5228,0.5254,0.0,0.0,0.0,0.5046,0.4855,0.4797,0.4861,0.5057,0.5259,0.5425,0.555,0.5818,0.6701,0.8769,1.0439,1.1669,1.2208,1.3299,1.4088,1.4321,1.5072,1.5019,1.3721,1.5659,1.6336,1.5003,1.622,1.7065,1.7278,1.7278,1.6944,1.6246,1.5925,1.5347,1.4447,1.3198,1.2489,1.2276,1.1333,1.0679,1.0341,1.0728,1.0679,1.0322,1.0303,1.0545,1.0766,0.9516,0.9078,0.9068,0.8538,0.8635,0.9021,-0.8874,-0.8432,-0.8088,-0.7988,-0.7988,-0.7925,-0.7778,-0.7757,-0.6766,-0.4084,-0.3692,-0.2702,-0.028,0.0,0.0,0.0,0.0,-0.0098,-0.038,-0.0669,-0.0909,-0.1137,-0.1393,-0.1549,-0.1549,-0.1564,-0.1556,-0.1478,-0.1519,0.0,-0.148,0.0,0.0,0.0,0.0,0.0,0.0,0.0083,0.1088,0.2804,0.4296,0.5332,0.5981,0.0,0.6213,0.6159,0.6313,0.6178,0.5896,0.5598,0.5346,0.5117,0.4856,0.4783,0.4777,0.4744,0.4736,0.4728,0.477,0.4695,0.468,0.4809,0.4833,0.4776,0.0,0.0,0.0,0.0,0.0,0.0,0.0,0.5024,0.5186,0.5219,0.6367,0.7806,0.9428,1.051,1.1337,1.1914,1.2224,1.2698,1.3508,1.3551,1.359,1.3745,1.4224,1.4669,1.51,0.0,1.6588,1.6924,1.6931,1.6496,1.5636,1.5534,1.4988,1.3965,1.2984,1.2436,1.2276,1.1333,1.0843,1.0747,1.0862,1.0843,1.0728,1.0419,1.0545,1.0805,0.9834,0.9456,0.933,0.805,0.8414,0.9464,-0.8874,-0.8382,-0.7988,-0.7988,-0.8096,-0.8116,-0.8047,-0.78,-0.6786,-0.4457,-0.3757,-0.2644,-0.0596,-0.0158,-0.0051,-0.0146,-0.0048,-0.0095,-0.0371,-0.0655,-0.0893,-0.1078,-0.1374,-0.1478,-0.1478,-0.1543,-0.1536,-0.1506,-0.1506,0.0,-0.146,0.0,0.0,0.0,0.0,0.0,0.0,0.0,0.0702,0.194,0.338,0.4386,0.0,0.5748,0.6029,0.5996,0.5945,0.5821,0.5635,0.5454,0.5222,0.4984,0.4837,0.4762,0.4715,0.4695,0.4646,0.4597,0.4547,0.4484,0.4446,0.4514,0.4498,0.4481,0.4518,0.4549,0.4564,0.0,0.4564,0.4564,0.0,0.4761,0.502,0.5451,0.6695,0.8027,0.9372,1.0193,1.0861,1.1484,1.1621,1.2007,1.2873,1.2689,1.2733,1.3338,1.3621,1.4122,0.0,0.0,1.6377,1.6782,1.6818,1.6524,1.5929,1.5579,1.5035,1.431,1.3076,1.2425,1.2276,1.1333,1.091,1.091,1.091,1.091,1.0881,1.066,1.0709,1.0824,1.0176,0.9785,0.9505,0.8616,0.9127,1.0205,-0.8825,-0.8333,-0.7988,-0.7988,-0.8167,-0.8313,-0.8245,-0.7466,-0.6376,-0.496,-0.3561,-0.2302,-0.1084,-0.0399,-0.0144,-0.0371,-0.0138,-0.0138,-0.0415,-0.0645,-0.0882,-0.1135,-0.1372,-0.1467,-0.1467,-0.1467,-0.1501,-0.1475,-0.1475,0.0,0.0,0.0,0.0,0.0,0.0,0.0,0.0,0.0,0.0165,0.0567,0.2181,0.3067,0.3663,0.513,0.5787,0.5909,0.5617,0.5493,0.5421,0.5236,0.5084,0.4932,0.4896,0.4786,0.4692,0.4656,0.4553,0.446,0.4327,0.43,0.4298,0.4281,0.4289,0.4298,0.4281,0.4289,0.43,0.43,0.43,0.43,0.0,0.0,0.5001,0.6174,0.6961,0.7851,0.9053,0.9738,1.0397,1.1007,1.1194,0.0,1.2368,1.2233,1.2318,1.2831,1.3558,1.4181,0.0,0.0,1.6357,1.6744,1.6761,1.6673,1.6486,1.5733,1.519,1.4883,1.3313,1.2456,1.2276,1.1395,1.0962,1.091,1.091,1.091,1.091,1.091,1.091,1.0862,1.0467,1.0069,0.9756,0.9697,1.0315,1.1092,-0.8581,-0.8237,-0.7988,-0.7988,-0.8167,-0.8228,-0.8099,-0.8028,-0.7416,-0.5821,-0.4718,-0.3523,-0.203,-0.0957,-0.0326,-0.0417,-0.0137,-0.0181,-0.0631,-0.0676,-0.0903,-0.1315,-0.1406,-0.1406,-0.1406,-0.1406,-0.1403,-0.1398,-0.1398,-0.1395,0.0,0.0,0.0,0.0,-0.0206,0.0,0.0,0.0,0.0,0.1222,0.2363,0.326,0.4094,0.5246,0.5654,0.5577,0.5575,0.5414,0.5164,0.5129,0.4918,0.4661,0.4661,0.4628,0.4588,0.4403,0.4364,0.4325,0.4306,0.43,0.4276,0.4175,0.4227,0.4273,0.4172,0.4227,0.43,0.43,0.43,0.43,0.43,0.0,0.0,0.733,0.7614,0.8075,0.9559,0.9819,1.0124,1.0857,1.0384,1.0613,1.2102,1.2097,1.2369,1.3149,1.3584,1.4098,0.0,0.0,1.6164,0.0,1.6459,0.0,0.0,0.0,1.4852,1.4417,1.3354,1.2639,1.2287,1.1726,1.1261,1.091,1.091,1.091,1.091,1.091,1.091,1.0862,1.0467,1.0438,1.0622,1.0293,1.0974,1.19,-0.8287,-0.8088,-0.7965,-0.7884,-0.8048,-0.8075,-0.7845,-0.7479,-0.6729,-0.5445,-0.4253,-0.3088,-0.1903,-0.1066,-0.0544,-0.0539,-0.0356,-0.0352,-0.0695,-0.0702,-0.0879,-0.1347,-0.136,-0.1405,-0.1346,-0.1346,-0.1354,-0.1412,-0.1412,-0.142,-0.1389,0.0,0.0,-0.0673,0.0243,0.0674,0.0,0.0,0.0,0.1994,0.2932,0.3645,0.4244,0.5149,0.5503,0.5534,0.5385,0.5227,0.5088,0.5088,0.491,0.4728,0.4824,0.4725,0.4595,0.4564,0.4434,0.4287,0.4224,0.4205,0.4178,0.4021,0.4035,0.4062,0.4005,0.4038,0.4078,0.4078,0.4162,0.4224,0.4289,0.4677,0.0,0.0,0.7419,0.8184,0.9214,0.9417,0.9716,1.0432,0.9898,1.0065,1.1689,1.172,1.2047,1.307,1.3297,1.3767,0.0,0.0,1.5845,0.0,0.0,0.0,1.5691,0.0,0.0,1.4293,1.3338,1.2791,1.2586,1.1913,1.1477,1.125,1.1003,1.091,1.091,1.091,1.091,1.0881,1.069,1.0728,1.0881,1.0679,1.1175,1.1809,-0.8088,-0.7965,-0.7904,-0.7831,-0.7885,-0.7855,-0.759,-0.6581,-0.5662,-0.5099,-0.3688,-0.2463,-0.1826,-0.1165,-0.0748,-0.0779,-0.0559,-0.0511,-0.0712,-0.0723,-0.0893,-0.1288,-0.1356,-0.1361,-0.1297,-0.129,-0.1346,-0.1381,-0.1338,0.0,0.0,0.0,0.0,0.0,0.0,0.0,0.0,0.0,0.2496,0.252,0.3457,0.3909,0.417,0.4974,0.541,0.55,0.5242,0.5156,0.515,0.512,0.4998,0.4894,0.5057,0.4869,0.462,0.4689,0.4474,0.4202,0.4073,0.4046,0.4016,0.3895,0.3884,0.3897,0.3873,0.3887,0.3903,0.3903,0.4,0.4188,0.4408,0.5005,0.0,0.0,0.0,0.837,0.8942,0.9125,0.9405,1.0038,0.9693,0.9883,1.1122,1.1377,1.1824,1.2661,1.2902,1.3445,1.4449,0.0,0.0,0.0,0.0,1.6314,1.5925,0.0,1.4759,1.4293,1.3442,1.2998,1.2874,1.211,1.1685,1.156,1.1096,1.091,1.091,1.091,1.091,1.091,1.091,1.091,1.091,1.091,1.1199,1.1529,-0.8088,-0.7877,-0.7828,-0.7814,-0.7716,-0.7584,-0.7417,-0.5865,-0.4935,-0.5677,-0.4024,-0.2749,-0.2706,-0.1672,-0.0974,-0.0972,-0.0746,-0.0655,-0.0858,-0.09,-0.1013,-0.1307,-0.1294,-0.1309,-0.1307,-0.132,-0.1294,-0.1309,-0.1141,-0.1057,0.0,0.0,0.0,0.0,0.0,0.0,0.0,0.2464,0.2436,0.2387,0.3396,0.3793,0.3855,0.4906,0.5306,0.5321,0.5346,0.5362,0.5338,0.5167,0.5078,0.509,0.5087,0.4869,0.458,0.4458,0.4184,0.3935,0.3924,0.3922,0.3892,0.383,0.3854,0.3876,0.3824,0.3854,0.3903,0.3903,0.4,0.4282,0.4899,0.5337,0.5994,0.0,0.0,0.8835,0.9353,0.9446,0.9556,0.9803,0.9932,1.0117,1.0373,1.1438,1.2019,1.1833,1.2534,1.3225,0.0,0.0,0.0,1.6205,1.6577,1.6716,1.6596,1.5529,1.4759,1.4304,1.3772,1.3307,1.2884,1.2442,1.2006,1.156,1.1096,1.091,1.091,1.091,1.091,1.091,1.091,1.091,1.091,1.091,1.1199,1.1529,-0.8203,-0.7883,-0.7624,-0.7395,-0.7314,-0.7244,0.0,-0.5835,-0.4913,-0.4786,-0.3095,-0.1918,-0.1918,-0.1498,-0.114,-0.0973,-0.0771,-0.0724,-0.0899,-0.078,-0.0899,-0.1296,-0.1308,-0.1315,-0.1315,-0.1303,-0.1318,-0.128,-0.1114,-0.0997,0.0,0.0,0.0,0.0,0.0,0.2959,0.332,0.3697,0.3846,0.3841,0.4307,0.4517,0.4534,0.513,0.5349,0.5373,0.5382,0.5334,0.5213,0.512,0.5105,0.5077,0.4991,0.48,0.4597,0.4538,0.4316,0.4075,0.3968,0.3887,0.3827,0.3709,0.3689,0.371,0.3693,0.3689,0.3724,0.3724,0.3816,0.405,0.444,0.5293,0.6093,0.6563,0.0,0.0,0.8691,0.8879,0.9035,0.9079,0.9092,0.9269,0.9766,1.0675,1.1308,1.1463,1.2685,1.3824,0.0,0.0,0.0,1.7537,0.0,1.636,1.6283,1.5437,1.4624,1.3865,1.3679,1.3493,1.3297,1.2618,1.1892,1.1168,1.0983,1.091,1.091,1.091,1.091,1.091,1.091,1.091,1.091,1.091,1.1199,1.156,-0.8142,0.0,-0.7423,0.0,-0.7041,-0.6926,-0.6671,-0.5644,-0.4668,-0.3989,-0.2351,-0.1261,-0.1278,-0.1323,-0.1258,-0.1004,-0.0892,-0.0846,-0.0965,-0.0815,-0.0893,-0.1241,-0.125,-0.1255,-0.1255,-0.1255,-0.1232,-0.1262,-0.1073,0.0,0.0,0.0,0.0,0.0,0.3091,0.3814,0.4092,0.4552,0.476,0.4713,0.4936,0.4976,0.4965,0.5269,0.5395,0.5388,0.5344,0.5223,0.5083,0.4999,0.4968,0.4961,0.4908,0.4763,0.4573,0.4573,0.4368,0.4109,0.4016,0.3935,0.3826,0.3741,0.3722,0.3722,0.3722,0.3722,0.3733,0.377,0.3843,0.4035,0.4448,0.5568,0.6474,0.6563,0.0,0.0,0.8446,0.8573,0.8696,0.8628,0.8799,0.9012,0.9281,1.0228,1.086,1.0934,1.2721,0.0,0.0,0.0,0.0,0.0,0.0,0.0,1.6095,1.528,1.4502,1.3745,1.3601,1.3563,1.3566,1.2701,1.1788,1.091,1.091,1.091,1.091,1.091,1.091,1.091,1.091,1.093,1.0949,1.09,1.1135,1.1465,-0.786,-0.7465,-0.7186,-0.7182,-0.693,-0.6654,-0.6538,-0.5041,-0.3878,-0.3709,-0.2257,-0.1229,-0.1291,-0.1243,-0.1206,-0.1204,-0.114,-0.1088,-0.1087,-0.1087,-0.1109,0.0,0.0,-0.1088,-0.1088,-0.1088,-0.1138,-0.1205,-0.1011,0.0,-0.0872,0.0,0.1763,0.3563,0.3438,0.3874,0.4692,0.4692,0.4621,0.4544,0.4862,0.4919,0.4834,0.5263,0.5395,0.5375,0.5186,0.51,0.5056,0.4796,0.4697,0.4721,0.487,0.4723,0.4513,0.4513,0.4273,0.3999,0.3999,0.3999,0.3996,0.3993,0.3993,0.3993,0.3993,0.3993,0.4033,0.4169,0.4196,0.4486,0.5419,0.636,0.7247,0.8033,0.0,0.0,0.0,0.8872,0.871,0.8704,0.9513,0.9741,0.8899,1.0364,1.1022,1.0194,0.0,0.0,0.0,0.0,0.0,1.6409,1.6796,0.0,1.6307,1.5167,1.4443,1.4083,1.3634,1.3467,1.3566,1.2701,1.1788,1.091,1.091,1.091,1.091,1.091,1.091,1.091,1.091,1.0987,1.1092,1.0949,1.0987,1.1155,-0.754,-0.7179,-0.679,-0.6608,-0.6513,-0.6155,-0.5407,-0.4816,-0.4038,-0.2947,-0.234,-0.1783,-0.1235,-0.1184,-0.1181,0.0,-0.1038,-0.1,0.0,-0.0965,-0.0967,-0.1172,-0.1127,-0.1131,-0.1151,-0.1152,-0.1193,-0.1203,0.0,0.0,0.0,0.1855,0.2829,0.3274,0.3988,0.4431,0.4684,0.4599,0.4539,0.4533,0.4759,0.4837,0.4831,0.5263,0.5327,0.5199,0.5117,0.4972,0.4816,0.4721,0.4651,0.4573,0.4621,0.4575,0.4503,0.4503,0.4333,0.4138,0.4138,0.4079,0.3996,0.3996,0.3996,0.3996,0.3996,0.3996,0.4008,0.4051,0.4394,0.4791,0.5177,0.6332,0.7313,0.7598,0.8303,0.0,0.859,0.8493,0.8458,0.849,0.8931,0.9096,0.8823,1.0063,1.0754,1.0472,0.0,0.0,0.0,0.0,0.0,0.0,1.6985,0.0,1.6317,1.5174,1.4407,1.3963,1.3571,1.3303,1.3101,1.2556,1.1954,1.1354,1.1034,1.091,1.091,1.091,1.091,1.091,1.091,1.0987,1.1082,1.1044,1.15,1.2118,-0.7137,-0.6797,-0.635,-0.5875,-0.5745,-0.5365,-0.4354,-0.4004,-0.3457,-0.2439,-0.2054,-0.1689,-0.1173,-0.1138,0.0,-0.1108,-0.1016,-0.1019,-0.1105,-0.0985,-0.0991,-0.1166,-0.1114,-0.1113,-0.1167,-0.0813,0.0,-0.0637,-0.0071,0.0717,0.1685,0.2722,0.3365,0.365,0.429,0.4555,0.455,0.4473,0.444,0.4435,0.4697,0.4764,0.4751,0.5143,0.5182,0.5012,0.4955,0.4847,0.468,0.4651,0.4569,0.4491,0.4491,0.4491,0.4491,0.4491,0.4408,0.4301,0.4301,0.4245,0.4187,0.4187,0.4187,0.4187,0.4187,0.4187,0.4187,0.4187,0.4653,0.5171,0.56,0.6597,0.7499,0.7824,0.8265,0.8506,0.8315,0.829,0.8309,0.8459,0.8837,0.9013,0.0,0.9933,1.0405,0.0,0.0,0.0,0.0,0.0,0.0,1.7862,1.6939,0.0,1.5979,1.4919,1.4294,1.4035,1.3603,1.314,1.2668,1.2411,1.1944,1.1313,1.1024,1.091,1.091,1.091,1.091,1.0921,1.1144,1.1304,1.1432,1.1612,1.2096,1.2669,-0.6579,-0.6258,-0.5789,0.0,-0.4737,0.0,-0.3426,-0.2788,-0.228,-0.2053,-0.1478,-0.1109,-0.1109,-0.1109,-0.1109,-0.1106,0.0,0.0,0.0,-0.1109,-0.1109,-0.1106,-0.1106,-0.1105,-0.1103,-0.02,0.0334,0.0402,0.1273,0.2194,0.3097,0.3028,0.3515,0.4487,0.4338,0.4287,0.4287,0.4278,0.4276,0.4306,0.4638,0.4691,0.4611,0.4956,0.4995,0.4884,0.4741,0.4684,0.4653,0.4539,0.4491,0.4491,0.4491,0.4491,0.4491,0.4491,0.4491,0.4491,0.4491,0.4491,0.4491,0.4491,0.4491,0.4491,0.4491,0.4515,0.4546,0.4546,0.5007,0.5688,0.6487,0.712,0.7767,0.8527,0.8451,0.8289,0.8289,0.8242,0.8321,0.8596,0.0,0.0,0.9056,0.9967,1.0117,0.0,0.0,0.0,0.0,0.0,1.6447,1.6643,1.6658,1.6239,1.542,1.4533,1.4128,1.4228,1.3645,1.3027,1.2401,1.237,1.1871,1.1045,1.0972,1.0972,1.0993,1.0962,1.0972,1.1054,1.1627,1.1886,1.1988,1.2435,1.2711,1.2914,0.0,0.0,-0.4821,-0.3946,-0.3736,-0.3422,-0.2551,-0.2269,-0.1961,-0.1412,-0.121,-0.1109,-0.1109,-0.1109,-0.1067,-0.1013,-0.1063,-0.1109,-0.1109,-0.1109,-0.1066,-0.1012,-0.1011,-0.1033,-0.1009,-0.0252,0.054,0.1363,0.2236,0.2842,0.3181,0.3727,0.4102,0.4336,0.4216,0.4162,0.4153,0.4029,0.3992,0.402,0.436,0.4467,0.4498,0.4812,0.4874,0.4741,0.4704,0.4644,0.4539,0.4501,0.4491,0.4491,0.4491,0.4491,0.4491,0.4491,0.4491,0.4491,0.4491,0.4491,0.4491,0.4491,0.4491,0.4491,0.4491,0.4818,0.5117,0.5117,0.5937,0.6744,0.6931,0.7438,0.7874,0.8048,0.8169,0.8234,0.8234,0.8285,0.8476,0.0,0.9255,0.94,0.9189,0.981,1.02,0.0,0.0,0.0,1.4024,1.5138,1.5871,1.6219,1.6251,1.5957,1.542,1.4533,1.3877,1.3456,1.3319,1.325,1.3279,1.2927,1.2636,1.2388,1.1716,1.1643,1.1944,1.1581,1.1643,1.1975,1.2121,1.2289,1.2446,1.2563,1.299,1.3521,-0.4944,-0.4552,-0.4007,-0.2982,-0.2812,-0.2559,-0.1749,-0.1646,-0.1511,-0.1143,-0.1065,-0.1057,-0.1057,-0.1044,-0.1029,-0.1014,-0.1039,-0.105,-0.1069,-0.1068,-0.0996,-0.0919,-0.0632,-0.0439,-0.037,0.0708,0.1734,0.2706,0.3166,0.3448,0.3515,0.3937,0.4132,0.4097,0.4032,0.4003,0.3997,0.3932,0.3967,0.4058,0.4299,0.4412,0.4419,0.4693,0.4718,0.4614,0.4614,0.4559,0.4491,0.4491,0.4491,0.4491,0.4491,0.4491,0.4491,0.4491,0.4491,0.4491,0.4491,0.4491,0.4491,0.4491,0.4491,0.4491,0.4491,0.4928,0.5304,0.5304,0.6263,0.7112,0.7112,0.7547,0.7928,0.8035,0.824,0.8402,0.8457,0.8735,0.8935,0.8995,0.9335,0.9433,0.9058,0.9573,1.0075,1.0378,1.1288,0.0,1.3952,1.4667,1.5363,1.6074,1.6095,1.588,1.5391,1.4533,1.3795,1.3194,1.3194,1.3226,1.3266,1.3018,1.2791,1.2596,1.212,1.1934,1.1986,1.1944,1.1934,1.2027,1.2561,1.2816,1.2968,1.3291,1.3806,1.4362,-0.4583,-0.3987,-0.322,-0.2147,-0.1946,-0.1745,-0.1176,-0.1106,-0.1069,-0.1069,-0.1044,-0.0994,-0.0994,-0.1003,-0.0986,-0.0982,-0.0973,-0.0948,-0.0959,-0.0895,-0.077,-0.0613,-0.0031,0.0366,0.0546,0.1887,0.3021,0.3876,0.3895,0.3903,0.3903,0.3903,0.3903,0.3903,0.3884,0.3876,0.3876,0.3857,0.3975,0.4155,0.4273,0.4349,0.4391,0.4596,0.4604,0.4491,0.4491,0.4491,0.4491,0.4491,0.4491,0.4491,0.4491,0.4546,0.4625,0.4625,0.468,0.4708,0.4546,0.4491,0.4491,0.4491,0.4491,0.4515,0.4598,0.5034,0.5469,0.555,0.648,0.7273,0.7273,0.7655,0.8047,0.8251,0.8505,0.8723,0.8873,0.0,0.9374,0.9143,0.9407,0.9419,0.8918,0.9325,0.9783,1.0159,1.1014,1.2084,1.332,1.4035,1.4835,1.5762,1.5928,1.5723,1.5196,1.4406,1.3736,1.3194,1.3194,1.3135,1.3008,1.3008,1.2824,1.2483,1.2411,1.2193,1.1923,1.2193,1.2152,1.2038,1.2988,1.3429,1.3637,1.4324,1.4846,1.521,-0.3186,-0.2683,-0.2114,-0.1377,-0.1243,-0.121,-0.1109,-0.1055,-0.1008,-0.1008,-0.1014,-0.0995,-0.0995,-0.0991,-0.0977,-0.0922,-0.0805,-0.0785,-0.0833,-0.0339,0.0,0.0207,0.0799,0.1139,0.1165,0.2098,0.3012,0.381,0.3884,0.3903,0.3903,0.3903,0.3903,0.39,0.3827,0.381,0.3805,0.3709,0.3722,0.3885,0.3998,0.4129,0.4253,0.4442,0.4511,0.4491,0.4491,0.4491,0.4491,0.4491,0.4491,0.4491,0.4491,0.4818,0.5171,0.5171,0.5527,0.5719,0.4763,0.4491,0.4491,0.4491,0.4491,0.4625,0.5062,0.5637,0.6209,0.6729,0.7461,0.8035,0.8035,0.8189,0.8397,0.8652,0.8846,0.9052,0.9356,0.0,0.9329,0.9564,0.9404,0.9244,0.9158,0.9224,0.9508,1.007,1.0841,1.1715,1.2773,1.357,1.4111,1.4406,1.5137,1.5137,1.4309,1.3821,1.3466,1.3194,1.3194,1.3307,1.3483,1.3483,1.3452,1.3382,1.2967,1.2977,1.3248,1.2566,1.2767,1.3487,1.364,1.4105,1.471,1.5241,1.5533,1.5744,-0.2644,-0.2149,-0.1673,-0.1154,-0.1053,-0.1048,-0.1031,-0.1018,-0.1009,-0.1009,-0.0983,-0.0934,-0.0934,-0.089,-0.0817,-0.0805,-0.0373,-0.0087,0.0,0.0176,0.0494,0.103,0.1629,0.2129,0.2517,0.2923,0.3318,0.369,0.3719,0.3746,0.3746,0.3746,0.3746,0.3743,0.3715,0.369,0.3687,0.3635,0.3719,0.391,0.3965,0.4135,0.4384,0.4463,0.4491,0.4491,0.4491,0.4491,0.4546,0.4846,0.4924,0.4979,0.5308,0.5582,0.5796,0.5796,0.5991,0.6073,0.5555,0.5418,0.5418,0.5418,0.5418,0.5473,0.5719,0.6263,0.6777,0.7133,0.7729,0.8221,0.8295,0.8348,0.8466,0.8675,0.9021,0.0,0.0,0.981,0.9886,0.9735,0.9559,0.9464,0.9429,0.9475,0.9987,1.11,1.163,1.2325,1.3286,1.3782,1.4051,1.4104,1.4494,1.4424,1.3887,1.3716,1.3506,1.3314,1.3314,1.3409,1.3597,1.3597,1.3597,1.3576,1.3369,1.3302,1.3309,1.2914,1.304,1.3509,1.386,1.4333,1.4871,1.547,1.592,1.6207,-0.2229,-0.1812,-0.1377,-0.1059,-0.0991,-0.1015,-0.0992,-0.0982,-0.0977,-0.0977,-0.0922,-0.0903,-0.0903,-0.0769,-0.0645,-0.0504,0.0084,0.0645,0.1092,0.1008,0.1203,0.1817,0.243,0.3019,0.3583,0.3613,0.3613,0.3613,0.3613,0.3613,0.3613,0.3613,0.3613,0.3613,0.3613,0.361,0.3638,0.3638,0.3802,0.4052,0.4052,0.4298,0.468,0.468,0.4763,0.4901,0.4901,0.4901,0.4952,0.5363,0.5496,0.5582,0.6046,0.629,0.6426,0.6448,0.6588,0.6642,0.634,0.6263,0.629,0.629,0.6263,0.6285,0.6475,0.6831,0.7214,0.7503,0.7943,0.8321,0.8421,0.848,0.8553,0.8718,0.0,0.0,0.0,1.0073,1.0178,0.9748,0.9633,0.9625,0.9684,0.9788,1.0438,1.187,1.2207,1.2706,1.3583,1.3759,1.3821,1.3821,1.3909,1.389,1.3694,1.362,1.3516,1.3396,1.3396,1.3467,1.3597,1.3597,1.3597,1.3597,1.3634,1.3494,1.3219,1.3272,1.3325,1.3435,1.4199,1.4587,1.4845,1.5785,1.6271,1.6494,-0.158,-0.1273,-0.1026,-0.0992,-0.0992,-0.099,-0.0988,-0.0934,-0.0917,-0.0917,-0.0891,-0.0901,-0.0901,-0.0786,-0.0476,0.0084,0.0476,0.1148,0.2289,0.2456,0.2569,0.2625,0.3188,0.3555,0.3613,0.3613,0.3613,0.3613,0.3613,0.3613,0.3613,0.3613,0.3613,0.3613,0.3613,0.3666,0.3796,0.3796,0.3938,0.4193,0.4193,0.4601,0.525,0.525,0.5582,0.6073,0.6073,0.6073,0.6073,0.6127,0.6122,0.6154,0.6182,0.6588,0.7052,0.7182,0.7691,0.7963,0.6713,0.6475,0.6561,0.6561,0.6475,0.6578,0.7251,0.7337,0.7477,0.8182,0.8441,0.8573,0.8573,0.8692,0.8865,0.911,0.0,0.0,0.9812,0.9649,0.9535,0.9687,0.9429,0.9437,0.9917,0.9987,1.0438,1.1545,1.1769,1.2144,1.2738,1.292,1.2993,1.2993,1.335,1.3586,1.3694,1.3323,1.324,1.3396,1.3396,1.3467,1.3597,1.3597,1.3597,1.3621,1.3739,1.3695,1.3585,1.3748,1.3839,1.3958,1.5004,1.5154,1.4987,1.6515,1.679,1.6479,-0.1197,-0.1094,-0.0982,-0.0933,-0.093,-0.0924,-0.0935,-0.0922,-0.0886,-0.0886,-0.082,-0.0644,-0.0252,0.0,0.042,0.1006,0.1593,0.2124,0.2595,0.3019,0.3244,0.3244,0.3471,0.3613,0.3613,0.3613,0.3613,0.3613,0.3613,0.3613,0.3613,0.3613,0.3613,0.3613,0.3691,0.3744,0.3824,0.4291,0.4594,0.4787,0.5167,0.5523,0.5855,0.5855,0.5987,0.6209,0.6209,0.6209,0.6263,0.6723,0.6831,0.6837,0.7295,0.7595,0.7815,0.7937,0.8229,0.8376,0.7642,0.7419,0.7405,0.7405,0.7257,0.7201,0.7647,0.7715,0.7841,0.8409,0.8573,0.8626,0.8718,0.8778,0.8784,0.8711,0.0,0.9322,0.933,0.9625,0.9911,1.0173,1.0068,1.0283,1.093,1.1074,1.1434,1.2215,1.2412,1.2584,1.2808,1.2954,1.3041,1.3094,1.3228,1.3332,1.3381,1.3246,1.3286,1.3515,1.3515,1.3539,1.3597,1.3597,1.3597,1.3621,1.3739,1.3821,1.3849,1.4016,1.407,1.4096,1.4843,1.5164,1.5363,1.6342,1.6781,1.6924,-0.0952,-0.0974,-0.0954,-0.0903,-0.0899,-0.0893,-0.09,-0.087,-0.0842,-0.0842,-0.0561,-0.0196,0.0224,0.07,0.1231,0.1817,0.2374,0.2792,0.2961,0.3357,0.3613,0.3613,0.3613,0.3613,0.3613,0.3613,0.3613,0.3613,0.3613,0.3613,0.3613,0.3613,0.361,0.3663,0.3962,0.4125,0.4263,0.4948,0.5332,0.5492,0.59,0.6231,0.648,0.648,0.6588,0.6723,0.6723,0.6777,0.6912,0.7396,0.7536,0.7595,0.8109,0.8295,0.8329,0.8312,0.8482,0.8574,0.8142,0.797,0.7896,0.7896,0.7724,0.7634,0.7851,0.7871,0.7973,0.8442,0.8528,0.858,0.8758,0.8757,0.8682,0.86,0.8915,0.9231,0.9349,0.9805,1.0274,1.0661,1.0709,1.098,1.1687,1.1841,1.2147,1.2725,1.2856,1.2929,1.2954,1.3075,1.3152,1.3194,1.3194,1.3314,1.3505,1.3338,1.3386,1.3597,1.3597,1.3597,1.3597,1.3597,1.3621,1.3692,1.3965,1.4129,1.4247,1.4684,1.4725,1.4611,1.5291,1.5537,1.5578,1.6362,1.6767,1.6977,-0.0898,-0.0898,-0.0898,-0.0898,-0.0898,-0.0898,-0.0898,-0.0785,-0.0701,-0.0701,-0.0056,0.0421,0.0421,0.1119,0.1845,0.2456,0.2625,0.2961,0.3555,0.3613,0.3613,0.3613,0.3613,0.3613,0.3613,0.3613,0.3613,0.3613,0.3613,0.3613,0.3613,0.3613,0.3691,0.3852,0.4453,0.4862,0.5132,0.576,0.6091,0.6209,0.6209,0.6566,0.7112,0.7112,0.744,0.7901,0.7901,0.8035,0.8195,0.8195,0.8295,0.8395,0.8395,0.8501,0.8541,0.8202,0.8435,0.8677,0.8065,0.7905,0.7905,0.7905,0.7797,0.7737,0.7875,0.7797,0.7828,0.831,0.8402,0.8489,0.8751,0.8641,0.8627,0.8954,0.885,0.9073,1.0061,1.021,1.0448,1.1124,1.1209,1.146,1.2051,1.2101,1.2332,1.2856,1.2905,1.2954,1.3085,1.3166,1.3194,1.3194,1.3218,1.3529,1.4199,1.3671,1.3467,1.3621,1.3621,1.3621,1.3621,1.361,1.3692,1.3844,1.4444,1.4698,1.4789,1.5864,1.5989,1.5595,1.659,1.6386,1.563,1.6781,1.6859,1.65,-0.0896,-0.0912,-0.0898,-0.0898,-0.0898,-0.087,-0.0785,-0.0364,-0.0028,0.0056,0.0756,0.1398,0.1815,0.2178,0.2625,0.3216,0.3302,0.3413,0.3583,0.3613,0.3613,0.3613,0.3613,0.3613,0.3613,0.3613,0.3613,0.3613,0.3882,0.4128,0.4374,0.4649,0.4952,0.5226,0.5492,0.5651,0.5787,0.6475,0.681,0.6864,0.7246,0.7494,0.7655,0.7655,0.7848,0.8115,0.8115,0.8221,0.8348,0.8448,0.8448,0.8421,0.8521,0.8573,0.8613,0.8586,0.8565,0.8417,0.8012,0.7769,0.7625,0.7625,0.7419,0.7275,0.7555,0.7722,0.7937,0.831,0.8633,0.8854,0.8916,0.929,0.9426,0.8999,0.9697,1.0245,1.0081,1.054,1.1124,1.1769,1.1819,1.2152,1.3004,1.2824,1.285,1.3301,1.3155,1.3065,1.3166,1.3276,1.3386,1.3491,1.3847,1.4129,1.435,1.3729,1.3658,1.4163,1.4163,1.4163,1.4186,1.4605,1.4812,1.488,1.5197,1.532,1.5387,1.6129,1.6107,1.564,1.6303,1.6408,1.6166,1.6506,1.6767,1.701,-0.0892,-0.0853,-0.0814,-0.0814,-0.0757,-0.0617,-0.0308,0.0112,0.0503,0.084,0.1566,0.2179,0.2539,0.2877,0.3216,0.3555,0.3613,0.3613,0.3613,0.3613,0.3613,0.3613,0.3747,0.3774,0.3613,0.3613,0.3666,0.3827,0.4208,0.4591,0.4948,0.5332,0.5632,0.5905,0.6226,0.6389,0.6475,0.7133,0.7408,0.7434,0.7762,0.7901,0.7901,0.7981,0.8088,0.8195,0.8268,0.8374,0.8501,0.8573,0.858,0.856,0.8659,0.8685,0.8646,0.8498,0.8417,0.8281,0.7692,0.7522,0.7457,0.7343,0.7154,0.7046,0.7248,0.7435,0.7701,0.8241,0.8539,0.8824,0.9137,0.9492,0.962,0.9314,1.0049,1.0614,1.0557,1.114,1.1769,1.2348,1.2431,1.2691,1.3441,1.315,1.3013,1.3317,1.3214,1.319,1.3266,1.342,1.361,1.3905,1.4233,1.4581,1.4949,1.4374,1.4292,1.4674,1.4674,1.4686,1.4777,1.513,1.5344,1.5433,1.5754,1.5908,1.6008,1.6552,1.6595,1.6337,1.6675,1.6816,1.6836,1.6836,1.7034,1.7344,-0.0898,-0.0785,-0.0701,-0.0701,-0.0505,-0.0168,0.0336,0.0673,0.1064,0.1621,0.2319,0.2792,0.2792,0.3272,0.3613,0.3613,0.3602,0.3594,0.3594,0.3558,0.3578,0.3605,0.3981,0.4036,0.3688,0.3738,0.3938,0.4288,0.467,0.5054,0.5441,0.58,0.6041,0.6199,0.6745,0.7047,0.7192,0.7681,0.7901,0.7901,0.7928,0.7928,0.7955,0.8141,0.8221,0.8242,0.8368,0.8501,0.8626,0.8626,0.8692,0.8804,0.8778,0.8764,0.8657,0.8072,0.8103,0.8134,0.7288,0.7285,0.7472,0.7172,0.7126,0.7119,0.7029,0.7063,0.7341,0.8143,0.8378,0.8662,0.9387,0.9476,0.9535,0.9835,1.0109,1.0561,1.1369,1.1868,1.2348,1.2832,1.2905,1.3071,1.3467,1.3189,1.3037,1.3159,1.325,1.3351,1.3519,1.3648,1.3926,1.4388,1.449,1.4915,1.575,1.5411,1.5221,1.5176,1.5176,1.5255,1.5366,1.5423,1.5545,1.5742,1.6204,1.6454,1.6607,1.7031,1.7287,1.7404,1.7404,1.744,1.7496,1.7496,1.7496,1.7516,-0.0898,-0.0785,-0.0701,-0.0701,-0.0196,0.0308,0.0589,0.1482,0.2206,0.243,0.3019,0.3413,0.3413,0.3527,0.3613,0.3613,0.3496,0.3441,0.3441,0.3352,0.3425,0.3732,0.398,0.4205,0.4383,0.4736,0.4979,0.5058,0.5706,0.6195,0.6556,0.6945,0.7273,0.7488,0.7628,0.7708,0.7735,0.7848,0.7901,0.7901,0.8062,0.8141,0.8141,0.8295,0.8421,0.8521,0.8547,0.8633,0.8752,0.8752,0.8778,0.8764,0.8537,0.8496,0.8397,0.8012,0.7802,0.7668,0.7524,0.7644,0.7813,0.7787,0.8062,0.8115,0.7275,0.7566,0.8084,0.8255,0.8933,0.9522,0.9694,1.0133,1.0494,1.0575,1.1236,1.1811,1.1999,1.2431,1.2783,1.2881,1.2905,1.3096,1.3604,1.3665,1.3706,1.3726,1.3851,1.4089,1.4471,1.4628,1.458,1.4326,1.5079,1.5443,1.5326,1.6009,1.6175,1.579,1.579,1.5844,1.594,1.6411,1.6671,1.6701,1.6913,1.7018,1.7052,1.7267,1.737,1.7404,1.7461,1.7488,1.7496,1.7496,1.7496,1.7516,-0.0813,-0.0617,-0.0364,-0.0084,0.0336,0.0869,0.1539,0.2179,0.2736,0.3074,0.3413,0.3613,0.3613,0.3613,0.3644,0.3745,0.3647,0.3648,0.3824,0.3855,0.3959,0.4182,0.4599,0.4894,0.5066,0.5666,0.5849,0.5628,0.6313,0.6826,0.7187,0.7542,0.7762,0.7895,0.779,0.7808,0.7889,0.779,0.786,0.8062,0.8168,0.814,0.8067,0.8197,0.821,0.8169,0.8251,0.8308,0.8365,0.8365,0.8365,0.8338,0.821,0.8163,0.8103,0.7826,0.7822,0.7857,0.7817,0.8032,0.8296,0.8329,0.8513,0.8496,0.771,0.7852,0.8283,0.878,0.912,0.9523,1.0191,1.0462,1.0629,1.0828,1.1511,1.2073,1.2279,1.273,1.3045,1.3045,1.3045,1.3159,1.3437,1.3922,1.4159,1.4003,1.4272,1.4572,1.4887,1.495,1.4994,1.5025,1.5852,1.6164,1.5918,1.7042,1.7365,1.6898,1.6582,1.6466,1.6527,1.6863,1.7044,1.7094,1.7178,1.7253,1.7308,1.737,1.7466,1.7549,1.7584,1.7632,1.7693,1.7693,1.7693,1.7733,-0.0639,-0.0335,0.0112,0.0617,0.0949,0.1499,0.252,0.2728,0.2973,0.3495,0.3534,0.3528,0.355,0.3616,0.3722,0.3951,0.3884,0.3972,0.4291,0.4456,0.4586,0.4682,0.526,0.5601,0.5673,0.636,0.652,0.6116,0.6671,0.7114,0.7468,0.7685,0.779,0.7784,0.7657,0.7656,0.7778,0.7651,0.7789,0.8078,0.8104,0.8011,0.7903,0.8096,0.8043,0.7885,0.8065,0.8112,0.8112,0.8112,0.8112,0.8129,0.8074,0.806,0.8045,0.7839,0.8056,0.8336,0.818,0.8484,0.8837,0.8857,0.896,0.8958,0.8498,0.8387,0.8593,0.9444,0.9368,0.9494,1.0603,1.0596,1.0567,1.0998,1.1558,1.2041,1.2377,1.2816,1.3083,1.3083,1.3178,1.3272,1.3353,1.4089,1.4537,1.4516,1.4883,1.521,1.5507,1.5559,1.5737,1.6112,1.6745,1.7043,1.6913,1.8042,1.8425,1.8059,1.7519,1.7265,1.7329,1.7238,1.725,1.7363,1.7272,1.7295,1.7412,1.7446,1.7549,1.7699,1.772,1.7801,1.7902,1.7983,1.7989,1.8069,-0.0429,0.011,0.0617,0.0673,0.1586,0.233,0.249,0.2866,0.32,0.3411,0.3333,0.3308,0.3414,0.364,0.389,0.4221,0.4145,0.4142,0.4373,0.4358,0.4545,0.5007,0.5338,0.5651,0.5947,0.6491,0.6725,0.6607,0.6987,0.7212,0.7315,0.7364,0.7395,0.7389,0.7467,0.7473,0.7389,0.7467,0.7545,0.7601,0.7716,0.7738,0.7778,0.8327,0.8502,0.8529,0.8896,0.9028,0.9028,0.9028,0.9028,0.9005,0.8811,0.8769,0.8743,0.8587,0.8585,0.8659,0.8675,0.903,0.9399,0.946,1.0036,1.048,1.0088,0.9901,0.9862,1.0077,1.0388,1.0574,1.041,1.0725,1.1142,1.16,1.2125,1.2514,1.2571,1.2632,1.2672,1.2672,1.3077,1.3538,1.3936,1.4199,1.4851,1.6078,1.6223,1.6688,1.7625,1.779,1.7703,1.7365,1.8007,1.8157,1.7738,1.8442,1.876,1.877,1.8669,1.863,1.864,1.817,1.7978,1.8034,1.756,1.7432,1.7509,1.7604,1.7679,1.7699,1.7821,1.7882,1.7942,1.8279,1.8417,1.8475,0.0137,0.0464,0.0931,0.1672,0.2141,0.2521,0.2942,0.3118,0.3212,0.3292,0.3226,0.3215,0.3292,0.3535,0.3907,0.4411,0.4487,0.461,0.4879,0.5111,0.5366,0.5583,0.5863,0.6062,0.6218,0.646,0.6575,0.6587,0.7031,0.7278,0.7308,0.7374,0.7422,0.7416,0.7306,0.7325,0.7409,0.7596,0.7802,0.8021,0.8313,0.8377,0.8347,0.8603,0.8594,0.8457,0.8623,0.8688,0.871,0.8775,0.8818,0.8808,0.8796,0.8789,0.8778,0.8757,0.895,0.9223,0.9556,0.9782,1.0018,1.0256,1.0619,1.0948,1.1111,1.1276,1.1308,1.1052,1.0762,1.0743,1.1356,1.126,1.1342,1.2128,1.2277,1.2404,1.2668,1.2744,1.296,1.3495,1.3768,1.408,1.4568,1.5163,1.5805,1.6454,1.712,1.7701,1.8195,1.8347,1.8338,1.8162,1.8814,1.8923,1.8413,1.9365,1.971,1.9407,1.9819,1.9622,1.8898,1.8717,1.8666,1.8684,1.8526,1.8321,1.8127,1.8183,1.8036,1.7842,1.8115,1.8372,1.8586,1.8765,1.8841,1.8898]}]]